Wetterdaten: Dienstag, 23.07.2019
Datum Zeit Temp. A. Pool Temp. Temp. 5cm Feuchte A. Luftdruck Regen Wind Richtung Richtung Sonnenschein ET UV Solar Taupunkt Windchill Windben Empfang
23.07.2019 00:00 20,0 C 25,6 C 18,9 C 80 % 1020,6 hPa 0,0 l/m 4,5 km/h (1 Bft) S-SW 205 0 min 0,000 mm 0,0 UV-I 0 W/m 16,4 C 20,0 C 6,4 km/h (2 Bft) 100,00 %
23.07.2019 00:02 20,0 C 25,6 C 18,9 C 80 % 1020,6 hPa 0,0 l/m 4,6 km/h (1 Bft) S-SW 205 0 min 0,000 mm 0,0 UV-I 0 W/m 16,4 C 20,0 C 6,4 km/h (2 Bft) 5,88 %
23.07.2019 00:04 19,9 C 25,6 C 18,9 C 80 % 1020,6 hPa 0,0 l/m 4,7 km/h (1 Bft) S-SW 202 0 min 0,000 mm 0,0 UV-I 0 W/m 16,3 C 19,9 C 6,4 km/h (2 Bft) 91,49 %
23.07.2019 00:06 19,9 C 25,6 C 18,9 C 80 % 1020,6 hPa 0,0 l/m 5,1 km/h (1 Bft) S-SW 207 0 min 0,000 mm 0,0 UV-I 0 W/m 16,3 C 19,9 C 8,0 km/h (2 Bft) 100,00 %
23.07.2019 00:08 19,9 C 25,6 C 18,9 C 80 % 1020,6 hPa 0,0 l/m 4,6 km/h (1 Bft) S-SW 207 0 min 0,000 mm 0,0 UV-I 0 W/m 16,3 C 19,9 C 6,4 km/h (2 Bft) 100,00 %
23.07.2019 00:10 19,9 C 25,6 C 18,9 C 80 % 1020,6 hPa 0,0 l/m 5,6 km/h (1 Bft) S-SW 200 0 min 0,000 mm 0,0 UV-I 0 W/m 16,3 C 19,9 C 8,0 km/h (2 Bft) 97,87 %
23.07.2019 00:12 20,0 C 25,6 C 18,9 C 80 % 1020,6 hPa 0,0 l/m 5,0 km/h (1 Bft) S-SW 205 0 min 0,000 mm 0,0 UV-I 0 W/m 16,4 C 20,0 C 8,0 km/h (2 Bft) 100,00 %
23.07.2019 00:14 20,0 C 25,6 C 18,9 C 79 % 1020,6 hPa 0,0 l/m 5,0 km/h (1 Bft) S-SW 202 0 min 0,000 mm 0,0 UV-I 0 W/m 16,2 C 20,0 C 8,0 km/h (2 Bft) 97,87 %
23.07.2019 00:16 20,0 C 25,6 C 18,9 C 79 % 1020,5 hPa 0,0 l/m 5,2 km/h (1 Bft) S-SW 198 0 min 0,000 mm 0,0 UV-I 0 W/m 16,2 C 20,0 C 8,0 km/h (2 Bft) 97,92 %
23.07.2019 00:18 20,0 C 25,6 C 18,9 C 79 % 1020,6 hPa 0,0 l/m 5,7 km/h (1 Bft) S-SW 205 0 min 0,000 mm 0,0 UV-I 0 W/m 16,2 C 20,0 C 8,0 km/h (2 Bft) 97,44 %
23.07.2019 00:20 20,1 C 25,6 C 18,9 C 78 % 1020,6 hPa 0,0 l/m 5,7 km/h (1 Bft) S-SW 202 0 min 0,000 mm 0,0 UV-I 0 W/m 16,1 C 20,1 C 8,0 km/h (2 Bft) 96,23 %
23.07.2019 00:22 20,1 C 25,6 C 18,9 C 78 % 1020,6 hPa 0,0 l/m 5,1 km/h (1 Bft) S-SW 209 0 min 0,000 mm 0,0 UV-I 0 W/m 16,1 C 20,1 C 8,0 km/h (2 Bft) 97,56 %
23.07.2019 00:24 20,1 C 25,6 C 18,9 C 78 % 1020,6 hPa 0,0 l/m 5,2 km/h (1 Bft) S-SW 198 0 min 0,000 mm 0,0 UV-I 0 W/m 16,1 C 20,1 C 6,4 km/h (2 Bft) 97,87 %
23.07.2019 00:26 20,0 C 25,6 C 18,9 C 79 % 1020,5 hPa 0,0 l/m 4,7 km/h (1 Bft) S-SW 195 0 min 0,000 mm 0,0 UV-I 0 W/m 16,2 C 20,0 C 6,4 km/h (2 Bft) 94,00 %
23.07.2019 00:28 20,0 C 25,6 C 18,9 C 78 % 1020,5 hPa 0,0 l/m 4,5 km/h (1 Bft) S-SW 204 0 min 0,000 mm 0,0 UV-I 0 W/m 16,0 C 20,0 C 6,4 km/h (2 Bft) 93,62 %
23.07.2019 00:30 19,9 C 25,6 C 18,9 C 78 % 1020,5 hPa 0,0 l/m 5,0 km/h (1 Bft) S-SW 197 0 min 0,000 mm 0,0 UV-I 0 W/m 15,9 C 19,9 C 6,4 km/h (2 Bft) 94,00 %
23.07.2019 00:32 19,9 C 25,6 C 18,9 C 78 % 1020,5 hPa 0,0 l/m 4,3 km/h (1 Bft) S-SW 197 0 min 0,000 mm 0,0 UV-I 0 W/m 15,9 C 19,9 C 6,4 km/h (2 Bft) 97,87 %
23.07.2019 00:34 19,9 C 25,6 C 18,9 C 78 % 1020,5 hPa 0,0 l/m 4,2 km/h (1 Bft) S-SW 197 0 min 0,000 mm 0,0 UV-I 0 W/m 15,9 C 19,9 C 6,4 km/h (2 Bft) 97,37 %
23.07.2019 00:36 19,9 C 25,6 C 18,9 C 78 % 1020,5 hPa 0,0 l/m 4,5 km/h (1 Bft) S-SW 197 0 min 0,000 mm 0,0 UV-I 0 W/m 15,9 C 19,9 C 4,8 km/h (1 Bft) 98,00 %
23.07.2019 00:38 19,8 C 25,6 C 18,3 C 79 % 1020,5 hPa 0,0 l/m 4,8 km/h (1 Bft) S-SW 198 0 min 0,000 mm 0,0 UV-I 0 W/m 16,0 C 19,8 C 6,4 km/h (2 Bft) 100,00 %
23.07.2019 00:40 19,8 C 25,6 C 18,3 C 79 % 1020,5 hPa 0,0 l/m 4,6 km/h (1 Bft) S-SW 198 0 min 0,000 mm 0,0 UV-I 0 W/m 16,0 C 19,8 C 6,4 km/h (2 Bft) 100,00 %
23.07.2019 00:42 19,7 C 25,6 C 18,3 C 79 % 1020,4 hPa 0,0 l/m 6,0 km/h (2 Bft) S-SW 204 0 min 0,000 mm 0,0 UV-I 0 W/m 16,0 C 19,7 C 8,0 km/h (2 Bft) 100,00 %
23.07.2019 00:44 19,7 C 25,6 C 18,3 C 79 % 1020,5 hPa 0,0 l/m 5,3 km/h (1 Bft) S-SW 203 0 min 0,000 mm 0,0 UV-I 0 W/m 16,0 C 19,7 C 8,0 km/h (2 Bft) 97,62 %
23.07.2019 00:46 19,7 C 25,6 C 18,3 C 79 % 1020,5 hPa 0,0 l/m 4,5 km/h (1 Bft) S-SW 202 0 min 0,000 mm 0,0 UV-I 0 W/m 16,0 C 19,7 C 6,4 km/h (2 Bft) 98,18 %
23.07.2019 00:48 19,6 C 25,6 C 18,9 C 80 % 1020,4 hPa 0,0 l/m 4,0 km/h (1 Bft) S-SW 202 0 min 0,000 mm 0,0 UV-I 0 W/m 16,1 C 19,6 C 6,4 km/h (2 Bft) 98,00 %
23.07.2019 00:50 19,6 C 25,6 C 18,3 C 80 % 1020,4 hPa 0,0 l/m 4,3 km/h (1 Bft) S-SW 203 0 min 0,000 mm 0,0 UV-I 0 W/m 16,1 C 19,6 C 6,4 km/h (2 Bft) 97,92 %
23.07.2019 00:52 19,6 C 25,6 C 18,3 C 80 % 1020,4 hPa 0,0 l/m 5,1 km/h (1 Bft) S-SW 207 0 min 0,000 mm 0,0 UV-I 0 W/m 16,1 C 19,6 C 6,4 km/h (2 Bft) 97,14 %
23.07.2019 00:54 19,5 C 25,6 C 18,3 C 80 % 1020,4 hPa 0,0 l/m 4,9 km/h (1 Bft) S-SW 207 0 min 0,000 mm 0,0 UV-I 0 W/m 16,0 C 19,5 C 6,4 km/h (2 Bft) 98,00 %
23.07.2019 00:56 19,4 C 25,6 C 18,3 C 80 % 1020,5 hPa 0,0 l/m 5,2 km/h (1 Bft) SW 215 0 min 0,000 mm 0,0 UV-I 0 W/m 15,9 C 19,4 C 8,0 km/h (2 Bft) 95,74 %
23.07.2019 00:58 19,3 C 25,6 C 18,3 C 81 % 1020,4 hPa 0,0 l/m 5,1 km/h (1 Bft) SW 215 0 min 0,000 mm 0,0 UV-I 0 W/m 16,0 C 19,3 C 6,4 km/h (2 Bft) 98,00 %
23.07.2019 01:00 19,2 C 25,6 C 18,3 C 81 % 1020,5 hPa 0,0 l/m 5,2 km/h (1 Bft) S-SW 213 0 min 0,025 mm 0,0 UV-I 0 W/m 15,9 C 19,2 C 6,4 km/h (2 Bft) 94,34 %
23.07.2019 01:02 19,2 C 25,6 C 18,3 C 81 % 1020,4 hPa 0,0 l/m 4,4 km/h (1 Bft) S-SW 213 0 min 0,000 mm 0,0 UV-I 0 W/m 15,9 C 19,2 C 6,4 km/h (2 Bft) 97,87 %
23.07.2019 01:04 19,2 C 25,6 C 18,3 C 81 % 1020,4 hPa 0,0 l/m 4,3 km/h (1 Bft) S-SW 213 0 min 0,000 mm 0,0 UV-I 0 W/m 15,9 C 19,2 C 6,4 km/h (2 Bft) 97,56 %
23.07.2019 01:06 19,3 C 25,6 C 18,3 C 81 % 1020,4 hPa 0,0 l/m 3,8 km/h (1 Bft) S-SW 213 0 min 0,000 mm 0,0 UV-I 0 W/m 16,0 C 19,3 C 6,4 km/h (2 Bft) 98,00 %
23.07.2019 01:08 19,3 C 25,6 C 18,3 C 81 % 1020,4 hPa 0,0 l/m 4,9 km/h (1 Bft) S-SW 213 0 min 0,000 mm 0,0 UV-I 0 W/m 16,0 C 19,3 C 6,4 km/h (2 Bft) 95,74 %
23.07.2019 01:10 19,3 C 25,6 C 18,3 C 80 % 1020,4 hPa 0,0 l/m 3,9 km/h (1 Bft) S-SW 213 0 min 0,000 mm 0,0 UV-I 0 W/m 15,8 C 19,3 C 6,4 km/h (2 Bft) 93,18 %
23.07.2019 01:12 19,3 C 25,6 C 18,3 C 81 % 1020,4 hPa 0,0 l/m 4,8 km/h (1 Bft) S-SW 194 0 min 0,000 mm 0,0 UV-I 0 W/m 16,0 C 19,3 C 6,4 km/h (2 Bft) 95,74 %
23.07.2019 01:14 19,3 C 25,6 C 18,3 C 80 % 1020,4 hPa 0,0 l/m 4,9 km/h (1 Bft) S-SW 207 0 min 0,000 mm 0,0 UV-I 0 W/m 15,8 C 19,3 C 6,4 km/h (2 Bft) 95,12 %
23.07.2019 01:16 19,3 C 25,6 C 18,3 C 80 % 1020,4 hPa 0,0 l/m 5,3 km/h (1 Bft) S-SW 210 0 min 0,000 mm 0,0 UV-I 0 W/m 15,8 C 19,3 C 8,0 km/h (2 Bft) 95,74 %
23.07.2019 01:18 19,3 C 25,6 C 18,3 C 80 % 1020,4 hPa 0,0 l/m 4,7 km/h (1 Bft) S-SW 203 0 min 0,000 mm 0,0 UV-I 0 W/m 15,8 C 19,3 C 6,4 km/h (2 Bft) 94,64 %
23.07.2019 01:20 19,4 C 25,6 C 18,3 C 80 % 1020,5 hPa 0,0 l/m 4,1 km/h (1 Bft) S-SW 207 0 min 0,000 mm 0,0 UV-I 0 W/m 15,9 C 19,4 C 6,4 km/h (2 Bft) 95,12 %
23.07.2019 01:22 19,3 C 25,6 C 18,3 C 80 % 1020,5 hPa 0,0 l/m 4,4 km/h (1 Bft) S-SW 207 0 min 0,000 mm 0,0 UV-I 0 W/m 15,8 C 19,3 C 6,4 km/h (2 Bft) 97,87 %
23.07.2019 01:24 19,3 C 25,6 C 18,3 C 80 % 1020,5 hPa 0,0 l/m 5,2 km/h (1 Bft) S 178 0 min 0,000 mm 0,0 UV-I 0 W/m 15,8 C 19,3 C 6,4 km/h (2 Bft) 98,11 %
23.07.2019 01:26 19,3 C 25,6 C 18,3 C 80 % 1020,5 hPa 0,0 l/m 4,8 km/h (1 Bft) S-SW 192 0 min 0,000 mm 0,0 UV-I 0 W/m 15,8 C 19,3 C 6,4 km/h (2 Bft) 97,87 %
23.07.2019 01:28 19,3 C 25,6 C 18,3 C 80 % 1020,5 hPa 0,0 l/m 4,4 km/h (1 Bft) S-SW 204 0 min 0,000 mm 0,0 UV-I 0 W/m 15,8 C 19,3 C 6,4 km/h (2 Bft) 97,62 %
23.07.2019 01:30 19,4 C 25,6 C 18,3 C 79 % 1020,5 hPa 0,0 l/m 5,3 km/h (1 Bft) S-SW 202 0 min 0,000 mm 0,0 UV-I 0 W/m 15,7 C 19,4 C 8,0 km/h (2 Bft) 96,23 %
23.07.2019 01:32 19,4 C 25,6 C 18,3 C 79 % 1020,5 hPa 0,0 l/m 4,0 km/h (1 Bft) S-SW 202 0 min 0,000 mm 0,0 UV-I 0 W/m 15,7 C 19,4 C 4,8 km/h (1 Bft) 97,37 %
23.07.2019 01:34 19,4 C 25,6 C 18,3 C 79 % 1020,5 hPa 0,0 l/m 5,2 km/h (1 Bft) S-SW 206 0 min 0,000 mm 0,0 UV-I 0 W/m 15,7 C 19,4 C 6,4 km/h (2 Bft) 98,21 %
23.07.2019 01:36 19,3 C 25,6 C 18,3 C 79 % 1020,5 hPa 0,0 l/m 4,6 km/h (1 Bft) S-SW 200 0 min 0,000 mm 0,0 UV-I 0 W/m 15,6 C 19,3 C 8,0 km/h (2 Bft) 94,29 %
23.07.2019 01:38 19,2 C 25,6 C 18,3 C 80 % 1020,5 hPa 0,0 l/m 5,4 km/h (1 Bft) S-SW 205 0 min 0,000 mm 0,0 UV-I 0 W/m 15,7 C 19,2 C 8,0 km/h (2 Bft) 94,64 %
23.07.2019 01:40 19,1 C 25,6 C 18,3 C 80 % 1020,4 hPa 0,0 l/m 4,3 km/h (1 Bft) S-SW 205 0 min 0,000 mm 0,0 UV-I 0 W/m 15,6 C 19,1 C 6,4 km/h (2 Bft) 94,74 %
23.07.2019 01:42 19,1 C 25,6 C 18,3 C 80 % 1020,4 hPa 0,0 l/m 5,4 km/h (1 Bft) S-SW 206 0 min 0,000 mm 0,0 UV-I 0 W/m 15,6 C 19,1 C 8,0 km/h (2 Bft) 96,00 %
23.07.2019 01:44 19,1 C 25,0 C 18,3 C 80 % 1020,4 hPa 0,0 l/m 5,0 km/h (1 Bft) S-SW 208 0 min 0,000 mm 0,0 UV-I 0 W/m 15,6 C 19,1 C 8,0 km/h (2 Bft) 96,00 %
23.07.2019 01:46 19,1 C 25,0 C 18,3 C 80 % 1020,4 hPa 0,0 l/m 5,9 km/h (2 Bft) S-SW 205 0 min 0,000 mm 0,0 UV-I 0 W/m 15,6 C 19,1 C 8,0 km/h (2 Bft) 94,74 %
23.07.2019 01:48 19,1 C 25,0 C 18,3 C 80 % 1020,4 hPa 0,0 l/m 5,2 km/h (1 Bft) S-SW 202 0 min 0,000 mm 0,0 UV-I 0 W/m 15,6 C 19,1 C 8,0 km/h (2 Bft) 96,43 %
23.07.2019 01:50 19,0 C 25,0 C 18,3 C 80 % 1020,4 hPa 0,0 l/m 5,4 km/h (1 Bft) S-SW 213 0 min 0,000 mm 0,0 UV-I 0 W/m 15,5 C 19,0 C 8,0 km/h (2 Bft) 92,00 %
23.07.2019 01:52 19,0 C 25,0 C 18,3 C 80 % 1020,4 hPa 0,0 l/m 5,5 km/h (1 Bft) S-SW 207 0 min 0,000 mm 0,0 UV-I 0 W/m 15,5 C 19,0 C 6,4 km/h (2 Bft) 100,00 %
23.07.2019 01:54 18,9 C 25,0 C 18,3 C 80 % 1020,4 hPa 0,0 l/m 5,7 km/h (1 Bft) S-SW 207 0 min 0,000 mm 0,0 UV-I 0 W/m 15,4 C 18,9 C 6,4 km/h (2 Bft) 91,49 %
23.07.2019 01:56 18,9 C 25,0 C 18,3 C 80 % 1020,4 hPa 0,0 l/m 5,1 km/h (1 Bft) S-SW 211 0 min 0,000 mm 0,0 UV-I 0 W/m 15,4 C 18,9 C 6,4 km/h (2 Bft) 98,21 %
23.07.2019 01:58 18,9 C 25,0 C 18,3 C 80 % 1020,4 hPa 0,0 l/m 5,4 km/h (1 Bft) SW 215 0 min 0,000 mm 0,0 UV-I 0 W/m 15,4 C 18,9 C 8,0 km/h (2 Bft) 95,74 %
23.07.2019 02:00 18,9 C 25,0 C 17,8 C 81 % 1020,4 hPa 0,0 l/m 5,6 km/h (1 Bft) S-SW 213 0 min 0,026 mm 0,0 UV-I 0 W/m 15,6 C 18,9 C 8,0 km/h (2 Bft) 94,87 %
23.07.2019 02:02 18,8 C 25,0 C 17,8 C 81 % 1020,4 hPa 0,0 l/m 4,7 km/h (1 Bft) S-SW 211 0 min 0,000 mm 0,0 UV-I 0 W/m 15,5 C 18,8 C 6,4 km/h (2 Bft) 96,15 %
23.07.2019 02:04 18,7 C 25,0 C 17,8 C 81 % 1020,4 hPa 0,0 l/m 5,1 km/h (1 Bft) S-SW 207 0 min 0,000 mm 0,0 UV-I 0 W/m 15,4 C 18,7 C 8,0 km/h (2 Bft) 97,44 %
23.07.2019 02:06 18,7 C 25,0 C 17,8 C 82 % 1020,4 hPa 0,0 l/m 4,9 km/h (1 Bft) S-SW 208 0 min 0,000 mm 0,0 UV-I 0 W/m 15,6 C 18,7 C 6,4 km/h (2 Bft) 98,00 %
23.07.2019 02:08 18,7 C 25,0 C 17,8 C 82 % 1020,4 hPa 0,0 l/m 5,3 km/h (1 Bft) S-SW 209 0 min 0,000 mm 0,0 UV-I 0 W/m 15,6 C 18,7 C 6,4 km/h (2 Bft) 98,11 %
23.07.2019 02:10 18,8 C 25,0 C 18,3 C 81 % 1020,4 hPa 0,0 l/m 5,6 km/h (1 Bft) S-SW 212 0 min 0,000 mm 0,0 UV-I 0 W/m 15,5 C 18,8 C 8,0 km/h (2 Bft) 97,37 %
23.07.2019 02:12 18,8 C 25,0 C 18,3 C 81 % 1020,4 hPa 0,0 l/m 5,6 km/h (1 Bft) S-SW 210 0 min 0,000 mm 0,0 UV-I 0 W/m 15,5 C 18,8 C 8,0 km/h (2 Bft) 98,00 %
23.07.2019 02:14 18,8 C 25,0 C 18,3 C 81 % 1020,5 hPa 0,0 l/m 5,3 km/h (1 Bft) S-SW 206 0 min 0,000 mm 0,0 UV-I 0 W/m 15,5 C 18,8 C 8,0 km/h (2 Bft) 100,00 %
23.07.2019 02:16 18,9 C 25,0 C 18,3 C 81 % 1020,4 hPa 0,0 l/m 4,7 km/h (1 Bft) S-SW 204 0 min 0,000 mm 0,0 UV-I 0 W/m 15,6 C 18,9 C 6,4 km/h (2 Bft) 100,00 %
23.07.2019 02:18 18,9 C 25,0 C 18,3 C 81 % 1020,4 hPa 0,0 l/m 4,7 km/h (1 Bft) S-SW 209 0 min 0,000 mm 0,0 UV-I 0 W/m 15,6 C 18,9 C 6,4 km/h (2 Bft) 100,00 %
23.07.2019 02:20 18,8 C 25,0 C 17,8 C 81 % 1020,4 hPa 0,0 l/m 4,8 km/h (1 Bft) S-SW 213 0 min 0,000 mm 0,0 UV-I 0 W/m 15,5 C 18,8 C 6,4 km/h (2 Bft) 98,11 %
23.07.2019 02:22 18,8 C 25,0 C 17,8 C 81 % 1020,4 hPa 0,0 l/m 4,7 km/h (1 Bft) S-SW 212 0 min 0,000 mm 0,0 UV-I 0 W/m 15,5 C 18,8 C 6,4 km/h (2 Bft) 100,00 %
23.07.2019 02:24 18,8 C 25,0 C 17,8 C 81 % 1020,4 hPa 0,0 l/m 5,1 km/h (1 Bft) SW 214 0 min 0,000 mm 0,0 UV-I 0 W/m 15,5 C 18,8 C 6,4 km/h (2 Bft) 97,87 %
23.07.2019 02:26 18,9 C 25,0 C 17,8 C 81 % 1020,4 hPa 0,0 l/m 4,5 km/h (1 Bft) S-SW 213 0 min 0,000 mm 0,0 UV-I 0 W/m 15,6 C 18,9 C 6,4 km/h (2 Bft) 100,00 %
23.07.2019 02:28 18,9 C 25,0 C 17,8 C 81 % 1020,5 hPa 0,0 l/m 4,8 km/h (1 Bft) S-SW 213 0 min 0,000 mm 0,0 UV-I 0 W/m 15,6 C 18,9 C 6,4 km/h (2 Bft) 100,00 %
23.07.2019 02:30 18,9 C 25,0 C 17,2 C 81 % 1020,5 hPa 0,0 l/m 5,3 km/h (1 Bft) S-SW 212 0 min 0,000 mm 0,0 UV-I 0 W/m 15,6 C 18,9 C 8,0 km/h (2 Bft) 97,37 %
23.07.2019 02:32 18,8 C 25,0 C 17,2 C 81 % 1020,5 hPa 0,0 l/m 5,2 km/h (1 Bft) SW 217 0 min 0,000 mm 0,0 UV-I 0 W/m 15,5 C 18,8 C 6,4 km/h (2 Bft) 100,00 %
23.07.2019 02:34 18,9 C 25,0 C 17,2 C 81 % 1020,4 hPa 0,0 l/m 5,0 km/h (1 Bft) S-SW 200 0 min 0,000 mm 0,0 UV-I 0 W/m 15,6 C 18,9 C 8,0 km/h (2 Bft) 97,56 %
23.07.2019 02:36 18,9 C 25,0 C 17,8 C 81 % 1020,4 hPa 0,0 l/m 5,5 km/h (1 Bft) S-SW 195 0 min 0,000 mm 0,0 UV-I 0 W/m 15,6 C 18,9 C 8,0 km/h (2 Bft) 97,92 %
23.07.2019 02:38 18,9 C 25,0 C 17,8 C 81 % 1020,4 hPa 0,0 l/m 4,5 km/h (1 Bft) S-SW 196 0 min 0,000 mm 0,0 UV-I 0 W/m 15,6 C 18,9 C 6,4 km/h (2 Bft) 100,00 %
23.07.2019 02:40 18,9 C 25,0 C 17,8 C 81 % 1020,4 hPa 0,0 l/m 3,9 km/h (1 Bft) S-SW 199 0 min 0,000 mm 0,0 UV-I 0 W/m 15,6 C 18,9 C 4,8 km/h (1 Bft) 100,00 %
23.07.2019 02:42 18,9 C 25,0 C 17,2 C 81 % 1020,4 hPa 0,0 l/m 3,0 km/h (1 Bft) S-SW 199 0 min 0,000 mm 0,0 UV-I 0 W/m 15,6 C 18,9 C 4,8 km/h (1 Bft) 100,00 %
23.07.2019 02:44 18,9 C 25,0 C 17,2 C 81 % 1020,4 hPa 0,0 l/m 3,0 km/h (1 Bft) S-SW 199 0 min 0,000 mm 0,0 UV-I 0 W/m 15,6 C 18,9 C 4,8 km/h (1 Bft) 100,00 %
23.07.2019 02:46 18,7 C 25,0 C 16,7 C 82 % 1020,4 hPa 0,0 l/m 2,1 km/h (1 Bft) S-SW 199 0 min 0,000 mm 0,0 UV-I 0 W/m 15,6 C 18,7 C 3,2 km/h (1 Bft) 100,00 %
23.07.2019 02:48 18,2 C 25,0 C 16,7 C 83 % 1020,4 hPa 0,0 l/m 2,9 km/h (1 Bft) S-SW 199 0 min 0,000 mm 0,0 UV-I 0 W/m 15,3 C 18,2 C 4,8 km/h (1 Bft) 100,00 %
23.07.2019 02:50 17,9 C 25,0 C 16,7 C 84 % 1020,4 hPa 0,0 l/m 3,2 km/h (1 Bft) S-SW 200 0 min 0,000 mm 0,0 UV-I 0 W/m 15,2 C 17,9 C 4,8 km/h (1 Bft) 97,37 %
23.07.2019 02:52 17,7 C 25,0 C 16,7 C 85 % 1020,4 hPa 0,0 l/m 2,8 km/h (1 Bft) S-SW 200 0 min 0,000 mm 0,0 UV-I 0 W/m 15,1 C 17,7 C 4,8 km/h (1 Bft) 100,00 %
23.07.2019 02:54 17,7 C 25,0 C 16,1 C 85 % 1020,5 hPa 0,0 l/m 3,4 km/h (1 Bft) S-SW 205 0 min 0,000 mm 0,0 UV-I 0 W/m 15,1 C 17,7 C 4,8 km/h (1 Bft) 98,11 %
23.07.2019 02:56 17,8 C 25,0 C 16,1 C 85 % 1020,4 hPa 0,0 l/m 2,9 km/h (1 Bft) S-SW 205 0 min 0,000 mm 0,0 UV-I 0 W/m 15,2 C 17,8 C 4,8 km/h (1 Bft) 96,00 %
23.07.2019 02:58 17,9 C 25,0 C 16,1 C 85 % 1020,5 hPa 0,0 l/m 2,7 km/h (1 Bft) S-SW 205 0 min 0,000 mm 0,0 UV-I 0 W/m 15,3 C 17,9 C 3,2 km/h (1 Bft) 97,14 %
23.07.2019 03:00 18,1 C 25,0 C 16,1 C 84 % 1020,4 hPa 0,0 l/m 1,9 km/h (1 Bft) S-SW 205 0 min 0,025 mm 0,0 UV-I 0 W/m 15,4 C 18,1 C 3,2 km/h (1 Bft) 97,73 %
23.07.2019 03:02 18,1 C 25,0 C 16,1 C 84 % 1020,4 hPa 0,0 l/m 1,5 km/h (1 Bft) S-SW 205 0 min 0,000 mm 0,0 UV-I 0 W/m 15,4 C 18,1 C 3,2 km/h (1 Bft) 98,21 %
23.07.2019 03:04 18,2 C 25,0 C 16,1 C 83 % 1020,4 hPa 0,0 l/m 1,6 km/h (1 Bft) S-SW 205 0 min 0,000 mm 0,0 UV-I 0 W/m 15,3 C 18,2 C 1,6 km/h (1 Bft) 94,00 %
23.07.2019 03:06 18,3 C 25,0 C 15,6 C 83 % 1020,5 hPa 0,0 l/m 1,7 km/h (1 Bft) S-SW 205 0 min 0,000 mm 0,0 UV-I 0 W/m 15,4 C 18,3 C 3,2 km/h (1 Bft) 94,74 %
23.07.2019 03:08 18,3 C 25,0 C 15,6 C 83 % 1020,5 hPa 0,0 l/m 0,6 km/h (0 Bft) S-SW 205 0 min 0,000 mm 0,0 UV-I 0 W/m 15,4 C 18,3 C 1,6 km/h (1 Bft) 96,23 %
23.07.2019 03:10 18,3 C 25,0 C 15,6 C 83 % 1020,4 hPa 0,0 l/m 0,0 km/h (0 Bft) S-SW 205 0 min 0,000 mm 0,0 UV-I 0 W/m 15,4 C 18,3 C 0,0 km/h (0 Bft) 94,00 %
23.07.2019 03:12 18,2 C 25,0 C 15,6 C 83 % 1020,5 hPa 0,0 l/m 0,7 km/h (0 Bft) S-SW 205 0 min 0,000 mm 0,0 UV-I 0 W/m 15,3 C 18,2 C 1,6 km/h (1 Bft) 97,22 %
23.07.2019 03:14 18,2 C 25,0 C 15,6 C 83 % 1020,5 hPa 0,0 l/m 1,5 km/h (1 Bft) S-SW 205 0 min 0,000 mm 0,0 UV-I 0 W/m 15,3 C 18,2 C 3,2 km/h (1 Bft) 94,23 %
23.07.2019 03:16 18,1 C 25,0 C 16,1 C 84 % 1020,5 hPa 0,0 l/m 2,5 km/h (1 Bft) S-SW 205 0 min 0,000 mm 0,0 UV-I 0 W/m 15,4 C 18,1 C 3,2 km/h (1 Bft) 96,00 %
23.07.2019 03:18 18,1 C 25,0 C 15,6 C 84 % 1020,5 hPa 0,0 l/m 2,0 km/h (1 Bft) S-SW 205 0 min 0,000 mm 0,0 UV-I 0 W/m 15,4 C 18,1 C 3,2 km/h (1 Bft) 94,87 %
23.07.2019 03:20 18,1 C 25,0 C 15,6 C 84 % 1020,5 hPa 0,0 l/m 2,1 km/h (1 Bft) S-SW 205 0 min 0,000 mm 0,0 UV-I 0 W/m 15,4 C 18,1 C 3,2 km/h (1 Bft) 96,00 %
23.07.2019 03:22 18,1 C 25,0 C 15,6 C 84 % 1020,4 hPa 0,0 l/m 2,1 km/h (1 Bft) S-SW 205 0 min 0,000 mm 0,0 UV-I 0 W/m 15,4 C 18,1 C 4,8 km/h (1 Bft) 94,64 %
23.07.2019 03:24 18,1 C 25,0 C 15,6 C 84 % 1020,5 hPa 0,0 l/m 3,7 km/h (1 Bft) SW 230 0 min 0,000 mm 0,0 UV-I 0 W/m 15,4 C 18,1 C 6,4 km/h (2 Bft) 94,74 %
23.07.2019 03:26 18,1 C 25,0 C 15,6 C 84 % 1020,4 hPa 0,0 l/m 4,3 km/h (1 Bft) SW 230 0 min 0,000 mm 0,0 UV-I 0 W/m 15,4 C 18,1 C 4,8 km/h (1 Bft) 98,11 %
23.07.2019 03:28 17,9 C 25,0 C 16,1 C 85 % 1020,3 hPa 0,0 l/m 5,6 km/h (1 Bft) S-SW 213 0 min 0,000 mm 0,0 UV-I 0 W/m 15,3 C 17,9 C 6,4 km/h (2 Bft) 97,37 %
23.07.2019 03:30 17,8 C 25,0 C 16,1 C 85 % 1020,3 hPa 0,0 l/m 5,5 km/h (1 Bft) S-SW 205 0 min 0,000 mm 0,0 UV-I 0 W/m 15,2 C 17,8 C 6,4 km/h (2 Bft) 98,21 %
23.07.2019 03:32 17,8 C 25,0 C 16,1 C 85 % 1020,3 hPa 0,0 l/m 6,3 km/h (2 Bft) S-SW 210 0 min 0,000 mm 0,0 UV-I 0 W/m 15,2 C 17,8 C 9,7 km/h (2 Bft) 100,00 %
23.07.2019 03:34 17,7 C 25,0 C 16,1 C 85 % 1020,2 hPa 0,0 l/m 5,6 km/h (1 Bft) S-SW 201 0 min 0,000 mm 0,0 UV-I 0 W/m 15,1 C 17,7 C 6,4 km/h (2 Bft) 100,00 %
23.07.2019 03:36 17,7 C 25,0 C 16,1 C 85 % 1020,1 hPa 0,0 l/m 5,3 km/h (1 Bft) S-SW 206 0 min 0,000 mm 0,0 UV-I 0 W/m 15,1 C 17,7 C 6,4 km/h (2 Bft) 100,00 %
23.07.2019 03:38 17,7 C 25,0 C 16,1 C 86 % 1020,2 hPa 0,0 l/m 5,1 km/h (1 Bft) S-SW 207 0 min 0,000 mm 0,0 UV-I 0 W/m 15,3 C 17,7 C 8,0 km/h (2 Bft) 100,00 %
23.07.2019 03:40 17,7 C 25,0 C 16,1 C 86 % 1020,1 hPa 0,0 l/m 5,1 km/h (1 Bft) S-SW 209 0 min 0,000 mm 0,0 UV-I 0 W/m 15,3 C 17,7 C 8,0 km/h (2 Bft) 98,00 %
23.07.2019 03:42 17,8 C 25,0 C 16,1 C 85 % 1020,1 hPa 0,0 l/m 5,9 km/h (2 Bft) S-SW 197 0 min 0,000 mm 0,0 UV-I 0 W/m 15,2 C 17,8 C 8,0 km/h (2 Bft) 100,00 %
23.07.2019 03:44 17,8 C 25,0 C 16,1 C 85 % 1020,1 hPa 0,0 l/m 4,4 km/h (1 Bft) S-SW 200 0 min 0,000 mm 0,0 UV-I 0 W/m 15,2 C 17,8 C 6,4 km/h (2 Bft) 98,11 %
23.07.2019 03:46 17,8 C 25,0 C 16,1 C 85 % 1020,1 hPa 0,0 l/m 5,2 km/h (1 Bft) SW 216 0 min 0,000 mm 0,0 UV-I 0 W/m 15,2 C 17,8 C 6,4 km/h (2 Bft) 100,00 %
23.07.2019 03:48 17,8 C 25,0 C 16,1 C 85 % 1020,1 hPa 0,0 l/m 4,9 km/h (1 Bft) SW 227 0 min 0,000 mm 0,0 UV-I 0 W/m 15,2 C 17,8 C 6,4 km/h (2 Bft) 98,00 %
23.07.2019 03:50 17,8 C 25,0 C 16,1 C 85 % 1020,1 hPa 0,0 l/m 3,5 km/h (1 Bft) S-SW 213 0 min 0,000 mm 0,0 UV-I 0 W/m 15,2 C 17,8 C 6,4 km/h (2 Bft) 97,87 %
23.07.2019 03:52 17,8 C 25,0 C 16,1 C 85 % 1020,1 hPa 0,0 l/m 2,7 km/h (1 Bft) S-SW 213 0 min 0,000 mm 0,0 UV-I 0 W/m 15,2 C 17,8 C 4,8 km/h (1 Bft) 97,44 %
23.07.2019 03:54 17,8 C 25,0 C 16,1 C 85 % 1020,1 hPa 0,0 l/m 3,5 km/h (1 Bft) SW 217 0 min 0,000 mm 0,0 UV-I 0 W/m 15,2 C 17,8 C 6,4 km/h (2 Bft) 100,00 %
23.07.2019 03:56 17,8 C 25,0 C 15,6 C 85 % 1020,1 hPa 0,0 l/m 5,6 km/h (1 Bft) SW 217 0 min 0,000 mm 0,0 UV-I 0 W/m 15,2 C 17,8 C 8,0 km/h (2 Bft) 100,00 %
23.07.2019 03:58 17,8 C 25,0 C 16,1 C 85 % 1020,1 hPa 0,0 l/m 4,3 km/h (1 Bft) SW 217 0 min 0,000 mm 0,0 UV-I 0 W/m 15,2 C 17,8 C 8,0 km/h (2 Bft) 97,44 %
23.07.2019 04:00 17,8 C 25,0 C 16,1 C 85 % 1020,1 hPa 0,0 l/m 3,6 km/h (1 Bft) SW 218 0 min 0,000 mm 0,0 UV-I 0 W/m 15,2 C 17,8 C 4,8 km/h (1 Bft) 100,00 %
23.07.2019 04:02 17,8 C 25,0 C 16,1 C 85 % 1020,1 hPa 0,0 l/m 5,1 km/h (1 Bft) SW 221 0 min 0,000 mm 0,0 UV-I 0 W/m 15,2 C 17,8 C 9,7 km/h (2 Bft) 100,00 %
23.07.2019 04:04 17,8 C 25,0 C 16,1 C 85 % 1020,1 hPa 0,0 l/m 6,0 km/h (2 Bft) S-SW 211 0 min 0,000 mm 0,0 UV-I 0 W/m 15,2 C 17,8 C 8,0 km/h (2 Bft) 100,00 %
23.07.2019 04:06 17,8 C 25,0 C 16,1 C 85 % 1020,1 hPa 0,0 l/m 5,8 km/h (2 Bft) SW 220 0 min 0,000 mm 0,0 UV-I 0 W/m 15,2 C 17,8 C 8,0 km/h (2 Bft) 100,00 %
23.07.2019 04:08 17,7 C 25,0 C 16,1 C 85 % 1020,1 hPa 0,0 l/m 6,2 km/h (2 Bft) SW 223 0 min 0,000 mm 0,0 UV-I 0 W/m 15,1 C 17,7 C 8,0 km/h (2 Bft) 100,00 %
23.07.2019 04:10 17,7 C 25,0 C 16,1 C 85 % 1020,1 hPa 0,0 l/m 7,0 km/h (2 Bft) SW 222 0 min 0,000 mm 0,0 UV-I 0 W/m 15,1 C 17,4 C 8,0 km/h (2 Bft) 100,00 %
23.07.2019 04:12 17,7 C 25,0 C 16,1 C 85 % 1020,0 hPa 0,0 l/m 7,6 km/h (2 Bft) SW 218 0 min 0,000 mm 0,0 UV-I 0 W/m 15,1 C 17,1 C 9,7 km/h (2 Bft) 100,00 %
23.07.2019 04:14 17,7 C 25,0 C 16,1 C 85 % 1020,1 hPa 0,0 l/m 7,9 km/h (2 Bft) S-SW 211 0 min 0,000 mm 0,0 UV-I 0 W/m 15,1 C 17,0 C 9,7 km/h (2 Bft) 100,00 %
23.07.2019 04:16 17,7 C 25,0 C 16,1 C 85 % 1020,1 hPa 0,0 l/m 6,7 km/h (2 Bft) SW 221 0 min 0,000 mm 0,0 UV-I 0 W/m 15,1 C 17,6 C 9,7 km/h (2 Bft) 100,00 %
23.07.2019 04:18 17,7 C 25,0 C 16,1 C 85 % 1020,1 hPa 0,0 l/m 5,7 km/h (1 Bft) S-SW 200 0 min 0,000 mm 0,0 UV-I 0 W/m 15,1 C 17,7 C 8,0 km/h (2 Bft) 100,00 %
23.07.2019 04:20 17,7 C 25,0 C 16,7 C 85 % 1020,1 hPa 0,0 l/m 5,6 km/h (1 Bft) S-SW 211 0 min 0,000 mm 0,0 UV-I 0 W/m 15,1 C 17,7 C 8,0 km/h (2 Bft) 97,87 %
23.07.2019 04:22 17,7 C 25,0 C 16,1 C 85 % 1020,1 hPa 0,0 l/m 6,0 km/h (2 Bft) S-SW 213 0 min 0,000 mm 0,0 UV-I 0 W/m 15,1 C 17,7 C 9,7 km/h (2 Bft) 100,00 %
23.07.2019 04:24 17,7 C 25,0 C 16,7 C 85 % 1020,0 hPa 0,0 l/m 5,6 km/h (1 Bft) S-SW 206 0 min 0,000 mm 0,0 UV-I 0 W/m 15,1 C 17,7 C 9,7 km/h (2 Bft) 97,87 %
23.07.2019 04:26 17,7 C 25,0 C 16,7 C 85 % 1020,0 hPa 0,0 l/m 5,0 km/h (1 Bft) S-SW 205 0 min 0,000 mm 0,0 UV-I 0 W/m 15,1 C 17,7 C 8,0 km/h (2 Bft) 100,00 %
23.07.2019 04:28 17,7 C 25,0 C 16,7 C 86 % 1020,1 hPa 0,0 l/m 4,3 km/h (1 Bft) S-SW 205 0 min 0,000 mm 0,0 UV-I 0 W/m 15,3 C 17,7 C 6,4 km/h (2 Bft) 97,18 %
23.07.2019 04:30 17,7 C 25,0 C 16,7 C 86 % 1020,1 hPa 0,0 l/m 4,1 km/h (1 Bft) S-SW 205 0 min 0,000 mm 0,0 UV-I 0 W/m 15,3 C 17,7 C 6,4 km/h (2 Bft) 100,00 %
23.07.2019 04:32 17,6 C 25,0 C 16,7 C 86 % 1020,1 hPa 0,0 l/m 4,1 km/h (1 Bft) S-SW 206 0 min 0,000 mm 0,0 UV-I 0 W/m 15,2 C 17,6 C 4,8 km/h (1 Bft) 97,92 %
23.07.2019 04:34 17,6 C 25,0 C 16,7 C 86 % 1020,1 hPa 0,0 l/m 4,3 km/h (1 Bft) S-SW 208 0 min 0,000 mm 0,0 UV-I 0 W/m 15,2 C 17,6 C 6,4 km/h (2 Bft) 97,87 %
23.07.2019 04:36 17,6 C 25,0 C 16,7 C 86 % 1020,1 hPa 0,0 l/m 4,3 km/h (1 Bft) S-SW 209 0 min 0,000 mm 0,0 UV-I 0 W/m 15,2 C 17,6 C 6,4 km/h (2 Bft) 96,00 %
23.07.2019 04:38 17,6 C 25,0 C 16,1 C 86 % 1020,1 hPa 0,0 l/m 2,9 km/h (1 Bft) S-SW 209 0 min 0,000 mm 0,0 UV-I 0 W/m 15,2 C 17,6 C 4,8 km/h (1 Bft) 97,73 %
23.07.2019 04:40 17,6 C 25,0 C 16,1 C 86 % 1020,1 hPa 0,0 l/m 3,9 km/h (1 Bft) SW 221 0 min 0,000 mm 0,0 UV-I 0 W/m 15,2 C 17,6 C 6,4 km/h (2 Bft) 98,00 %
23.07.2019 04:42 17,6 C 25,0 C 16,1 C 86 % 1020,1 hPa 0,0 l/m 3,9 km/h (1 Bft) W-SW 237 0 min 0,000 mm 0,0 UV-I 0 W/m 15,2 C 17,6 C 6,4 km/h (2 Bft) 98,00 %
23.07.2019 04:44 17,6 C 25,0 C 15,6 C 86 % 1020,1 hPa 0,0 l/m 4,5 km/h (1 Bft) SW 226 0 min 0,000 mm 0,0 UV-I 0 W/m 15,2 C 17,6 C 6,4 km/h (2 Bft) 97,87 %
23.07.2019 04:46 17,6 C 25,0 C 15,6 C 86 % 1020,1 hPa 0,0 l/m 4,6 km/h (1 Bft) SW 227 0 min 0,000 mm 0,0 UV-I 0 W/m 15,2 C 17,6 C 6,4 km/h (2 Bft) 95,74 %
23.07.2019 04:48 17,7 C 25,0 C 15,6 C 86 % 1020,1 hPa 0,0 l/m 4,1 km/h (1 Bft) SW 227 0 min 0,000 mm 0,0 UV-I 0 W/m 15,3 C 17,7 C 4,8 km/h (1 Bft) 94,74 %
23.07.2019 04:50 17,7 C 25,0 C 15,6 C 86 % 1020,1 hPa 0,0 l/m 3,8 km/h (1 Bft) SW 227 0 min 0,000 mm 0,0 UV-I 0 W/m 15,3 C 17,7 C 4,8 km/h (1 Bft) 95,74 %
23.07.2019 04:52 17,7 C 25,0 C 16,1 C 85 % 1020,1 hPa 0,0 l/m 4,1 km/h (1 Bft) SW 227 0 min 0,000 mm 0,0 UV-I 0 W/m 15,1 C 17,7 C 6,4 km/h (2 Bft) 96,00 %
23.07.2019 04:54 17,7 C 25,0 C 15,6 C 85 % 1020,1 hPa 0,0 l/m 3,6 km/h (1 Bft) SW 227 0 min 0,000 mm 0,0 UV-I 0 W/m 15,1 C 17,7 C 4,8 km/h (1 Bft) 95,12 %
23.07.2019 04:56 17,6 C 25,0 C 15,6 C 86 % 1020,2 hPa 0,0 l/m 2,1 km/h (1 Bft) SW 227 0 min 0,000 mm 0,0 UV-I 0 W/m 15,2 C 17,6 C 3,2 km/h (1 Bft) 96,23 %
23.07.2019 04:58 17,7 C 25,0 C 15,6 C 86 % 1020,2 hPa 0,0 l/m 1,9 km/h (1 Bft) SW 227 0 min 0,000 mm 0,0 UV-I 0 W/m 15,3 C 17,7 C 3,2 km/h (1 Bft) 95,74 %
23.07.2019 05:00 17,6 C 25,0 C 15,6 C 86 % 1020,2 hPa 0,0 l/m 2,3 km/h (1 Bft) SW 227 0 min 0,026 mm 0,0 UV-I 0 W/m 15,2 C 17,6 C 3,2 km/h (1 Bft) 94,00 %
23.07.2019 05:02 17,6 C 25,0 C 15,6 C 86 % 1020,2 hPa 0,0 l/m 2,9 km/h (1 Bft) SW 227 0 min 0,000 mm 0,0 UV-I 0 W/m 15,2 C 17,6 C 3,2 km/h (1 Bft) 95,12 %
23.07.2019 05:04 17,6 C 25,0 C 15,6 C 86 % 1020,3 hPa 0,0 l/m 2,8 km/h (1 Bft) SW 227 0 min 0,000 mm 0,0 UV-I 0 W/m 15,2 C 17,6 C 3,2 km/h (1 Bft) 92,45 %
23.07.2019 05:06 17,5 C 25,0 C 15,6 C 86 % 1020,3 hPa 0,0 l/m 2,4 km/h (1 Bft) SW 227 0 min 0,000 mm 0,0 UV-I 0 W/m 15,1 C 17,5 C 3,2 km/h (1 Bft) 92,11 %
23.07.2019 05:08 17,4 C 25,0 C 15,6 C 86 % 1020,3 hPa 0,0 l/m 2,7 km/h (1 Bft) SW 227 0 min 0,000 mm 0,0 UV-I 0 W/m 15,0 C 17,4 C 3,2 km/h (1 Bft) 94,00 %
23.07.2019 05:10 17,3 C 25,0 C 15,6 C 87 % 1020,3 hPa 0,0 l/m 2,3 km/h (1 Bft) SW 227 0 min 0,000 mm 0,0 UV-I 0 W/m 15,1 C 17,3 C 4,8 km/h (1 Bft) 94,00 %
23.07.2019 05:12 17,2 C 25,0 C 15,6 C 87 % 1020,3 hPa 0,0 l/m 2,2 km/h (1 Bft) SW 227 0 min 0,000 mm 0,0 UV-I 3 W/m 15,0 C 17,2 C 3,2 km/h (1 Bft) 97,44 %
23.07.2019 05:14 17,1 C 25,0 C 15,6 C 87 % 1020,3 hPa 0,0 l/m 3,8 km/h (1 Bft) SW 227 0 min 0,000 mm 0,0 UV-I 5 W/m 14,9 C 17,1 C 4,8 km/h (1 Bft) 96,23 %
23.07.2019 05:16 17,1 C 25,0 C 15,6 C 88 % 1020,3 hPa 0,0 l/m 4,4 km/h (1 Bft) SW 227 0 min 0,000 mm 0,0 UV-I 5 W/m 15,1 C 17,1 C 4,8 km/h (1 Bft) 95,74 %
23.07.2019 05:18 17,2 C 25,0 C 15,6 C 88 % 1020,3 hPa 0,0 l/m 4,2 km/h (1 Bft) SW 227 0 min 0,000 mm 0,0 UV-I 5 W/m 15,2 C 17,2 C 4,8 km/h (1 Bft) 93,62 %
23.07.2019 05:20 17,1 C 25,0 C 15,0 C 87 % 1020,3 hPa 0,0 l/m 2,4 km/h (1 Bft) SW 227 0 min 0,000 mm 0,0 UV-I 5 W/m 14,9 C 17,1 C 3,2 km/h (1 Bft) 96,00 %
23.07.2019 05:22 16,9 C 25,0 C 15,0 C 87 % 1020,3 hPa 0,0 l/m 2,2 km/h (1 Bft) SW 227 0 min 0,000 mm 0,0 UV-I 6 W/m 14,7 C 16,9 C 4,8 km/h (1 Bft) 92,68 %
23.07.2019 05:24 16,8 C 25,0 C 15,0 C 88 % 1020,3 hPa 0,0 l/m 3,4 km/h (1 Bft) SW 227 0 min 0,000 mm 0,0 UV-I 7 W/m 14,8 C 16,8 C 4,8 km/h (1 Bft) 95,74 %
23.07.2019 05:26 16,7 C 25,0 C 15,0 C 88 % 1020,3 hPa 0,0 l/m 3,0 km/h (1 Bft) SW 227 0 min 0,000 mm 0,0 UV-I 7 W/m 14,7 C 16,7 C 4,8 km/h (1 Bft) 94,00 %
23.07.2019 05:28 16,7 C 25,0 C 15,0 C 89 % 1020,3 hPa 0,0 l/m 0,4 km/h (0 Bft) SW 227 0 min 0,000 mm 0,0 UV-I 7 W/m 14,9 C 16,7 C 1,6 km/h (1 Bft) 96,00 %
23.07.2019 05:30 16,7 C 25,0 C 15,0 C 89 % 1020,4 hPa 0,0 l/m 2,0 km/h (1 Bft) SW 227 0 min 0,000 mm 0,0 UV-I 8 W/m 14,9 C 16,7 C 3,2 km/h (1 Bft) 97,87 %
23.07.2019 05:32 16,7 C 25,0 C 15,0 C 89 % 1020,4 hPa 0,0 l/m 2,7 km/h (1 Bft) SW 227 0 min 0,000 mm 0,0 UV-I 9 W/m 14,9 C 16,7 C 3,2 km/h (1 Bft) 97,87 %
23.07.2019 05:34 16,7 C 25,0 C 15,0 C 89 % 1020,3 hPa 0,0 l/m 3,7 km/h (1 Bft) SW 227 0 min 0,000 mm 0,0 UV-I 9 W/m 14,9 C 16,7 C 4,8 km/h (1 Bft) 95,12 %
23.07.2019 05:36 16,8 C 25,0 C 15,6 C 89 % 1020,4 hPa 0,0 l/m 3,5 km/h (1 Bft) SW 227 0 min 0,000 mm 0,0 UV-I 11 W/m 15,0 C 16,8 C 4,8 km/h (1 Bft) 95,74 %
23.07.2019 05:38 16,9 C 25,0 C 15,6 C 89 % 1020,4 hPa 0,0 l/m 2,4 km/h (1 Bft) SW 227 0 min 0,000 mm 0,0 UV-I 11 W/m 15,1 C 16,9 C 3,2 km/h (1 Bft) 98,00 %
23.07.2019 05:40 17,0 C 25,0 C 15,6 C 88 % 1020,3 hPa 0,0 l/m 3,0 km/h (1 Bft) SW 227 2 min 0,000 mm 0,0 UV-I 12 W/m 15,0 C 17,0 C 4,8 km/h (1 Bft) 95,12 %
23.07.2019 05:42 17,1 C 25,0 C 15,6 C 88 % 1020,4 hPa 0,0 l/m 4,0 km/h (1 Bft) SW 227 2 min 0,000 mm 0,0 UV-I 13 W/m 15,1 C 17,1 C 4,8 km/h (1 Bft) 93,62 %
23.07.2019 05:44 17,1 C 25,0 C 15,6 C 88 % 1020,4 hPa 0,0 l/m 4,4 km/h (1 Bft) SW 227 2 min 0,000 mm 0,0 UV-I 15 W/m 15,1 C 17,1 C 6,4 km/h (2 Bft) 100,00 %
23.07.2019 05:46 17,0 C 25,0 C 15,6 C 88 % 1020,4 hPa 0,0 l/m 5,0 km/h (1 Bft) SW 227 2 min 0,000 mm 0,0 UV-I 19 W/m 15,0 C 17,0 C 6,4 km/h (2 Bft) 98,00 %
23.07.2019 05:48 16,9 C 25,0 C 15,6 C 88 % 1020,4 hPa 0,0 l/m 5,2 km/h (1 Bft) SW 224 2 min 0,000 mm 0,0 UV-I 22 W/m 14,9 C 16,9 C 6,4 km/h (2 Bft) 97,78 %
23.07.2019 05:50 16,8 C 25,0 C 15,6 C 88 % 1020,4 hPa 0,0 l/m 5,3 km/h (1 Bft) SW 221 0 min 0,000 mm 0,0 UV-I 21 W/m 14,8 C 16,8 C 6,4 km/h (2 Bft) 100,00 %
23.07.2019 05:52 16,7 C 25,0 C 15,6 C 88 % 1020,4 hPa 0,0 l/m 4,8 km/h (1 Bft) S-SW 213 2 min 0,000 mm 0,0 UV-I 27 W/m 14,7 C 16,7 C 6,4 km/h (2 Bft) 98,08 %
23.07.2019 05:54 16,7 C 25,0 C 16,1 C 89 % 1020,4 hPa 0,0 l/m 4,7 km/h (1 Bft) S-SW 211 2 min 0,000 mm 0,0 UV-I 33 W/m 14,9 C 16,7 C 6,4 km/h (2 Bft) 100,00 %
23.07.2019 05:56 16,7 C 25,0 C 16,1 C 89 % 1020,4 hPa 0,0 l/m 5,6 km/h (1 Bft) S-SW 209 2 min 0,000 mm 0,0 UV-I 36 W/m 14,9 C 16,7 C 8,0 km/h (2 Bft) 100,00 %
23.07.2019 05:58 16,8 C 25,0 C 16,1 C 89 % 1020,5 hPa 0,0 l/m 5,4 km/h (1 Bft) S-SW 209 2 min 0,000 mm 0,0 UV-I 39 W/m 15,0 C 16,8 C 6,4 km/h (2 Bft) 95,74 %
23.07.2019 06:00 16,9 C 25,0 C 16,1 C 89 % 1020,4 hPa 0,0 l/m 4,5 km/h (1 Bft) S-SW 208 2 min 0,025 mm 0,0 UV-I 42 W/m 15,1 C 16,9 C 6,4 km/h (2 Bft) 96,00 %
23.07.2019 06:02 16,9 C 25,0 C 16,1 C 88 % 1020,4 hPa 0,0 l/m 3,7 km/h (1 Bft) S-SW 209 2 min 0,000 mm 0,0 UV-I 45 W/m 14,9 C 16,9 C 6,4 km/h (2 Bft) 97,87 %
23.07.2019 06:04 17,1 C 25,0 C 16,7 C 88 % 1020,4 hPa 0,0 l/m 5,2 km/h (1 Bft) S-SW 209 2 min 0,000 mm 0,0 UV-I 48 W/m 15,1 C 17,1 C 8,0 km/h (2 Bft) 95,74 %
23.07.2019 06:06 17,1 C 25,0 C 16,7 C 88 % 1020,4 hPa 0,0 l/m 5,8 km/h (2 Bft) S-SW 201 2 min 0,000 mm 0,0 UV-I 51 W/m 15,1 C 17,1 C 8,0 km/h (2 Bft) 98,00 %
23.07.2019 06:08 17,1 C 25,0 C 16,7 C 88 % 1020,4 hPa 0,0 l/m 5,6 km/h (1 Bft) S-SW 213 2 min 0,000 mm 0,0 UV-I 55 W/m 15,1 C 17,1 C 8,0 km/h (2 Bft) 98,00 %
23.07.2019 06:10 17,2 C 25,0 C 16,7 C 88 % 1020,4 hPa 0,0 l/m 6,2 km/h (2 Bft) SW 219 2 min 0,000 mm 0,0 UV-I 57 W/m 15,2 C 17,2 C 8,0 km/h (2 Bft) 94,29 %
23.07.2019 06:12 17,2 C 25,0 C 16,7 C 87 % 1020,4 hPa 0,0 l/m 4,1 km/h (1 Bft) S-SW 207 2 min 0,000 mm 0,0 UV-I 62 W/m 15,0 C 17,2 C 6,4 km/h (2 Bft) 98,11 %
23.07.2019 06:14 17,3 C 25,0 C 16,7 C 87 % 1020,5 hPa 0,0 l/m 5,0 km/h (1 Bft) S-SW 201 2 min 0,000 mm 0,0 UV-I 66 W/m 15,1 C 17,3 C 6,4 km/h (2 Bft) 91,67 %
23.07.2019 06:16 17,3 C 25,0 C 16,7 C 87 % 1020,5 hPa 0,0 l/m 4,7 km/h (1 Bft) S-SW 197 2 min 0,000 mm 0,0 UV-I 67 W/m 15,1 C 17,3 C 6,4 km/h (2 Bft) 97,14 %
23.07.2019 06:18 17,3 C 25,0 C 16,7 C 87 % 1020,5 hPa 0,0 l/m 3,7 km/h (1 Bft) S-SW 195 2 min 0,000 mm 0,0 UV-I 70 W/m 15,1 C 17,3 C 4,8 km/h (1 Bft) 98,00 %
23.07.2019 06:20 17,4 C 25,0 C 16,7 C 87 % 1020,5 hPa 0,0 l/m 3,9 km/h (1 Bft) S-SW 193 2 min 0,000 mm 0,0 UV-I 77 W/m 15,2 C 17,4 C 6,4 km/h (2 Bft) 95,74 %
23.07.2019 06:22 17,5 C 25,0 C 16,7 C 87 % 1020,5 hPa 0,0 l/m 3,5 km/h (1 Bft) S-SW 193 2 min 0,000 mm 0,0 UV-I 83 W/m 15,3 C 17,5 C 4,8 km/h (1 Bft) 100,00 %
23.07.2019 06:24 17,7 C 25,0 C 16,7 C 86 % 1020,5 hPa 0,0 l/m 4,8 km/h (1 Bft) S 185 2 min 0,000 mm 0,0 UV-I 85 W/m 15,3 C 17,7 C 6,4 km/h (2 Bft) 98,11 %
23.07.2019 06:26 17,7 C 25,0 C 16,7 C 85 % 1020,5 hPa 0,0 l/m 4,2 km/h (1 Bft) S 185 2 min 0,000 mm 0,0 UV-I 91 W/m 15,1 C 17,7 C 6,4 km/h (2 Bft) 100,00 %
23.07.2019 06:28 17,8 C 25,0 C 17,2 C 85 % 1020,5 hPa 0,0 l/m 4,3 km/h (1 Bft) S-SW 199 2 min 0,000 mm 0,0 UV-I 95 W/m 15,2 C 17,8 C 4,8 km/h (1 Bft) 100,00 %
23.07.2019 06:30 17,8 C 25,0 C 17,2 C 85 % 1020,5 hPa 0,0 l/m 3,2 km/h (1 Bft) S-SW 196 2 min 0,000 mm 0,0 UV-I 98 W/m 15,2 C 17,8 C 6,4 km/h (2 Bft) 100,00 %
23.07.2019 06:32 17,9 C 25,0 C 17,2 C 85 % 1020,5 hPa 0,0 l/m 2,2 km/h (1 Bft) S-SW 196 2 min 0,000 mm 0,0 UV-I 103 W/m 15,3 C 17,9 C 4,8 km/h (1 Bft) 100,00 %
23.07.2019 06:34 17,9 C 25,0 C 17,2 C 84 % 1020,5 hPa 0,0 l/m 1,6 km/h (1 Bft) S-SW 196 2 min 0,000 mm 0,0 UV-I 107 W/m 15,2 C 17,9 C 3,2 km/h (1 Bft) 100,00 %
23.07.2019 06:36 18,0 C 25,0 C 17,2 C 84 % 1020,5 hPa 0,0 l/m 2,1 km/h (1 Bft) S-SW 196 2 min 0,000 mm 0,0 UV-I 113 W/m 15,3 C 18,0 C 4,8 km/h (1 Bft) 100,00 %
23.07.2019 06:38 18,1 C 25,0 C 17,2 C 84 % 1020,5 hPa 0,0 l/m 2,7 km/h (1 Bft) S-SW 196 2 min 0,000 mm 0,0 UV-I 117 W/m 15,4 C 18,1 C 4,8 km/h (1 Bft) 100,00 %
23.07.2019 06:40 18,1 C 25,0 C 17,2 C 84 % 1020,5 hPa 0,0 l/m 4,4 km/h (1 Bft) SW 216 2 min 0,000 mm 0,0 UV-I 121 W/m 15,4 C 18,1 C 6,4 km/h (2 Bft) 100,00 %
23.07.2019 06:42 18,1 C 25,0 C 17,2 C 84 % 1020,5 hPa 0,0 l/m 3,7 km/h (1 Bft) SW 221 2 min 0,000 mm 0,0 UV-I 125 W/m 15,4 C 18,1 C 4,8 km/h (1 Bft) 100,00 %
23.07.2019 06:44 18,1 C 25,0 C 17,2 C 84 % 1020,5 hPa 0,0 l/m 3,9 km/h (1 Bft) SW 215 2 min 0,000 mm 0,0 UV-I 131 W/m 15,4 C 18,1 C 4,8 km/h (1 Bft) 100,00 %
23.07.2019 06:46 18,0 C 25,0 C 17,2 C 85 % 1020,5 hPa 0,0 l/m 3,1 km/h (1 Bft) SW 215 2 min 0,000 mm 0,0 UV-I 136 W/m 15,4 C 18,0 C 4,8 km/h (1 Bft) 100,00 %
23.07.2019 06:48 18,0 C 25,0 C 17,2 C 85 % 1020,6 hPa 0,0 l/m 3,7 km/h (1 Bft) SW 215 2 min 0,000 mm 0,0 UV-I 141 W/m 15,4 C 18,0 C 4,8 km/h (1 Bft) 100,00 %
23.07.2019 06:50 18,0 C 25,0 C 17,2 C 85 % 1020,6 hPa 0,0 l/m 3,0 km/h (1 Bft) SW 215 2 min 0,000 mm 0,0 UV-I 145 W/m 15,4 C 18,0 C 4,8 km/h (1 Bft) 97,87 %
23.07.2019 06:52 18,1 C 25,0 C 17,2 C 85 % 1020,7 hPa 0,0 l/m 2,9 km/h (1 Bft) SW 215 2 min 0,000 mm 0,0 UV-I 151 W/m 15,5 C 18,1 C 4,8 km/h (1 Bft) 100,00 %
23.07.2019 06:54 18,2 C 25,0 C 17,2 C 85 % 1020,7 hPa 0,0 l/m 2,5 km/h (1 Bft) SW 214 2 min 0,000 mm 0,0 UV-I 156 W/m 15,6 C 18,2 C 4,8 km/h (1 Bft) 98,44 %
23.07.2019 06:56 18,3 C 25,0 C 17,8 C 84 % 1020,7 hPa 0,0 l/m 3,1 km/h (1 Bft) SW 214 2 min 0,000 mm 0,0 UV-I 161 W/m 15,5 C 18,3 C 4,8 km/h (1 Bft) 100,00 %
23.07.2019 06:58 18,5 C 25,0 C 17,8 C 84 % 1020,7 hPa 0,0 l/m 3,4 km/h (1 Bft) SW 215 2 min 0,000 mm 0,0 UV-I 166 W/m 15,7 C 18,5 C 4,8 km/h (1 Bft) 100,00 %
23.07.2019 07:00 18,7 C 25,0 C 17,8 C 84 % 1020,8 hPa 0,0 l/m 4,4 km/h (1 Bft) SW 215 2 min 0,076 mm 0,0 UV-I 173 W/m 15,9 C 18,7 C 6,4 km/h (2 Bft) 97,73 %
23.07.2019 07:02 18,7 C 25,0 C 18,3 C 83 % 1020,8 hPa 0,0 l/m 4,9 km/h (1 Bft) S-SW 213 2 min 0,000 mm 0,0 UV-I 177 W/m 15,8 C 18,7 C 6,4 km/h (2 Bft) 100,00 %
23.07.2019 07:04 18,9 C 25,0 C 18,3 C 83 % 1020,8 hPa 0,0 l/m 2,9 km/h (1 Bft) S-SW 213 2 min 0,000 mm 0,0 UV-I 182 W/m 15,9 C 18,9 C 4,8 km/h (1 Bft) 100,00 %
23.07.2019 07:06 18,9 C 25,0 C 18,3 C 82 % 1020,8 hPa 0,0 l/m 3,3 km/h (1 Bft) S-SW 208 2 min 0,000 mm 0,0 UV-I 187 W/m 15,8 C 18,9 C 4,8 km/h (1 Bft) 100,00 %
23.07.2019 07:08 19,0 C 25,0 C 18,3 C 82 % 1020,8 hPa 0,0 l/m 3,7 km/h (1 Bft) S-SW 207 2 min 0,000 mm 0,0 UV-I 193 W/m 15,9 C 19,0 C 6,4 km/h (2 Bft) 100,00 %
23.07.2019 07:10 19,1 C 25,0 C 18,9 C 82 % 1020,7 hPa 0,0 l/m 3,9 km/h (1 Bft) S-SW 211 2 min 0,000 mm 0,0 UV-I 198 W/m 16,0 C 19,1 C 6,4 km/h (2 Bft) 97,56 %
23.07.2019 07:12 19,2 C 25,0 C 18,9 C 82 % 1020,7 hPa 0,0 l/m 3,0 km/h (1 Bft) S 181 2 min 0,000 mm 0,0 UV-I 203 W/m 16,0 C 19,2 C 8,0 km/h (2 Bft) 98,00 %
23.07.2019 07:14 19,3 C 25,0 C 18,9 C 81 % 1020,7 hPa 0,0 l/m 4,0 km/h (1 Bft) S-SW 192 2 min 0,000 mm 0,0 UV-I 209 W/m 16,0 C 19,3 C 6,4 km/h (2 Bft) 98,11 %
23.07.2019 07:16 19,4 C 25,0 C 18,9 C 81 % 1020,7 hPa 0,0 l/m 4,3 km/h (1 Bft) S-SW 196 2 min 0,000 mm 0,0 UV-I 213 W/m 16,1 C 19,4 C 6,4 km/h (2 Bft) 97,87 %
23.07.2019 07:18 19,5 C 25,0 C 18,9 C 81 % 1020,7 hPa 0,0 l/m 4,9 km/h (1 Bft) S-SW 213 2 min 0,000 mm 0,0 UV-I 217 W/m 16,1 C 19,5 C 8,0 km/h (2 Bft) 94,29 %
23.07.2019 07:20 19,6 C 25,0 C 18,9 C 80 % 1020,7 hPa 0,0 l/m 6,2 km/h (2 Bft) SW 214 2 min 0,000 mm 0,2 UV-I 221 W/m 16,1 C 19,6 C 9,7 km/h (2 Bft) 96,43 %
23.07.2019 07:22 19,6 C 25,0 C 18,9 C 81 % 1020,7 hPa 0,0 l/m 7,1 km/h (2 Bft) S-SW 211 2 min 0,000 mm 0,5 UV-I 226 W/m 16,2 C 19,3 C 9,7 km/h (2 Bft) 94,00 %
23.07.2019 07:24 19,7 C 25,0 C 19,4 C 81 % 1020,7 hPa 0,0 l/m 5,2 km/h (1 Bft) S-SW 197 2 min 0,000 mm 0,5 UV-I 233 W/m 16,3 C 19,7 C 8,0 km/h (2 Bft) 95,74 %
23.07.2019 07:26 19,8 C 25,0 C 19,4 C 81 % 1020,7 hPa 0,0 l/m 2,8 km/h (1 Bft) S-SW 199 2 min 0,000 mm 0,5 UV-I 236 W/m 16,4 C 19,8 C 6,4 km/h (2 Bft) 94,74 %
23.07.2019 07:28 19,9 C 25,0 C 19,4 C 81 % 1020,6 hPa 0,0 l/m 4,4 km/h (1 Bft) S-SW 195 2 min 0,000 mm 0,5 UV-I 241 W/m 16,5 C 19,9 C 6,4 km/h (2 Bft) 94,34 %
23.07.2019 07:30 19,9 C 25,0 C 19,4 C 80 % 1020,7 hPa 0,0 l/m 4,0 km/h (1 Bft) S-SW 200 2 min 0,000 mm 0,5 UV-I 248 W/m 16,3 C 19,9 C 6,4 km/h (2 Bft) 96,00 %
23.07.2019 07:32 19,9 C 25,0 C 19,4 C 80 % 1020,6 hPa 0,0 l/m 4,1 km/h (1 Bft) S-SW 209 2 min 0,000 mm 0,6 UV-I 253 W/m 16,3 C 19,9 C 6,4 km/h (2 Bft) 95,12 %
23.07.2019 07:34 20,1 C 25,0 C 20,0 C 81 % 1020,6 hPa 0,0 l/m 5,1 km/h (1 Bft) S-SW 211 2 min 0,000 mm 0,6 UV-I 260 W/m 16,7 C 20,1 C 6,4 km/h (2 Bft) 96,00 %
23.07.2019 07:36 20,3 C 25,0 C 20,0 C 80 % 1020,6 hPa 0,0 l/m 5,3 km/h (1 Bft) S-SW 213 2 min 0,000 mm 0,6 UV-I 266 W/m 16,7 C 20,3 C 6,4 km/h (2 Bft) 91,67 %
23.07.2019 07:38 20,4 C 25,0 C 20,0 C 80 % 1020,6 hPa 0,0 l/m 4,9 km/h (1 Bft) S-SW 208 2 min 0,000 mm 0,6 UV-I 274 W/m 16,8 C 20,4 C 6,4 km/h (2 Bft) 96,77 %
23.07.2019 07:40 20,6 C 25,0 C 20,0 C 78 % 1020,6 hPa 0,0 l/m 4,7 km/h (1 Bft) SW 219 2 min 0,000 mm 0,7 UV-I 277 W/m 16,6 C 20,6 C 8,0 km/h (2 Bft) 96,15 %
23.07.2019 07:42 20,6 C 25,0 C 20,0 C 78 % 1020,6 hPa 0,0 l/m 5,1 km/h (1 Bft) SW 235 2 min 0,000 mm 0,7 UV-I 284 W/m 16,6 C 20,6 C 9,7 km/h (2 Bft) 95,74 %
23.07.2019 07:44 20,7 C 25,0 C 20,0 C 78 % 1020,6 hPa 0,0 l/m 3,5 km/h (1 Bft) S-SW 211 2 min 0,000 mm 0,7 UV-I 290 W/m 16,7 C 20,7 C 6,4 km/h (2 Bft) 98,00 %
23.07.2019 07:46 20,8 C 25,0 C 20,6 C 78 % 1020,6 hPa 0,0 l/m 4,5 km/h (1 Bft) S-SW 213 2 min 0,000 mm 0,7 UV-I 299 W/m 16,8 C 20,8 C 6,4 km/h (2 Bft) 97,37 %
23.07.2019 07:48 20,8 C 25,0 C 20,6 C 78 % 1020,6 hPa 0,0 l/m 4,3 km/h (1 Bft) SW 217 2 min 0,000 mm 0,7 UV-I 281 W/m 16,8 C 20,8 C 6,4 km/h (2 Bft) 100,00 %
23.07.2019 07:50 20,9 C 25,0 C 20,6 C 78 % 1020,6 hPa 0,0 l/m 3,9 km/h (1 Bft) S-SW 209 2 min 0,000 mm 0,8 UV-I 295 W/m 16,9 C 20,9 C 6,4 km/h (2 Bft) 100,00 %
23.07.2019 07:52 21,1 C 25,0 C 20,6 C 78 % 1020,6 hPa 0,0 l/m 2,8 km/h (1 Bft) S-SW 209 2 min 0,000 mm 0,8 UV-I 316 W/m 17,1 C 21,1 C 6,4 km/h (2 Bft) 98,00 %
23.07.2019 07:54 21,1 C 25,0 C 20,6 C 78 % 1020,6 hPa 0,0 l/m 4,2 km/h (1 Bft) W-SW 240 2 min 0,000 mm 0,8 UV-I 331 W/m 17,1 C 21,1 C 6,4 km/h (2 Bft) 100,00 %
23.07.2019 07:56 21,1 C 25,0 C 20,6 C 77 % 1020,6 hPa 0,0 l/m 5,4 km/h (1 Bft) SW 230 2 min 0,000 mm 0,9 UV-I 338 W/m 16,9 C 21,1 C 8,0 km/h (2 Bft) 100,00 %
23.07.2019 07:58 21,2 C 25,0 C 20,6 C 77 % 1020,5 hPa 0,0 l/m 5,6 km/h (1 Bft) W-SW 254 2 min 0,000 mm 0,9 UV-I 347 W/m 17,0 C 21,2 C 9,7 km/h (2 Bft) 100,00 %
23.07.2019 08:00 21,3 C 25,0 C 21,1 C 76 % 1020,6 hPa 0,0 l/m 6,6 km/h (2 Bft) W-SW 242 2 min 0,153 mm 0,9 UV-I 353 W/m 16,9 C 21,2 C 8,0 km/h (2 Bft) 100,00 %
23.07.2019 08:02 21,4 C 25,0 C 21,1 C 77 % 1020,6 hPa 0,0 l/m 5,5 km/h (1 Bft) SW 226 2 min 0,000 mm 1,0 UV-I 365 W/m 17,2 C 21,4 C 8,0 km/h (2 Bft) 100,00 %
23.07.2019 08:04 21,5 C 25,0 C 21,1 C 76 % 1020,6 hPa 0,0 l/m 6,4 km/h (2 Bft) W-SW 238 2 min 0,000 mm 1,0 UV-I 373 W/m 17,1 C 21,5 C 8,0 km/h (2 Bft) 100,00 %
23.07.2019 08:06 21,6 C 25,0 C 21,1 C 76 % 1020,6 hPa 0,0 l/m 5,8 km/h (2 Bft) W-SW 239 2 min 0,000 mm 1,0 UV-I 381 W/m 17,2 C 21,6 C 9,7 km/h (2 Bft) 100,00 %
23.07.2019 08:08 21,7 C 25,0 C 21,7 C 76 % 1020,7 hPa 0,0 l/m 5,4 km/h (1 Bft) SW 225 2 min 0,000 mm 1,1 UV-I 386 W/m 17,3 C 21,7 C 8,0 km/h (2 Bft) 100,00 %
23.07.2019 08:10 21,8 C 25,0 C 21,7 C 76 % 1020,6 hPa 0,0 l/m 5,4 km/h (1 Bft) W-SW 241 2 min 0,000 mm 1,1 UV-I 389 W/m 17,4 C 21,8 C 8,0 km/h (2 Bft) 100,00 %
23.07.2019 08:12 21,8 C 25,0 C 21,7 C 74 % 1020,7 hPa 0,0 l/m 5,6 km/h (1 Bft) W-SW 243 2 min 0,000 mm 1,1 UV-I 393 W/m 17,0 C 21,8 C 8,0 km/h (2 Bft) 100,00 %
23.07.2019 08:14 21,7 C 25,0 C 21,7 C 74 % 1020,7 hPa 0,0 l/m 6,6 km/h (2 Bft) W-SW 239 2 min 0,000 mm 1,2 UV-I 396 W/m 16,9 C 21,6 C 8,0 km/h (2 Bft) 100,00 %
23.07.2019 08:16 21,8 C 25,0 C 21,7 C 75 % 1020,7 hPa 0,0 l/m 5,8 km/h (2 Bft) SW 230 2 min 0,000 mm 1,2 UV-I 398 W/m 17,2 C 21,8 C 8,0 km/h (2 Bft) 98,00 %
23.07.2019 08:18 21,8 C 25,0 C 21,7 C 74 % 1020,7 hPa 0,0 l/m 4,4 km/h (1 Bft) SW 224 2 min 0,000 mm 1,2 UV-I 399 W/m 17,0 C 21,8 C 6,4 km/h (2 Bft) 95,74 %
23.07.2019 08:20 21,9 C 25,0 C 21,7 C 75 % 1020,7 hPa 0,0 l/m 6,1 km/h (2 Bft) S-SW 205 2 min 0,000 mm 1,2 UV-I 401 W/m 17,3 C 21,9 C 8,0 km/h (2 Bft) 96,23 %
23.07.2019 08:22 22,1 C 25,0 C 21,7 C 74 % 1020,7 hPa 0,0 l/m 4,9 km/h (1 Bft) S-SW 200 2 min 0,000 mm 1,3 UV-I 405 W/m 17,2 C 22,1 C 8,0 km/h (2 Bft) 93,62 %
23.07.2019 08:24 22,2 C 25,0 C 21,7 C 75 % 1020,7 hPa 0,0 l/m 6,4 km/h (2 Bft) SW 220 2 min 0,000 mm 1,3 UV-I 410 W/m 17,5 C 22,2 C 9,7 km/h (2 Bft) 97,92 %
23.07.2019 08:26 22,2 C 25,0 C 21,7 C 74 % 1020,7 hPa 0,0 l/m 5,8 km/h (2 Bft) SW 219 2 min 0,000 mm 1,3 UV-I 413 W/m 17,3 C 22,2 C 8,0 km/h (2 Bft) 97,56 %
23.07.2019 08:28 22,2 C 25,0 C 21,7 C 73 % 1020,8 hPa 0,0 l/m 3,5 km/h (1 Bft) SW 223 2 min 0,000 mm 1,4 UV-I 417 W/m 17,1 C 22,2 C 4,8 km/h (1 Bft) 97,87 %
23.07.2019 08:30 22,4 C 25,0 C 21,7 C 75 % 1020,8 hPa 0,0 l/m 2,1 km/h (1 Bft) SW 224 2 min 0,000 mm 1,4 UV-I 422 W/m 17,7 C 22,4 C 4,8 km/h (1 Bft) 98,00 %
23.07.2019 08:32 22,5 C 25,0 C 22,2 C 74 % 1020,7 hPa 0,0 l/m 2,4 km/h (1 Bft) SW 223 2 min 0,000 mm 1,4 UV-I 428 W/m 17,6 C 22,5 C 3,2 km/h (1 Bft) 98,00 %
23.07.2019 08:34 22,6 C 25,0 C 22,2 C 73 % 1020,7 hPa 0,0 l/m 3,4 km/h (1 Bft) S-SW 213 2 min 0,000 mm 1,5 UV-I 433 W/m 17,5 C 22,6 C 6,4 km/h (2 Bft) 97,37 %
23.07.2019 08:36 22,6 C 25,0 C 22,2 C 73 % 1020,7 hPa 0,0 l/m 3,0 km/h (1 Bft) SW 219 2 min 0,000 mm 1,5 UV-I 441 W/m 17,5 C 22,6 C 4,8 km/h (1 Bft) 96,00 %
23.07.2019 08:38 22,7 C 25,0 C 22,2 C 72 % 1020,7 hPa 0,0 l/m 3,8 km/h (1 Bft) W-SW 240 2 min 0,000 mm 1,6 UV-I 445 W/m 17,4 C 22,7 C 6,4 km/h (2 Bft) 98,00 %
23.07.2019 08:40 22,8 C 25,0 C 22,2 C 72 % 1020,7 hPa 0,0 l/m 3,5 km/h (1 Bft) W-SW 242 2 min 0,000 mm 1,6 UV-I 451 W/m 17,5 C 22,8 C 4,8 km/h (1 Bft) 97,87 %
23.07.2019 08:42 22,9 C 25,0 C 22,8 C 72 % 1020,7 hPa 0,0 l/m 1,7 km/h (1 Bft) W-SW 242 2 min 0,000 mm 1,6 UV-I 455 W/m 17,6 C 22,9 C 4,8 km/h (1 Bft) 95,74 %
23.07.2019 08:44 23,1 C 25,0 C 22,8 C 70 % 1020,6 hPa 0,0 l/m 4,6 km/h (1 Bft) W-SW 242 2 min 0,000 mm 1,7 UV-I 460 W/m 17,3 C 23,1 C 6,4 km/h (2 Bft) 97,87 %
23.07.2019 08:46 23,1 C 25,0 C 22,8 C 70 % 1020,6 hPa 0,0 l/m 2,8 km/h (1 Bft) W-SW 243 2 min 0,000 mm 1,7 UV-I 465 W/m 17,3 C 23,1 C 4,8 km/h (1 Bft) 97,56 %
23.07.2019 08:48 23,1 C 25,0 C 23,3 C 69 % 1020,7 hPa 0,0 l/m 4,5 km/h (1 Bft) W-SW 245 2 min 0,000 mm 1,8 UV-I 470 W/m 17,1 C 23,1 C 6,4 km/h (2 Bft) 98,00 %
23.07.2019 08:50 22,9 C 25,0 C 23,3 C 67 % 1020,6 hPa 0,0 l/m 4,6 km/h (1 Bft) W 281 2 min 0,000 mm 1,8 UV-I 475 W/m 16,4 C 22,9 C 6,4 km/h (2 Bft) 95,83 %
23.07.2019 08:52 23,1 C 25,0 C 23,3 C 70 % 1020,7 hPa 0,0 l/m 3,4 km/h (1 Bft) W 279 2 min 0,000 mm 1,8 UV-I 481 W/m 17,3 C 23,1 C 6,4 km/h (2 Bft) 98,51 %
23.07.2019 08:54 23,2 C 25,0 C 23,9 C 68 % 1020,7 hPa 0,0 l/m 2,5 km/h (1 Bft) W 278 2 min 0,000 mm 1,9 UV-I 486 W/m 17,0 C 23,2 C 4,8 km/h (1 Bft) 95,74 %
23.07.2019 08:56 23,4 C 25,0 C 24,4 C 68 % 1020,7 hPa 0,0 l/m 3,1 km/h (1 Bft) W 277 2 min 0,000 mm 1,9 UV-I 492 W/m 17,1 C 23,4 C 4,8 km/h (1 Bft) 94,34 %
23.07.2019 08:58 23,4 C 25,0 C 25,0 C 67 % 1020,8 hPa 0,0 l/m 1,0 km/h (0 Bft) W 277 2 min 0,000 mm 2,0 UV-I 496 W/m 16,9 C 23,4 C 4,8 km/h (1 Bft) 95,24 %
23.07.2019 09:00 23,4 C 25,0 C 26,1 C 65 % 1020,7 hPa 0,0 l/m 2,6 km/h (1 Bft) W 277 2 min 0,279 mm 2,0 UV-I 500 W/m 16,4 C 23,4 C 3,2 km/h (1 Bft) 92,31 %
23.07.2019 09:02 23,5 C 25,0 C 26,7 C 65 % 1020,7 hPa 0,0 l/m 0,8 km/h (0 Bft) W 277 2 min 0,000 mm 2,1 UV-I 506 W/m 16,5 C 23,5 C 1,6 km/h (1 Bft) 94,44 %
23.07.2019 09:04 23,6 C 25,0 C 28,3 C 67 % 1020,7 hPa 0,0 l/m 0,8 km/h (0 Bft) W 279 2 min 0,000 mm 2,1 UV-I 513 W/m 17,1 C 23,6 C 1,6 km/h (1 Bft) 91,49 %
23.07.2019 09:06 23,9 C 25,0 C 30,6 C 65 % 1020,6 hPa 0,0 l/m 2,6 km/h (1 Bft) O-SO 107 2 min 0,000 mm 2,2 UV-I 520 W/m 16,9 C 23,9 C 4,8 km/h (1 Bft) 94,34 %
23.07.2019 09:08 24,1 C 25,0 C 31,1 C 63 % 1020,6 hPa 0,0 l/m 7,7 km/h (2 Bft) O-SO 109 2 min 0,000 mm 2,2 UV-I 525 W/m 16,6 C 23,7 C 11,3 km/h (2 Bft) 92,00 %
23.07.2019 09:10 24,3 C 25,0 C 32,2 C 64 % 1020,6 hPa 0,0 l/m 5,0 km/h (1 Bft) S-SO 165 2 min 0,000 mm 2,2 UV-I 531 W/m 17,0 C 24,3 C 12,9 km/h (3 Bft) 92,11 %
23.07.2019 09:12 24,2 C 25,0 C 33,3 C 59 % 1020,6 hPa 0,0 l/m 3,2 km/h (1 Bft) S-SO 167 2 min 0,000 mm 2,3 UV-I 535 W/m 15,7 C 24,2 C 6,4 km/h (2 Bft) 92,68 %
23.07.2019 09:14 24,3 C 25,0 C 33,9 C 60 % 1020,6 hPa 0,0 l/m 4,4 km/h (1 Bft) SO 139 2 min 0,000 mm 2,3 UV-I 540 W/m 16,0 C 24,3 C 8,0 km/h (2 Bft) 96,30 %
23.07.2019 09:16 24,3 C 25,0 C 35,0 C 58 % 1020,6 hPa 0,0 l/m 4,9 km/h (1 Bft) SO 140 2 min 0,000 mm 2,3 UV-I 544 W/m 15,5 C 24,3 C 8,0 km/h (2 Bft) 92,45 %
23.07.2019 09:18 24,3 C 25,0 C 35,6 C 57 % 1020,6 hPa 0,0 l/m 2,7 km/h (1 Bft) SO 145 2 min 0,000 mm 2,4 UV-I 550 W/m 15,2 C 24,3 C 6,4 km/h (2 Bft) 95,12 %
23.07.2019 09:20 24,3 C 25,0 C 36,1 C 57 % 1020,7 hPa 0,0 l/m 5,2 km/h (1 Bft) SO 134 2 min 0,000 mm 2,5 UV-I 553 W/m 15,2 C 24,3 C 11,3 km/h (2 Bft) 96,00 %
23.07.2019 09:22 24,4 C 25,0 C 36,1 C 58 % 1020,7 hPa 0,0 l/m 7,0 km/h (2 Bft) S-SO 159 2 min 0,000 mm 2,5 UV-I 560 W/m 15,6 C 24,2 C 8,0 km/h (2 Bft) 94,00 %
23.07.2019 09:24 24,4 C 25,0 C 36,7 C 55 % 1020,6 hPa 0,0 l/m 3,9 km/h (1 Bft) SO 126 2 min 0,000 mm 2,6 UV-I 565 W/m 14,8 C 24,4 C 6,4 km/h (2 Bft) 95,12 %
23.07.2019 09:26 24,5 C 25,0 C 37,2 C 59 % 1020,6 hPa 0,0 l/m 6,4 km/h (2 Bft) O 88 2 min 0,000 mm 2,6 UV-I 569 W/m 15,9 C 24,5 C 8,0 km/h (2 Bft) 92,45 %
23.07.2019 09:28 24,6 C 25,0 C 37,2 C 58 % 1020,7 hPa 0,0 l/m 3,4 km/h (1 Bft) O 90 2 min 0,000 mm 2,6 UV-I 574 W/m 15,8 C 24,6 C 6,4 km/h (2 Bft) 95,12 %
23.07.2019 09:30 24,8 C 25,0 C 37,8 C 58 % 1020,6 hPa 0,0 l/m 6,0 km/h (2 Bft) NO 35 2 min 0,000 mm 2,7 UV-I 579 W/m 16,0 C 24,8 C 8,0 km/h (2 Bft) 96,00 %
23.07.2019 09:32 24,9 C 25,0 C 37,8 C 57 % 1020,7 hPa 0,0 l/m 2,2 km/h (1 Bft) NO 38 2 min 0,000 mm 2,7 UV-I 584 W/m 15,8 C 24,9 C 4,8 km/h (1 Bft) 95,45 %
23.07.2019 09:34 24,9 C 25,0 C 38,3 C 58 % 1020,7 hPa 0,0 l/m 2,9 km/h (1 Bft) O 95 2 min 0,000 mm 2,8 UV-I 589 W/m 16,1 C 24,9 C 9,7 km/h (2 Bft) 92,86 %
23.07.2019 09:36 25,0 C 25,0 C 37,8 C 54 % 1020,7 hPa 0,0 l/m 9,0 km/h (2 Bft) O-SO 117 2 min 0,000 mm 2,9 UV-I 594 W/m 15,0 C 24,4 C 16,1 km/h (3 Bft) 98,08 %
23.07.2019 09:38 25,0 C 25,0 C 37,2 C 52 % 1020,6 hPa 0,0 l/m 8,5 km/h (2 Bft) O-SO 123 2 min 0,000 mm 2,9 UV-I 599 W/m 14,4 C 24,5 C 12,9 km/h (3 Bft) 97,62 %
23.07.2019 09:40 25,2 C 25,0 C 37,8 C 53 % 1020,7 hPa 0,0 l/m 7,8 km/h (2 Bft) O 101 2 min 0,000 mm 2,9 UV-I 606 W/m 14,9 C 24,9 C 14,5 km/h (3 Bft) 98,00 %
23.07.2019 09:42 25,3 C 25,0 C 37,8 C 51 % 1020,7 hPa 0,0 l/m 7,6 km/h (2 Bft) O 96 2 min 0,000 mm 3,0 UV-I 612 W/m 14,4 C 25,0 C 12,9 km/h (3 Bft) 98,00 %
23.07.2019 09:44 25,2 C 25,0 C 37,8 C 50 % 1020,7 hPa 0,0 l/m 5,6 km/h (1 Bft) O-SO 122 2 min 0,000 mm 3,1 UV-I 622 W/m 14,0 C 25,2 C 12,9 km/h (3 Bft) 97,56 %
23.07.2019 09:46 25,2 C 25,0 C 37,8 C 50 % 1020,6 hPa 0,0 l/m 9,5 km/h (2 Bft) O-SO 109 2 min 0,000 mm 3,1 UV-I 629 W/m 14,0 C 24,5 C 12,9 km/h (3 Bft) 96,23 %
23.07.2019 09:48 25,1 C 25,0 C 37,2 C 51 % 1020,7 hPa 0,0 l/m 9,1 km/h (2 Bft) O 90 2 min 0,000 mm 3,1 UV-I 637 W/m 14,2 C 24,5 C 12,9 km/h (3 Bft) 100,00 %
23.07.2019 09:50 24,9 C 25,0 C 36,7 C 50 % 1020,7 hPa 0,0 l/m 5,8 km/h (2 Bft) O 98 2 min 0,000 mm 3,0 UV-I 566 W/m 13,7 C 24,9 C 9,7 km/h (2 Bft) 100,00 %
23.07.2019 09:52 24,8 C 25,0 C 36,1 C 51 % 1020,6 hPa 0,0 l/m 6,5 km/h (2 Bft) O 90 2 min 0,000 mm 3,0 UV-I 548 W/m 14,0 C 24,8 C 11,3 km/h (2 Bft) 100,00 %
23.07.2019 09:54 24,9 C 25,0 C 35,6 C 51 % 1020,7 hPa 0,0 l/m 10,4 km/h (2 Bft) O-SO 106 2 min 0,000 mm 3,0 UV-I 482 W/m 14,1 C 24,0 C 12,9 km/h (3 Bft) 100,00 %
23.07.2019 09:56 24,9 C 25,0 C 35,0 C 51 % 1020,6 hPa 0,0 l/m 8,5 km/h (2 Bft) O-SO 116 2 min 0,000 mm 2,9 UV-I 373 W/m 14,1 C 24,4 C 12,9 km/h (3 Bft) 100,00 %
23.07.2019 09:58 24,9 C 25,0 C 35,6 C 51 % 1020,6 hPa 0,0 l/m 6,9 km/h (2 Bft) O 86 2 min 0,000 mm 3,1 UV-I 600 W/m 14,1 C 24,8 C 12,9 km/h (3 Bft) 96,00 %
23.07.2019 10:00 25,1 C 25,0 C 36,1 C 52 % 1020,6 hPa 0,0 l/m 9,3 km/h (2 Bft) O 84 2 min 0,381 mm 3,4 UV-I 658 W/m 14,5 C 24,4 C 14,5 km/h (3 Bft) 100,00 %
23.07.2019 10:02 25,2 C 25,0 C 36,7 C 51 % 1020,7 hPa 0,0 l/m 8,3 km/h (2 Bft) O-NO 72 2 min 0,000 mm 3,5 UV-I 658 W/m 14,3 C 24,7 C 16,1 km/h (3 Bft) 100,00 %
23.07.2019 10:04 25,3 C 25,0 C 36,7 C 51 % 1020,6 hPa 0,0 l/m 10,9 km/h (2 Bft) O-NO 78 2 min 0,000 mm 3,5 UV-I 644 W/m 14,4 C 24,3 C 14,5 km/h (3 Bft) 100,00 %
23.07.2019 10:06 25,3 C 25,0 C 36,1 C 49 % 1020,6 hPa 0,0 l/m 9,9 km/h (2 Bft) O-SO 121 2 min 0,000 mm 3,5 UV-I 595 W/m 13,8 C 24,5 C 12,9 km/h (3 Bft) 100,00 %
23.07.2019 10:08 25,3 C 25,0 C 36,1 C 49 % 1020,6 hPa 0,0 l/m 12,3 km/h (3 Bft) O-NO 73 2 min 0,000 mm 3,6 UV-I 663 W/m 13,8 C 24,1 C 19,3 km/h (3 Bft) 97,22 %
23.07.2019 10:10 25,2 C 25,0 C 36,1 C 49 % 1020,6 hPa 0,0 l/m 8,0 km/h (2 Bft) O-NO 67 2 min 0,000 mm 3,3 UV-I 674 W/m 13,7 C 24,8 C 12,9 km/h (3 Bft) 100,00 %
23.07.2019 10:12 25,2 C 25,0 C 36,1 C 51 % 1020,6 hPa 0,0 l/m 10,3 km/h (2 Bft) O 79 2 min 0,000 mm 3,5 UV-I 677 W/m 14,3 C 24,3 C 14,5 km/h (3 Bft) 100,00 %
23.07.2019 10:14 25,2 C 25,0 C 36,1 C 50 % 1020,6 hPa 0,0 l/m 8,2 km/h (2 Bft) O-NO 74 2 min 0,000 mm 3,8 UV-I 680 W/m 14,0 C 24,8 C 14,5 km/h (3 Bft) 100,00 %
23.07.2019 10:16 25,4 C 25,0 C 36,7 C 53 % 1020,6 hPa 0,0 l/m 10,5 km/h (2 Bft) O 97 2 min 0,000 mm 3,6 UV-I 684 W/m 15,1 C 24,5 C 16,1 km/h (3 Bft) 100,00 %
23.07.2019 10:18 25,4 C 25,0 C 37,2 C 49 % 1020,5 hPa 0,0 l/m 5,9 km/h (2 Bft) O-SO 110 2 min 0,000 mm 3,9 UV-I 688 W/m 13,9 C 25,4 C 11,3 km/h (2 Bft) 100,00 %
23.07.2019 10:20 25,5 C 25,0 C 37,2 C 51 % 1020,5 hPa 0,0 l/m 12,3 km/h (3 Bft) O 98 2 min 0,000 mm 3,0 UV-I 692 W/m 14,6 C 24,3 C 17,7 km/h (3 Bft) 95,74 %
23.07.2019 10:22 25,4 C 25,0 C 36,7 C 50 % 1020,5 hPa 0,0 l/m 11,5 km/h (2 Bft) O 97 2 min 0,000 mm 3,4 UV-I 696 W/m 14,2 C 24,3 C 16,1 km/h (3 Bft) 100,00 %
23.07.2019 10:24 25,5 C 25,0 C 37,2 C 52 % 1020,5 hPa 0,0 l/m 9,7 km/h (2 Bft) N-NO 30 2 min 0,000 mm 4,0 UV-I 699 W/m 14,9 C 24,8 C 16,1 km/h (3 Bft) 100,00 %
23.07.2019 10:26 25,7 C 25,0 C 37,2 C 53 % 1020,5 hPa 0,0 l/m 8,6 km/h (2 Bft) N-NO 31 2 min 0,000 mm 4,0 UV-I 702 W/m 15,4 C 25,2 C 11,3 km/h (2 Bft) 98,46 %
23.07.2019 10:28 25,8 C 25,0 C 37,2 C 49 % 1020,5 hPa 0,0 l/m 9,1 km/h (2 Bft) O-NO 62 2 min 0,000 mm 4,1 UV-I 707 W/m 14,3 C 25,2 C 14,5 km/h (3 Bft) 100,00 %
23.07.2019 10:30 26,0 C 25,0 C 37,2 C 52 % 1020,5 hPa 0,0 l/m 10,7 km/h (2 Bft) O-NO 65 2 min 0,000 mm 4,2 UV-I 710 W/m 15,4 C 25,1 C 14,5 km/h (3 Bft) 98,11 %
23.07.2019 10:32 26,1 C 25,0 C 36,7 C 50 % 1020,4 hPa 0,0 l/m 10,5 km/h (2 Bft) N-NO 26 2 min 0,000 mm 4,2 UV-I 713 W/m 14,8 C 25,3 C 14,5 km/h (3 Bft) 97,56 %
23.07.2019 10:34 26,2 C 25,0 C 36,1 C 49 % 1020,5 hPa 0,0 l/m 9,2 km/h (2 Bft) NO 43 2 min 0,000 mm 4,3 UV-I 718 W/m 14,6 C 25,6 C 12,9 km/h (3 Bft) 97,56 %
23.07.2019 10:36 26,3 C 25,0 C 37,2 C 51 % 1020,5 hPa 0,0 l/m 6,8 km/h (2 Bft) O-NO 59 2 min 0,000 mm 4,3 UV-I 721 W/m 15,3 C 26,2 C 9,7 km/h (2 Bft) 98,00 %
23.07.2019 10:38 26,2 C 25,0 C 37,8 C 49 % 1020,4 hPa 0,0 l/m 8,0 km/h (2 Bft) O 96 2 min 0,000 mm 4,3 UV-I 725 W/m 14,6 C 25,9 C 12,9 km/h (3 Bft) 94,64 %
23.07.2019 10:40 26,1 C 25,0 C 38,3 C 49 % 1020,4 hPa 0,0 l/m 6,6 km/h (2 Bft) O-NO 69 2 min 0,000 mm 4,4 UV-I 728 W/m 14,5 C 26,1 C 11,3 km/h (2 Bft) 100,00 %
23.07.2019 10:42 26,1 C 25,0 C 38,9 C 51 % 1020,4 hPa 0,0 l/m 7,3 km/h (2 Bft) N-NO 25 2 min 0,000 mm 4,5 UV-I 733 W/m 15,2 C 25,9 C 11,3 km/h (2 Bft) 96,23 %
23.07.2019 10:44 26,3 C 25,0 C 38,9 C 52 % 1020,4 hPa 0,0 l/m 9,7 km/h (2 Bft) O-SO 112 2 min 0,000 mm 4,5 UV-I 736 W/m 15,6 C 25,7 C 14,5 km/h (3 Bft) 95,74 %
23.07.2019 10:46 26,4 C 25,0 C 38,3 C 47 % 1020,4 hPa 0,0 l/m 8,7 km/h (2 Bft) O-NO 70 2 min 0,000 mm 4,5 UV-I 740 W/m 14,2 C 25,9 C 16,1 km/h (3 Bft) 100,00 %
23.07.2019 10:48 26,3 C 25,0 C 38,9 C 48 % 1020,3 hPa 0,0 l/m 4,5 km/h (1 Bft) O-SO 102 2 min 0,000 mm 4,6 UV-I 743 W/m 14,4 C 26,3 C 6,4 km/h (2 Bft) 97,14 %
23.07.2019 10:50 26,2 C 25,0 C 39,4 C 49 % 1020,3 hPa 0,0 l/m 4,8 km/h (1 Bft) O 90 2 min 0,000 mm 4,6 UV-I 744 W/m 14,6 C 26,2 C 12,9 km/h (3 Bft) 97,37 %
23.07.2019 10:52 26,2 C 25,0 C 38,9 C 48 % 1020,3 hPa 0,0 l/m 7,1 km/h (2 Bft) NO 55 2 min 0,000 mm 4,7 UV-I 748 W/m 14,3 C 26,1 C 9,7 km/h (2 Bft) 96,81 %
23.07.2019 10:54 26,3 C 25,0 C 39,4 C 49 % 1020,3 hPa 0,0 l/m 6,1 km/h (2 Bft) O 92 2 min 0,000 mm 4,8 UV-I 753 W/m 14,7 C 26,3 C 11,3 km/h (2 Bft) 97,56 %
23.07.2019 10:56 26,5 C 25,0 C 39,4 C 47 % 1020,4 hPa 0,0 l/m 7,8 km/h (2 Bft) O-SO 110 2 min 0,000 mm 4,8 UV-I 757 W/m 14,3 C 26,2 C 12,9 km/h (3 Bft) 98,11 %
23.07.2019 10:58 26,4 C 25,0 C 39,4 C 47 % 1020,4 hPa 0,0 l/m 4,1 km/h (1 Bft) O-SO 111 2 min 0,000 mm 4,9 UV-I 760 W/m 14,2 C 26,4 C 6,4 km/h (2 Bft) 95,12 %
23.07.2019 11:00 26,3 C 25,0 C 40,0 C 48 % 1020,4 hPa 0,0 l/m 8,4 km/h (2 Bft) O-NO 74 2 min 0,508 mm 4,9 UV-I 765 W/m 14,4 C 25,9 C 16,1 km/h (3 Bft) 98,00 %
23.07.2019 11:02 26,4 C 25,0 C 40,0 C 50 % 1020,3 hPa 0,0 l/m 9,2 km/h (2 Bft) O-NO 74 2 min 0,000 mm 4,9 UV-I 768 W/m 15,1 C 25,8 C 14,5 km/h (3 Bft) 98,00 %
23.07.2019 11:04 26,4 C 25,0 C 39,4 C 49 % 1020,4 hPa 0,0 l/m 4,2 km/h (1 Bft) O 81 2 min 0,000 mm 5,0 UV-I 770 W/m 14,8 C 26,4 C 6,4 km/h (2 Bft) 95,74 %
23.07.2019 11:06 26,4 C 25,0 C 40,0 C 49 % 1020,4 hPa 0,0 l/m 2,3 km/h (1 Bft) O 81 2 min 0,000 mm 5,0 UV-I 772 W/m 14,8 C 26,4 C 4,8 km/h (1 Bft) 97,92 %
23.07.2019 11:08 26,4 C 25,0 C 40,6 C 46 % 1020,3 hPa 0,0 l/m 1,1 km/h (1 Bft) O 81 2 min 0,000 mm 5,1 UV-I 774 W/m 13,8 C 26,4 C 3,2 km/h (1 Bft) 96,88 %
23.07.2019 11:10 26,5 C 25,0 C 40,6 C 49 % 1020,3 hPa 0,0 l/m 6,4 km/h (2 Bft) O-SO 123 2 min 0,000 mm 5,1 UV-I 778 W/m 14,9 C 26,5 C 12,9 km/h (3 Bft) 96,55 %
23.07.2019 11:12 26,6 C 25,0 C 40,6 C 48 % 1020,3 hPa 0,0 l/m 10,4 km/h (2 Bft) O-SO 115 2 min 0,000 mm 5,2 UV-I 780 W/m 14,7 C 25,9 C 17,7 km/h (3 Bft) 97,56 %
23.07.2019 11:14 26,7 C 25,0 C 41,1 C 47 % 1020,4 hPa 0,0 l/m 6,5 km/h (2 Bft) O 98 2 min 0,000 mm 5,2 UV-I 787 W/m 14,4 C 26,7 C 9,7 km/h (2 Bft) 98,11 %
23.07.2019 11:16 26,7 C 25,0 C 41,7 C 46 % 1020,3 hPa 0,0 l/m 4,0 km/h (1 Bft) S-SO 149 2 min 0,000 mm 5,3 UV-I 789 W/m 14,1 C 26,7 C 8,0 km/h (2 Bft) 97,87 %
23.07.2019 11:18 26,7 C 25,0 C 41,1 C 47 % 1020,3 hPa 0,0 l/m 4,8 km/h (1 Bft) N 355 2 min 0,000 mm 5,3 UV-I 789 W/m 14,4 C 26,7 C 12,9 km/h (3 Bft) 98,00 %
23.07.2019 11:20 26,7 C 25,6 C 41,1 C 47 % 1020,3 hPa 0,0 l/m 4,4 km/h (1 Bft) O-NO 69 2 min 0,000 mm 5,3 UV-I 791 W/m 14,4 C 26,7 C 9,7 km/h (2 Bft) 97,87 %
23.07.2019 11:22 26,9 C 25,6 C 40,0 C 47 % 1020,2 hPa 0,0 l/m 8,4 km/h (2 Bft) N-NO 32 2 min 0,000 mm 5,4 UV-I 793 W/m 14,6 C 26,5 C 11,3 km/h (2 Bft) 97,56 %
23.07.2019 11:24 27,0 C 25,6 C 39,4 C 48 % 1020,2 hPa 0,0 l/m 6,6 km/h (2 Bft) O-NO 68 2 min 0,000 mm 5,4 UV-I 795 W/m 15,0 C 27,0 C 9,7 km/h (2 Bft) 97,73 %
23.07.2019 11:26 27,1 C 25,6 C 39,4 C 48 % 1020,3 hPa 0,0 l/m 7,3 km/h (2 Bft) O 86 2 min 0,000 mm 5,5 UV-I 798 W/m 15,1 C 26,9 C 12,9 km/h (3 Bft) 98,00 %
23.07.2019 11:28 27,1 C 25,6 C 40,0 C 48 % 1020,2 hPa 0,0 l/m 4,1 km/h (1 Bft) NO 44 2 min 0,000 mm 5,5 UV-I 801 W/m 15,1 C 27,1 C 6,4 km/h (2 Bft) 94,00 %
23.07.2019 11:30 27,1 C 25,6 C 40,0 C 46 % 1020,2 hPa 0,0 l/m 5,1 km/h (1 Bft) NO 44 2 min 0,000 mm 5,5 UV-I 804 W/m 14,5 C 27,1 C 8,0 km/h (2 Bft) 97,56 %
23.07.2019 11:32 27,1 C 25,6 C 40,0 C 45 % 1020,2 hPa 0,0 l/m 5,2 km/h (1 Bft) NO 39 2 min 0,000 mm 5,6 UV-I 808 W/m 14,1 C 27,1 C 8,0 km/h (2 Bft) 100,00 %
23.07.2019 11:34 27,0 C 25,6 C 40,0 C 44 % 1020,2 hPa 0,0 l/m 4,8 km/h (1 Bft) O-NO 78 2 min 0,000 mm 5,6 UV-I 811 W/m 13,7 C 27,0 C 8,0 km/h (2 Bft) 100,00 %
23.07.2019 11:36 26,9 C 25,6 C 40,0 C 44 % 1020,2 hPa 0,0 l/m 2,6 km/h (1 Bft) O-NO 67 2 min 0,000 mm 5,7 UV-I 813 W/m 13,6 C 26,9 C 6,4 km/h (2 Bft) 100,00 %
23.07.2019 11:38 26,8 C 25,6 C 41,1 C 49 % 1020,2 hPa 0,0 l/m 2,7 km/h (1 Bft) W-NW 289 2 min 0,000 mm 5,7 UV-I 816 W/m 15,2 C 26,8 C 4,8 km/h (1 Bft) 100,00 %
23.07.2019 11:40 26,8 C 25,6 C 41,7 C 47 % 1020,1 hPa 0,0 l/m 5,0 km/h (1 Bft) N 10 2 min 0,000 mm 5,8 UV-I 817 W/m 14,5 C 26,8 C 11,3 km/h (2 Bft) 100,00 %
23.07.2019 11:42 27,1 C 25,6 C 40,6 C 46 % 1020,2 hPa 0,0 l/m 7,9 km/h (2 Bft) NO 53 2 min 0,000 mm 5,8 UV-I 820 W/m 14,5 C 26,8 C 12,9 km/h (3 Bft) 100,00 %
23.07.2019 11:44 27,2 C 25,6 C 38,9 C 45 % 1020,1 hPa 0,0 l/m 7,5 km/h (2 Bft) N-NO 19 2 min 0,000 mm 5,8 UV-I 823 W/m 14,2 C 27,0 C 12,9 km/h (3 Bft) 100,00 %
23.07.2019 11:46 27,3 C 25,6 C 38,9 C 46 % 1020,1 hPa 0,0 l/m 5,9 km/h (2 Bft) N-NO 27 2 min 0,000 mm 5,9 UV-I 825 W/m 14,6 C 27,3 C 11,3 km/h (2 Bft) 100,00 %
23.07.2019 11:48 27,3 C 25,6 C 38,9 C 42 % 1020,1 hPa 0,0 l/m 4,9 km/h (1 Bft) W-NW 301 2 min 0,000 mm 5,9 UV-I 825 W/m 13,2 C 27,3 C 8,0 km/h (2 Bft) 100,00 %
23.07.2019 11:50 27,1 C 25,6 C 39,4 C 44 % 1020,0 hPa 0,0 l/m 0,8 km/h (0 Bft) W-NW 301 2 min 0,000 mm 5,9 UV-I 829 W/m 13,8 C 27,1 C 3,2 km/h (1 Bft) 100,00 %
23.07.2019 11:52 26,9 C 25,6 C 40,6 C 46 % 1020,0 hPa 0,0 l/m 4,0 km/h (1 Bft) W-NW 286 2 min 0,000 mm 5,9 UV-I 830 W/m 14,3 C 26,9 C 8,0 km/h (2 Bft) 96,55 %
23.07.2019 11:54 26,9 C 25,6 C 40,6 C 44 % 1020,0 hPa 0,0 l/m 6,7 km/h (2 Bft) W 267 2 min 0,000 mm 6,0 UV-I 831 W/m 13,6 C 26,8 C 9,7 km/h (2 Bft) 98,39 %
23.07.2019 11:56 26,9 C 25,6 C 41,1 C 47 % 1020,0 hPa 0,0 l/m 2,6 km/h (1 Bft) W 267 2 min 0,000 mm 6,0 UV-I 833 W/m 14,6 C 26,9 C 4,8 km/h (1 Bft) 100,00 %
23.07.2019 11:58 26,9 C 25,6 C 40,6 C 45 % 1020,0 hPa 0,0 l/m 6,1 km/h (2 Bft) W 279 2 min 0,000 mm 6,0 UV-I 834 W/m 13,9 C 26,9 C 11,3 km/h (2 Bft) 97,87 %
23.07.2019 12:00 27,0 C 25,6 C 40,6 C 44 % 1020,0 hPa 0,0 l/m 4,1 km/h (1 Bft) W 274 2 min 0,559 mm 6,0 UV-I 835 W/m 13,7 C 27,0 C 6,4 km/h (2 Bft) 98,33 %
23.07.2019 12:02 27,1 C 25,6 C 41,7 C 44 % 1020,0 hPa 0,0 l/m 4,2 km/h (1 Bft) W-SW 245 2 min 0,000 mm 6,1 UV-I 837 W/m 13,8 C 27,1 C 6,4 km/h (2 Bft) 100,00 %
23.07.2019 12:04 27,3 C 25,6 C 42,2 C 45 % 1020,0 hPa 0,0 l/m 3,4 km/h (1 Bft) W 271 2 min 0,000 mm 6,1 UV-I 840 W/m 14,3 C 27,3 C 4,8 km/h (1 Bft) 98,00 %
23.07.2019 12:06 27,4 C 25,6 C 42,8 C 47 % 1020,0 hPa 0,0 l/m 3,3 km/h (1 Bft) N 5 2 min 0,000 mm 6,1 UV-I 841 W/m 15,1 C 27,4 C 4,8 km/h (1 Bft) 100,00 %
23.07.2019 12:08 27,7 C 25,6 C 43,9 C 49 % 1020,0 hPa 0,0 l/m 2,9 km/h (1 Bft) N 5 2 min 0,000 mm 6,2 UV-I 844 W/m 16,0 C 27,7 C 4,8 km/h (1 Bft) 100,00 %
23.07.2019 12:10 27,8 C 25,6 C 43,9 C 45 % 1020,0 hPa 0,0 l/m 1,8 km/h (1 Bft) W 281 2 min 0,000 mm 5,5 UV-I 846 W/m 14,8 C 27,8 C 4,8 km/h (1 Bft) 97,87 %
23.07.2019 12:12 27,8 C 25,6 C 43,9 C 45 % 1020,0 hPa 0,0 l/m 3,0 km/h (1 Bft) S-SO 160 2 min 0,000 mm 6,3 UV-I 850 W/m 14,8 C 27,8 C 8,0 km/h (2 Bft) 97,37 %
23.07.2019 12:14 27,8 C 25,6 C 42,8 C 44 % 1020,0 hPa 0,0 l/m 5,3 km/h (1 Bft) SW 234 2 min 0,000 mm 6,3 UV-I 850 W/m 14,4 C 27,8 C 8,0 km/h (2 Bft) 98,21 %
23.07.2019 12:16 27,9 C 25,6 C 42,2 C 45 % 1019,9 hPa 0,0 l/m 4,3 km/h (1 Bft) NO 39 2 min 0,000 mm 6,3 UV-I 852 W/m 14,8 C 27,9 C 6,4 km/h (2 Bft) 97,22 %
23.07.2019 12:18 28,0 C 25,6 C 42,2 C 45 % 1019,9 hPa 0,0 l/m 2,5 km/h (1 Bft) W 265 2 min 0,000 mm 6,3 UV-I 849 W/m 14,9 C 28,0 C 6,4 km/h (2 Bft) 98,11 %
23.07.2019 12:20 27,9 C 25,6 C 41,1 C 44 % 1019,9 hPa 0,0 l/m 8,9 km/h (2 Bft) N-NO 29 2 min 0,000 mm 6,3 UV-I 852 W/m 14,5 C 27,5 C 12,9 km/h (3 Bft) 97,87 %
23.07.2019 12:22 27,9 C 25,6 C 40,6 C 45 % 1019,9 hPa 0,0 l/m 7,0 km/h (2 Bft) N-NW 346 2 min 0,000 mm 6,4 UV-I 853 W/m 14,8 C 27,8 C 12,9 km/h (3 Bft) 97,37 %
23.07.2019 12:24 27,9 C 25,6 C 40,6 C 43 % 1019,9 hPa 0,0 l/m 7,4 km/h (2 Bft) N-NO 25 2 min 0,000 mm 6,4 UV-I 854 W/m 14,1 C 27,7 C 11,3 km/h (2 Bft) 98,31 %
23.07.2019 12:26 27,8 C 25,6 C 41,1 C 43 % 1019,9 hPa 0,0 l/m 2,7 km/h (1 Bft) W-NW 301 2 min 0,000 mm 6,4 UV-I 854 W/m 14,1 C 27,8 C 6,4 km/h (2 Bft) 97,56 %
23.07.2019 12:29 28,0 C 25,6 C 41,7 C 44 % 1019,8 hPa 0,0 l/m 6,6 km/h (2 Bft) N 9 3 min 0,000 mm 6,5 UV-I 857 W/m 14,6 C 28,0 C 11,3 km/h (2 Bft) 95,89 %
23.07.2019 12:30 28,1 C 25,6 C 41,7 C 44 % 1019,9 hPa 0,0 l/m 6,3 km/h (2 Bft) N 360 1 min 0,000 mm 6,5 UV-I 859 W/m 14,7 C 28,1 C 8,0 km/h (2 Bft) 95,83 %
23.07.2019 12:32 27,9 C 25,6 C 41,7 C 42 % 1019,8 hPa 0,0 l/m 4,1 km/h (1 Bft) NW 320 2 min 0,000 mm 6,5 UV-I 859 W/m 13,8 C 27,9 C 6,4 km/h (2 Bft) 96,00 %
23.07.2019 12:34 27,8 C 25,6 C 41,7 C 43 % 1019,8 hPa 0,0 l/m 4,1 km/h (1 Bft) NO 47 2 min 0,000 mm 6,5 UV-I 860 W/m 14,1 C 27,8 C 6,4 km/h (2 Bft) 93,62 %
23.07.2019 12:36 27,8 C 25,6 C 41,1 C 42 % 1019,8 hPa 0,0 l/m 4,0 km/h (1 Bft) O-NO 70 2 min 0,000 mm 6,5 UV-I 860 W/m 13,7 C 27,8 C 6,4 km/h (2 Bft) 94,74 %
23.07.2019 12:38 27,7 C 25,6 C 41,1 C 46 % 1019,8 hPa 0,0 l/m 3,7 km/h (1 Bft) O-NO 65 2 min 0,000 mm 6,5 UV-I 863 W/m 15,0 C 27,7 C 6,4 km/h (2 Bft) 93,62 %
23.07.2019 12:40 27,8 C 25,6 C 42,2 C 43 % 1019,8 hPa 0,0 l/m 1,8 km/h (1 Bft) O 82 2 min 0,000 mm 5,5 UV-I 861 W/m 14,1 C 27,8 C 3,2 km/h (1 Bft) 98,11 %
23.07.2019 12:42 27,8 C 25,6 C 42,8 C 42 % 1019,8 hPa 0,0 l/m 4,5 km/h (1 Bft) S-SO 153 2 min 0,000 mm 6,2 UV-I 863 W/m 13,7 C 27,8 C 6,4 km/h (2 Bft) 97,87 %
23.07.2019 12:44 27,8 C 25,6 C 43,3 C 44 % 1019,8 hPa 0,0 l/m 3,3 km/h (1 Bft) S 169 2 min 0,000 mm 5,4 UV-I 865 W/m 14,4 C 27,8 C 6,4 km/h (2 Bft) 97,37 %
23.07.2019 12:46 27,8 C 25,6 C 43,9 C 44 % 1019,8 hPa 0,0 l/m 4,9 km/h (1 Bft) NW 313 2 min 0,000 mm 6,6 UV-I 866 W/m 14,4 C 27,8 C 9,7 km/h (2 Bft) 98,00 %
23.07.2019 12:48 28,1 C 25,6 C 42,8 C 42 % 1019,8 hPa 0,0 l/m 5,5 km/h (1 Bft) N-NW 340 2 min 0,000 mm 6,6 UV-I 867 W/m 14,0 C 28,1 C 8,0 km/h (2 Bft) 98,00 %
23.07.2019 12:50 28,2 C 25,6 C 42,8 C 42 % 1019,7 hPa 0,0 l/m 5,9 km/h (2 Bft) NW 326 2 min 0,000 mm 6,7 UV-I 866 W/m 14,0 C 28,2 C 9,7 km/h (2 Bft) 98,11 %
23.07.2019 12:52 28,3 C 25,6 C 42,2 C 42 % 1019,7 hPa 0,0 l/m 6,1 km/h (2 Bft) W-NW 295 2 min 0,000 mm 6,7 UV-I 866 W/m 14,1 C 28,3 C 11,3 km/h (2 Bft) 97,44 %
23.07.2019 12:54 28,3 C 25,6 C 42,2 C 42 % 1019,7 hPa 0,0 l/m 6,1 km/h (2 Bft) NW 317 2 min 0,000 mm 6,7 UV-I 865 W/m 14,1 C 28,3 C 9,7 km/h (2 Bft) 90,38 %
23.07.2019 12:56 28,3 C 26,1 C 42,2 C 41 % 1019,7 hPa 0,0 l/m 5,0 km/h (1 Bft) W 280 2 min 0,000 mm 6,7 UV-I 868 W/m 13,8 C 28,3 C 9,7 km/h (2 Bft) 97,87 %
23.07.2019 12:58 28,3 C 26,1 C 42,2 C 43 % 1019,7 hPa 0,0 l/m 6,3 km/h (2 Bft) N 355 2 min 0,000 mm 6,7 UV-I 870 W/m 14,5 C 28,3 C 11,3 km/h (2 Bft) 100,00 %
23.07.2019 13:00 28,4 C 26,1 C 41,7 C 42 % 1019,6 hPa 0,0 l/m 8,6 km/h (2 Bft) N-NO 13 2 min 0,609 mm 6,7 UV-I 869 W/m 14,2 C 28,1 C 12,9 km/h (3 Bft) 92,45 %
23.07.2019 13:02 28,6 C 26,1 C 41,7 C 41 % 1019,6 hPa 0,0 l/m 7,8 km/h (2 Bft) N-NO 22 2 min 0,000 mm 6,7 UV-I 866 W/m 14,0 C 28,4 C 12,9 km/h (3 Bft) 94,34 %
23.07.2019 13:04 28,8 C 26,1 C 40,6 C 39 % 1019,6 hPa 0,0 l/m 9,7 km/h (2 Bft) N-NW 345 2 min 0,000 mm 6,7 UV-I 866 W/m 13,4 C 28,4 C 14,5 km/h (3 Bft) 94,74 %
23.07.2019 13:06 28,8 C 26,1 C 40,6 C 39 % 1019,6 hPa 0,0 l/m 3,7 km/h (1 Bft) NW 321 2 min 0,000 mm 6,7 UV-I 867 W/m 13,4 C 28,8 C 6,4 km/h (2 Bft) 93,62 %
23.07.2019 13:08 28,6 C 26,1 C 41,7 C 41 % 1019,6 hPa 0,0 l/m 3,1 km/h (1 Bft) W 260 2 min 0,000 mm 6,7 UV-I 865 W/m 14,0 C 28,6 C 4,8 km/h (1 Bft) 96,00 %
23.07.2019 13:10 28,3 C 26,1 C 41,7 C 39 % 1019,6 hPa 0,0 l/m 2,1 km/h (1 Bft) W 262 2 min 0,000 mm 6,7 UV-I 865 W/m 13,0 C 28,3 C 4,8 km/h (1 Bft) 94,34 %
23.07.2019 13:12 28,1 C 26,1 C 42,2 C 41 % 1019,6 hPa 0,0 l/m 2,5 km/h (1 Bft) S-SW 199 2 min 0,000 mm 6,6 UV-I 861 W/m 13,6 C 28,1 C 4,8 km/h (1 Bft) 93,62 %
23.07.2019 13:14 28,1 C 26,1 C 42,8 C 41 % 1019,6 hPa 0,0 l/m 3,6 km/h (1 Bft) S-SW 195 2 min 0,000 mm 6,6 UV-I 862 W/m 13,6 C 28,1 C 6,4 km/h (2 Bft) 96,15 %
23.07.2019 13:16 28,1 C 26,1 C 43,3 C 41 % 1019,5 hPa 0,0 l/m 2,8 km/h (1 Bft) N-NW 343 2 min 0,000 mm 6,6 UV-I 862 W/m 13,6 C 28,1 C 9,7 km/h (2 Bft) 93,85 %
23.07.2019 13:18 28,3 C 26,1 C 43,3 C 41 % 1019,5 hPa 0,0 l/m 5,5 km/h (1 Bft) NW 304 2 min 0,000 mm 6,6 UV-I 859 W/m 13,8 C 28,3 C 8,0 km/h (2 Bft) 95,74 %
23.07.2019 13:20 28,4 C 26,1 C 42,8 C 43 % 1019,5 hPa 0,0 l/m 5,7 km/h (1 Bft) N-NO 17 2 min 0,000 mm 6,6 UV-I 860 W/m 14,6 C 28,4 C 11,3 km/h (2 Bft) 94,74 %
23.07.2019 13:22 28,6 C 26,1 C 42,8 C 42 % 1019,5 hPa 0,0 l/m 5,7 km/h (1 Bft) N-NO 12 2 min 0,000 mm 6,5 UV-I 856 W/m 14,4 C 28,6 C 11,3 km/h (2 Bft) 91,67 %
23.07.2019 13:24 28,6 C 26,1 C 42,2 C 41 % 1019,5 hPa 0,0 l/m 7,3 km/h (2 Bft) N-NW 327 2 min 0,000 mm 6,5 UV-I 855 W/m 14,0 C 28,5 C 12,9 km/h (3 Bft) 97,14 %
23.07.2019 13:26 28,7 C 26,1 C 41,1 C 42 % 1019,4 hPa 0,0 l/m 6,2 km/h (2 Bft) N-NW 338 2 min 0,000 mm 6,5 UV-I 853 W/m 14,5 C 28,7 C 9,7 km/h (2 Bft) 94,64 %
23.07.2019 13:28 28,7 C 26,1 C 41,1 C 44 % 1019,4 hPa 0,0 l/m 6,1 km/h (2 Bft) W 267 2 min 0,000 mm 6,5 UV-I 852 W/m 15,2 C 28,7 C 12,9 km/h (3 Bft) 100,00 %
23.07.2019 13:30 28,7 C 26,1 C 40,6 C 41 % 1019,4 hPa 0,0 l/m 7,3 km/h (2 Bft) N-NW 327 2 min 0,000 mm 6,5 UV-I 849 W/m 14,1 C 28,6 C 12,9 km/h (3 Bft) 94,55 %
23.07.2019 13:32 28,8 C 26,1 C 41,1 C 44 % 1019,3 hPa 0,0 l/m 5,5 km/h (1 Bft) N-NO 22 2 min 0,000 mm 6,5 UV-I 854 W/m 15,3 C 28,8 C 11,3 km/h (2 Bft) 98,00 %
23.07.2019 13:34 28,9 C 26,1 C 42,2 C 41 % 1019,4 hPa 0,0 l/m 4,4 km/h (1 Bft) W 273 2 min 0,000 mm 6,6 UV-I 857 W/m 14,3 C 28,9 C 6,4 km/h (2 Bft) 97,22 %
23.07.2019 13:36 28,9 C 26,1 C 42,8 C 44 % 1019,4 hPa 0,0 l/m 5,7 km/h (1 Bft) W-SW 250 2 min 0,000 mm 6,5 UV-I 848 W/m 15,4 C 28,9 C 9,7 km/h (2 Bft) 98,00 %
23.07.2019 13:38 29,0 C 26,1 C 42,8 C 41 % 1019,3 hPa 0,0 l/m 4,5 km/h (1 Bft) W-SW 249 2 min 0,000 mm 6,5 UV-I 849 W/m 14,4 C 29,0 C 11,3 km/h (2 Bft) 100,00 %
23.07.2019 13:40 29,1 C 26,1 C 42,8 C 42 % 1019,3 hPa 0,0 l/m 5,9 km/h (2 Bft) W 259 2 min 0,000 mm 6,5 UV-I 855 W/m 14,9 C 29,1 C 12,9 km/h (3 Bft) 100,00 %
23.07.2019 13:42 29,0 C 26,1 C 42,2 C 41 % 1019,3 hPa 0,0 l/m 8,6 km/h (2 Bft) W-NW 294 2 min 0,000 mm 6,6 UV-I 850 W/m 14,4 C 28,7 C 14,5 km/h (3 Bft) 97,87 %
23.07.2019 13:44 29,0 C 26,1 C 42,8 C 39 % 1019,3 hPa 0,0 l/m 9,1 km/h (2 Bft) W 275 2 min 0,000 mm 6,6 UV-I 856 W/m 13,6 C 28,7 C 17,7 km/h (3 Bft) 96,23 %
23.07.2019 13:46 28,9 C 26,1 C 42,2 C 38 % 1019,3 hPa 0,0 l/m 6,7 km/h (2 Bft) W 265 2 min 0,000 mm 6,6 UV-I 855 W/m 13,1 C 28,9 C 12,9 km/h (3 Bft) 100,00 %
23.07.2019 13:48 29,1 C 26,1 C 42,8 C 39 % 1019,3 hPa 0,0 l/m 7,5 km/h (2 Bft) S-SO 164 2 min 0,000 mm 6,6 UV-I 847 W/m 13,7 C 29,0 C 12,9 km/h (3 Bft) 100,00 %
23.07.2019 13:50 28,9 C 26,1 C 42,8 C 37 % 1019,3 hPa 0,0 l/m 5,0 km/h (1 Bft) S 171 2 min 0,000 mm 5,6 UV-I 848 W/m 12,7 C 28,9 C 8,0 km/h (2 Bft) 100,00 %
23.07.2019 13:52 28,7 C 26,1 C 42,8 C 38 % 1019,2 hPa 0,0 l/m 2,0 km/h (1 Bft) W 277 2 min 0,000 mm 6,2 UV-I 854 W/m 13,0 C 28,7 C 4,8 km/h (1 Bft) 100,00 %
23.07.2019 13:54 28,9 C 26,1 C 43,3 C 40 % 1019,2 hPa 0,0 l/m 5,1 km/h (1 Bft) N 11 2 min 0,000 mm 6,5 UV-I 852 W/m 13,9 C 28,9 C 9,7 km/h (2 Bft) 100,00 %
23.07.2019 13:56 29,3 C 26,1 C 42,8 C 39 % 1019,1 hPa 0,0 l/m 6,2 km/h (2 Bft) NW 317 2 min 0,000 mm 6,5 UV-I 850 W/m 13,9 C 29,3 C 12,9 km/h (3 Bft) 100,00 %
23.07.2019 13:58 29,4 C 26,1 C 42,2 C 39 % 1019,1 hPa 0,0 l/m 7,6 km/h (2 Bft) N-NO 18 2 min 0,000 mm 6,4 UV-I 848 W/m 14,0 C 29,3 C 11,3 km/h (2 Bft) 98,11 %
23.07.2019 14:00 29,6 C 26,1 C 42,8 C 41 % 1019,1 hPa 0,0 l/m 7,9 km/h (2 Bft) NW 320 2 min 0,610 mm 6,4 UV-I 847 W/m 14,9 C 29,4 C 16,1 km/h (3 Bft) 97,14 %
23.07.2019 14:02 29,6 C 26,1 C 42,2 C 39 % 1019,1 hPa 0,0 l/m 4,1 km/h (1 Bft) W 261 2 min 0,000 mm 6,4 UV-I 846 W/m 14,2 C 29,6 C 6,4 km/h (2 Bft) 100,00 %
23.07.2019 14:04 29,5 C 26,1 C 41,7 C 38 % 1019,1 hPa 0,0 l/m 6,6 km/h (2 Bft) NW 304 2 min 0,000 mm 6,4 UV-I 844 W/m 13,7 C 29,5 C 12,9 km/h (3 Bft) 93,22 %
23.07.2019 14:06 29,3 C 26,1 C 42,2 C 41 % 1019,1 hPa 0,0 l/m 3,6 km/h (1 Bft) N-NW 335 2 min 0,000 mm 6,3 UV-I 842 W/m 14,7 C 29,3 C 6,4 km/h (2 Bft) 97,87 %
23.07.2019 14:08 29,3 C 26,1 C 42,2 C 41 % 1019,0 hPa 0,0 l/m 6,6 km/h (2 Bft) N-NW 329 2 min 0,000 mm 6,3 UV-I 839 W/m 14,7 C 29,3 C 11,3 km/h (2 Bft) 98,08 %
23.07.2019 14:10 29,2 C 26,1 C 42,2 C 39 % 1019,0 hPa 0,0 l/m 4,3 km/h (1 Bft) O-NO 74 2 min 0,000 mm 6,3 UV-I 803 W/m 13,8 C 29,2 C 6,4 km/h (2 Bft) 98,00 %
23.07.2019 14:12 29,1 C 26,1 C 41,7 C 44 % 1019,0 hPa 0,0 l/m 3,8 km/h (1 Bft) O-NO 78 2 min 0,000 mm 6,3 UV-I 834 W/m 15,6 C 29,1 C 4,8 km/h (1 Bft) 97,44 %
23.07.2019 14:14 29,2 C 26,1 C 42,2 C 39 % 1019,0 hPa 0,0 l/m 4,7 km/h (1 Bft) W-NW 286 2 min 0,000 mm 6,0 UV-I 830 W/m 13,8 C 29,2 C 6,4 km/h (2 Bft) 98,00 %
23.07.2019 14:16 29,1 C 26,1 C 42,8 C 37 % 1019,0 hPa 0,0 l/m 3,5 km/h (1 Bft) W 276 2 min 0,000 mm 6,2 UV-I 831 W/m 12,9 C 29,1 C 6,4 km/h (2 Bft) 98,00 %
23.07.2019 14:18 29,1 C 26,1 C 43,3 C 39 % 1019,0 hPa 0,0 l/m 3,2 km/h (1 Bft) W-SW 250 2 min 0,000 mm 6,1 UV-I 825 W/m 13,7 C 29,1 C 6,4 km/h (2 Bft) 95,74 %
23.07.2019 14:20 29,0 C 26,1 C 43,9 C 38 % 1019,0 hPa 0,0 l/m 2,0 km/h (1 Bft) S-SW 213 2 min 0,000 mm 5,2 UV-I 823 W/m 13,2 C 29,0 C 4,8 km/h (1 Bft) 97,37 %
23.07.2019 14:22 29,0 C 26,1 C 43,9 C 45 % 1019,0 hPa 0,0 l/m 2,9 km/h (1 Bft) W-NW 292 2 min 0,000 mm 4,9 UV-I 821 W/m 15,8 C 29,0 C 6,4 km/h (2 Bft) 96,23 %
23.07.2019 14:24 29,2 C 26,1 C 43,9 C 40 % 1019,0 hPa 0,0 l/m 4,4 km/h (1 Bft) W 277 2 min 0,000 mm 5,9 UV-I 818 W/m 14,2 C 29,2 C 8,0 km/h (2 Bft) 97,56 %
23.07.2019 14:26 29,2 C 26,1 C 43,9 C 42 % 1019,0 hPa 0,0 l/m 5,1 km/h (1 Bft) W-NW 289 2 min 0,000 mm 5,9 UV-I 817 W/m 14,9 C 29,2 C 11,3 km/h (2 Bft) 96,23 %
23.07.2019 14:28 29,3 C 26,1 C 43,9 C 41 % 1018,9 hPa 0,0 l/m 4,6 km/h (1 Bft) W-NW 296 2 min 0,000 mm 5,9 UV-I 814 W/m 14,7 C 29,3 C 6,4 km/h (2 Bft) 97,87 %
23.07.2019 14:30 29,4 C 26,1 C 42,8 C 39 % 1018,9 hPa 0,0 l/m 6,8 km/h (2 Bft) SW 230 2 min 0,000 mm 5,9 UV-I 810 W/m 14,0 C 29,4 C 12,9 km/h (3 Bft) 96,00 %
23.07.2019 14:32 29,4 C 26,1 C 42,8 C 38 % 1018,9 hPa 0,0 l/m 6,8 km/h (2 Bft) W-SW 252 2 min 0,000 mm 5,8 UV-I 809 W/m 13,6 C 29,4 C 11,3 km/h (2 Bft) 97,37 %
23.07.2019 14:34 29,4 C 26,1 C 42,8 C 40 % 1018,8 hPa 0,0 l/m 7,3 km/h (2 Bft) S-SW 213 2 min 0,000 mm 5,8 UV-I 804 W/m 14,4 C 29,3 C 11,3 km/h (2 Bft) 100,00 %
23.07.2019 14:36 29,3 C 26,1 C 42,8 C 40 % 1018,8 hPa 0,0 l/m 4,3 km/h (1 Bft) SW 217 2 min 0,000 mm 5,5 UV-I 805 W/m 14,3 C 29,3 C 6,4 km/h (2 Bft) 100,00 %
23.07.2019 14:38 29,3 C 26,1 C 43,3 C 43 % 1018,8 hPa 0,0 l/m 4,4 km/h (1 Bft) N 360 2 min 0,000 mm 5,5 UV-I 804 W/m 15,4 C 29,3 C 9,7 km/h (2 Bft) 94,74 %
23.07.2019 14:40 29,5 C 26,1 C 42,8 C 40 % 1018,8 hPa 0,0 l/m 6,7 km/h (2 Bft) NW 321 2 min 0,000 mm 5,7 UV-I 805 W/m 14,5 C 29,5 C 12,9 km/h (3 Bft) 100,00 %
23.07.2019 14:42 29,6 C 26,7 C 42,8 C 41 % 1018,8 hPa 0,0 l/m 4,5 km/h (1 Bft) W-NW 296 2 min 0,000 mm 5,7 UV-I 780 W/m 14,9 C 29,6 C 8,0 km/h (2 Bft) 98,11 %
23.07.2019 14:44 29,8 C 26,7 C 42,8 C 41 % 1018,8 hPa 0,0 l/m 7,3 km/h (2 Bft) W-NW 294 2 min 0,000 mm 5,7 UV-I 768 W/m 15,1 C 29,7 C 12,9 km/h (3 Bft) 100,00 %
23.07.2019 14:46 29,7 C 26,7 C 42,8 C 40 % 1018,8 hPa 0,0 l/m 5,0 km/h (1 Bft) N 5 2 min 0,000 mm 5,6 UV-I 788 W/m 14,6 C 29,7 C 8,0 km/h (2 Bft) 97,92 %
23.07.2019 14:48 29,7 C 26,7 C 42,8 C 42 % 1018,8 hPa 0,0 l/m 5,4 km/h (1 Bft) N-NW 330 2 min 0,000 mm 5,6 UV-I 784 W/m 15,4 C 29,7 C 8,0 km/h (2 Bft) 100,00 %
23.07.2019 14:50 29,7 C 26,7 C 42,2 C 39 % 1018,8 hPa 0,0 l/m 3,9 km/h (1 Bft) W-SW 251 2 min 0,000 mm 5,5 UV-I 793 W/m 14,2 C 29,7 C 6,4 km/h (2 Bft) 100,00 %
23.07.2019 14:52 29,6 C 26,7 C 42,8 C 40 % 1018,7 hPa 0,0 l/m 6,0 km/h (2 Bft) S 182 2 min 0,000 mm 5,5 UV-I 790 W/m 14,5 C 29,6 C 9,7 km/h (2 Bft) 100,00 %
23.07.2019 14:54 29,6 C 26,7 C 43,3 C 41 % 1018,7 hPa 0,0 l/m 2,5 km/h (1 Bft) S 172 2 min 0,000 mm 5,5 UV-I 788 W/m 14,9 C 29,6 C 8,0 km/h (2 Bft) 100,00 %
23.07.2019 14:56 29,8 C 26,7 C 43,9 C 41 % 1018,7 hPa 0,0 l/m 3,3 km/h (1 Bft) W-SW 257 2 min 0,000 mm 5,4 UV-I 787 W/m 15,1 C 29,8 C 6,4 km/h (2 Bft) 100,00 %
23.07.2019 14:58 29,9 C 26,7 C 43,9 C 41 % 1018,6 hPa 0,0 l/m 5,7 km/h (1 Bft) W-NW 282 2 min 0,000 mm 5,4 UV-I 780 W/m 15,2 C 29,9 C 8,0 km/h (2 Bft) 96,00 %
23.07.2019 15:00 29,8 C 26,7 C 43,3 C 39 % 1018,6 hPa 0,0 l/m 8,9 km/h (2 Bft) W-SW 251 2 min 0,000 mm 5,3 UV-I 772 W/m 14,3 C 29,6 C 12,9 km/h (3 Bft) 97,73 %
23.07.2019 15:02 29,8 C 26,7 C 43,3 C 39 % 1018,6 hPa 0,0 l/m 5,5 km/h (1 Bft) N-NW 344 2 min 0,584 mm 5,3 UV-I 774 W/m 14,3 C 29,8 C 8,0 km/h (2 Bft) 98,00 %
23.07.2019 15:04 29,8 C 26,7 C 42,8 C 41 % 1018,6 hPa 0,0 l/m 4,2 km/h (1 Bft) NO 44 2 min 0,000 mm 5,1 UV-I 755 W/m 15,1 C 29,8 C 8,0 km/h (2 Bft) 98,00 %
23.07.2019 15:06 29,9 C 26,7 C 42,2 C 38 % 1018,6 hPa 0,0 l/m 4,6 km/h (1 Bft) NW 325 2 min 0,000 mm 5,1 UV-I 758 W/m 14,0 C 29,9 C 8,0 km/h (2 Bft) 94,74 %
23.07.2019 15:08 30,0 C 26,7 C 41,7 C 39 % 1018,5 hPa 0,0 l/m 7,0 km/h (2 Bft) N-NW 345 2 min 0,000 mm 5,0 UV-I 754 W/m 14,5 C 29,9 C 12,9 km/h (3 Bft) 95,45 %
23.07.2019 15:10 30,0 C 26,7 C 41,1 C 38 % 1018,5 hPa 0,0 l/m 5,9 km/h (2 Bft) W-NW 296 2 min 0,000 mm 5,0 UV-I 748 W/m 14,1 C 30,0 C 12,9 km/h (3 Bft) 98,11 %
23.07.2019 15:12 29,9 C 26,7 C 41,7 C 42 % 1018,5 hPa 0,0 l/m 3,0 km/h (1 Bft) W-NW 296 2 min 0,000 mm 4,9 UV-I 747 W/m 15,6 C 29,9 C 6,4 km/h (2 Bft) 96,00 %
23.07.2019 15:14 29,8 C 26,7 C 41,7 C 38 % 1018,5 hPa 0,0 l/m 2,5 km/h (1 Bft) W-NW 296 2 min 0,000 mm 4,9 UV-I 743 W/m 13,9 C 29,8 C 4,8 km/h (1 Bft) 96,00 %
23.07.2019 15:16 29,7 C 26,7 C 41,7 C 39 % 1018,5 hPa 0,0 l/m 5,3 km/h (1 Bft) W-NW 285 2 min 0,000 mm 4,8 UV-I 742 W/m 14,2 C 29,7 C 9,7 km/h (2 Bft) 97,87 %
23.07.2019 15:18 29,7 C 26,7 C 42,2 C 41 % 1018,4 hPa 0,0 l/m 4,4 km/h (1 Bft) N-NW 343 2 min 0,000 mm 4,8 UV-I 738 W/m 15,0 C 29,7 C 8,0 km/h (2 Bft) 97,87 %
23.07.2019 15:20 29,9 C 26,7 C 42,2 C 42 % 1018,4 hPa 0,0 l/m 6,8 km/h (2 Bft) N-NO 19 2 min 0,000 mm 4,8 UV-I 736 W/m 15,6 C 29,9 C 12,9 km/h (3 Bft) 97,56 %
23.07.2019 15:22 30,2 C 26,7 C 41,7 C 41 % 1018,4 hPa 0,0 l/m 5,1 km/h (1 Bft) N-NW 340 2 min 0,000 mm 4,6 UV-I 733 W/m 15,5 C 30,2 C 8,0 km/h (2 Bft) 98,11 %
23.07.2019 15:24 30,3 C 26,7 C 41,1 C 39 % 1018,4 hPa 0,0 l/m 8,0 km/h (2 Bft) N-NO 24 2 min 0,000 mm 4,6 UV-I 726 W/m 14,8 C 30,2 C 12,9 km/h (3 Bft) 94,44 %
23.07.2019 15:26 30,2 C 26,7 C 40,6 C 38 % 1018,4 hPa 0,0 l/m 5,3 km/h (1 Bft) O-NO 61 2 min 0,000 mm 3,7 UV-I 725 W/m 14,3 C 30,2 C 8,0 km/h (2 Bft) 96,23 %
23.07.2019 15:28 30,0 C 26,7 C 41,1 C 39 % 1018,4 hPa 0,0 l/m 2,2 km/h (1 Bft) O-NO 69 2 min 0,000 mm 4,3 UV-I 722 W/m 14,5 C 30,0 C 4,8 km/h (1 Bft) 92,00 %
23.07.2019 15:30 29,9 C 26,7 C 41,7 C 41 % 1018,4 hPa 0,0 l/m 5,9 km/h (2 Bft) NO 52 2 min 0,000 mm 4,3 UV-I 719 W/m 15,2 C 29,9 C 8,0 km/h (2 Bft) 97,87 %
23.07.2019 15:32 29,9 C 26,7 C 41,7 C 40 % 1018,4 hPa 0,0 l/m 3,4 km/h (1 Bft) N-NO 17 2 min 0,000 mm 4,3 UV-I 718 W/m 14,8 C 29,9 C 4,8 km/h (1 Bft) 91,43 %
23.07.2019 15:34 29,9 C 26,7 C 41,7 C 40 % 1018,4 hPa 0,0 l/m 4,0 km/h (1 Bft) N-NW 348 2 min 0,000 mm 4,4 UV-I 708 W/m 14,8 C 29,9 C 8,0 km/h (2 Bft) 97,56 %
23.07.2019 15:36 30,0 C 26,7 C 41,1 C 40 % 1018,3 hPa 0,0 l/m 4,9 km/h (1 Bft) N-NO 24 2 min 0,000 mm 4,3 UV-I 702 W/m 14,9 C 30,0 C 8,0 km/h (2 Bft) 98,21 %
23.07.2019 15:38 30,1 C 26,7 C 41,1 C 38 % 1018,3 hPa 0,0 l/m 7,9 km/h (2 Bft) N 10 2 min 0,000 mm 4,3 UV-I 701 W/m 14,2 C 30,0 C 12,9 km/h (3 Bft) 98,11 %
23.07.2019 15:40 30,2 C 26,7 C 40,6 C 40 % 1018,3 hPa 0,0 l/m 10,3 km/h (2 Bft) N 9 2 min 0,000 mm 4,3 UV-I 694 W/m 15,1 C 29,9 C 12,9 km/h (3 Bft) 98,00 %
23.07.2019 15:42 30,2 C 26,7 C 41,1 C 38 % 1018,2 hPa 0,0 l/m 5,2 km/h (1 Bft) N-NO 17 2 min 0,000 mm 4,3 UV-I 700 W/m 14,3 C 30,2 C 8,0 km/h (2 Bft) 97,37 %
23.07.2019 15:44 30,2 C 26,7 C 41,1 C 39 % 1018,2 hPa 0,0 l/m 3,9 km/h (1 Bft) NW 306 2 min 0,000 mm 4,2 UV-I 695 W/m 14,7 C 30,2 C 6,4 km/h (2 Bft) 96,23 %
23.07.2019 15:46 30,3 C 26,7 C 41,7 C 37 % 1018,2 hPa 0,0 l/m 4,0 km/h (1 Bft) N-NO 28 2 min 0,000 mm 4,2 UV-I 693 W/m 14,0 C 30,3 C 6,4 km/h (2 Bft) 100,00 %
23.07.2019 15:48 30,3 C 26,7 C 41,7 C 37 % 1018,2 hPa 0,0 l/m 3,4 km/h (1 Bft) O-NO 75 2 min 0,000 mm 4,1 UV-I 687 W/m 14,0 C 30,3 C 6,4 km/h (2 Bft) 94,64 %
23.07.2019 15:50 30,3 C 26,7 C 41,7 C 41 % 1018,1 hPa 0,0 l/m 7,6 km/h (2 Bft) NO 56 2 min 0,000 mm 4,1 UV-I 685 W/m 15,6 C 30,2 C 9,7 km/h (2 Bft) 94,64 %
23.07.2019 15:52 30,4 C 26,7 C 41,7 C 43 % 1018,1 hPa 0,0 l/m 7,2 km/h (2 Bft) NO 53 2 min 0,000 mm 4,0 UV-I 679 W/m 16,4 C 30,3 C 12,9 km/h (3 Bft) 95,74 %
23.07.2019 15:54 30,3 C 26,7 C 42,2 C 42 % 1018,1 hPa 0,0 l/m 2,1 km/h (1 Bft) O-NO 67 2 min 0,000 mm 4,0 UV-I 673 W/m 15,9 C 30,3 C 6,4 km/h (2 Bft) 92,11 %
23.07.2019 15:56 30,3 C 26,7 C 42,8 C 38 % 1018,1 hPa 0,0 l/m 4,8 km/h (1 Bft) O 83 2 min 0,000 mm 4,0 UV-I 669 W/m 14,4 C 30,3 C 8,0 km/h (2 Bft) 96,61 %
23.07.2019 15:58 30,3 C 26,7 C 42,2 C 39 % 1018,1 hPa 0,0 l/m 3,7 km/h (1 Bft) O 88 2 min 0,000 mm 3,9 UV-I 671 W/m 14,8 C 30,3 C 6,4 km/h (2 Bft) 94,87 %
23.07.2019 16:00 30,3 C 26,7 C 42,8 C 40 % 1018,1 hPa 0,0 l/m 2,3 km/h (1 Bft) W 275 2 min 0,534 mm 3,9 UV-I 668 W/m 15,2 C 30,3 C 4,8 km/h (1 Bft) 93,88 %
23.07.2019 16:02 30,3 C 26,7 C 42,8 C 39 % 1018,0 hPa 0,0 l/m 3,5 km/h (1 Bft) NW 308 2 min 0,000 mm 3,9 UV-I 665 W/m 14,8 C 30,3 C 8,0 km/h (2 Bft) 95,24 %
23.07.2019 16:04 30,4 C 26,7 C 42,2 C 38 % 1018,0 hPa 0,0 l/m 4,8 km/h (1 Bft) NW 305 2 min 0,000 mm 3,8 UV-I 661 W/m 14,5 C 30,4 C 8,0 km/h (2 Bft) 96,00 %
23.07.2019 16:06 30,3 C 26,7 C 42,2 C 38 % 1018,0 hPa 0,0 l/m 3,8 km/h (1 Bft) NW 305 2 min 0,000 mm 3,8 UV-I 658 W/m 14,4 C 30,3 C 6,4 km/h (2 Bft) 95,12 %
23.07.2019 16:08 30,3 C 26,7 C 42,8 C 40 % 1018,0 hPa 0,0 l/m 5,2 km/h (1 Bft) NW 313 2 min 0,000 mm 3,7 UV-I 655 W/m 15,2 C 30,3 C 8,0 km/h (2 Bft) 94,00 %
23.07.2019 16:10 30,3 C 26,7 C 42,8 C 37 % 1018,0 hPa 0,0 l/m 2,5 km/h (1 Bft) NW 323 2 min 0,000 mm 3,7 UV-I 651 W/m 14,0 C 30,3 C 6,4 km/h (2 Bft) 96,00 %
23.07.2019 16:12 30,3 C 26,7 C 42,8 C 39 % 1017,9 hPa 0,0 l/m 2,9 km/h (1 Bft) NW 321 2 min 0,000 mm 3,7 UV-I 646 W/m 14,8 C 30,3 C 4,8 km/h (1 Bft) 96,00 %
23.07.2019 16:14 30,3 C 26,7 C 42,8 C 40 % 1017,9 hPa 0,0 l/m 5,3 km/h (1 Bft) N 355 2 min 0,000 mm 3,6 UV-I 639 W/m 15,2 C 30,3 C 11,3 km/h (2 Bft) 98,00 %
23.07.2019 16:16 30,5 C 26,7 C 42,8 C 38 % 1017,9 hPa 0,0 l/m 4,9 km/h (1 Bft) N 11 2 min 0,000 mm 3,5 UV-I 636 W/m 14,5 C 30,5 C 9,7 km/h (2 Bft) 100,00 %
23.07.2019 16:18 30,4 C 26,7 C 42,8 C 38 % 1017,9 hPa 0,0 l/m 3,3 km/h (1 Bft) N-NW 328 2 min 0,000 mm 3,5 UV-I 633 W/m 14,5 C 30,4 C 6,4 km/h (2 Bft) 96,00 %
23.07.2019 16:20 30,4 C 26,7 C 42,8 C 38 % 1017,9 hPa 0,0 l/m 4,1 km/h (1 Bft) NW 325 2 min 0,000 mm 3,4 UV-I 625 W/m 14,5 C 30,4 C 4,8 km/h (1 Bft) 98,00 %
23.07.2019 16:22 30,2 C 26,7 C 42,2 C 37 % 1017,9 hPa 0,0 l/m 2,9 km/h (1 Bft) NW 325 2 min 0,000 mm 3,3 UV-I 621 W/m 13,9 C 30,2 C 3,2 km/h (1 Bft) 100,00 %
23.07.2019 16:24 30,2 C 26,7 C 42,8 C 39 % 1017,8 hPa 0,0 l/m 3,0 km/h (1 Bft) W 273 2 min 0,000 mm 3,3 UV-I 617 W/m 14,7 C 30,2 C 6,4 km/h (2 Bft) 98,11 %
23.07.2019 16:26 30,2 C 26,7 C 42,8 C 39 % 1017,8 hPa 0,0 l/m 3,6 km/h (1 Bft) W-SW 254 2 min 0,000 mm 3,2 UV-I 612 W/m 14,7 C 30,2 C 6,4 km/h (2 Bft) 97,14 %
23.07.2019 16:28 30,2 C 26,7 C 43,3 C 38 % 1017,8 hPa 0,0 l/m 3,2 km/h (1 Bft) S-SW 202 2 min 0,000 mm 3,2 UV-I 609 W/m 14,3 C 30,2 C 6,4 km/h (2 Bft) 100,00 %
23.07.2019 16:30 30,0 C 26,7 C 43,3 C 39 % 1017,8 hPa 0,0 l/m 2,3 km/h (1 Bft) S-SW 202 2 min 0,000 mm 3,2 UV-I 604 W/m 14,5 C 30,0 C 3,2 km/h (1 Bft) 100,00 %
23.07.2019 16:32 30,2 C 26,7 C 42,8 C 38 % 1017,8 hPa 0,0 l/m 1,2 km/h (1 Bft) S-SW 196 2 min 0,000 mm 3,1 UV-I 598 W/m 14,3 C 30,2 C 3,2 km/h (1 Bft) 100,00 %
23.07.2019 16:34 30,4 C 26,7 C 43,9 C 39 % 1017,7 hPa 0,0 l/m 3,2 km/h (1 Bft) NW 317 2 min 0,000 mm 3,1 UV-I 594 W/m 14,9 C 30,4 C 6,4 km/h (2 Bft) 100,00 %
23.07.2019 16:36 30,8 C 27,2 C 43,9 C 42 % 1017,7 hPa 0,0 l/m 3,2 km/h (1 Bft) NO 45 2 min 0,000 mm 3,0 UV-I 588 W/m 16,4 C 30,8 C 6,4 km/h (2 Bft) 100,00 %
23.07.2019 16:38 31,1 C 27,2 C 43,3 C 40 % 1017,7 hPa 0,0 l/m 5,7 km/h (1 Bft) NO 36 2 min 0,000 mm 3,0 UV-I 583 W/m 15,9 C 31,1 C 9,7 km/h (2 Bft) 100,00 %
23.07.2019 16:40 31,1 C 27,2 C 41,7 C 37 % 1017,7 hPa 0,0 l/m 4,2 km/h (1 Bft) N 11 2 min 0,000 mm 2,9 UV-I 578 W/m 14,7 C 31,1 C 9,7 km/h (2 Bft) 100,00 %
23.07.2019 16:42 30,9 C 27,2 C 42,8 C 38 % 1017,7 hPa 0,0 l/m 2,9 km/h (1 Bft) NO 56 2 min 0,000 mm 2,9 UV-I 575 W/m 14,9 C 30,9 C 6,4 km/h (2 Bft) 100,00 %
23.07.2019 16:44 30,9 C 27,2 C 42,2 C 39 % 1017,7 hPa 0,0 l/m 4,4 km/h (1 Bft) N 11 2 min 0,000 mm 2,8 UV-I 569 W/m 15,3 C 30,9 C 6,4 km/h (2 Bft) 100,00 %
23.07.2019 16:46 30,8 C 27,2 C 42,2 C 40 % 1017,7 hPa 0,0 l/m 3,1 km/h (1 Bft) N-NW 331 2 min 0,000 mm 2,8 UV-I 564 W/m 15,6 C 30,8 C 6,4 km/h (2 Bft) 97,73 %
23.07.2019 16:48 30,7 C 27,2 C 41,7 C 38 % 1017,6 hPa 0,0 l/m 4,1 km/h (1 Bft) N-NW 327 2 min 0,000 mm 2,7 UV-I 560 W/m 14,7 C 30,7 C 8,0 km/h (2 Bft) 100,00 %
23.07.2019 16:50 30,6 C 27,2 C 42,2 C 38 % 1017,6 hPa 0,0 l/m 3,5 km/h (1 Bft) N-NW 340 2 min 0,000 mm 2,7 UV-I 555 W/m 14,6 C 30,6 C 8,0 km/h (2 Bft) 100,00 %
23.07.2019 16:52 30,6 C 27,2 C 42,2 C 37 % 1017,6 hPa 0,0 l/m 1,3 km/h (1 Bft) N-NW 340 2 min 0,000 mm 2,6 UV-I 549 W/m 14,2 C 30,6 C 3,2 km/h (1 Bft) 100,00 %
23.07.2019 16:54 30,5 C 27,2 C 41,7 C 39 % 1017,6 hPa 0,0 l/m 5,3 km/h (1 Bft) N 355 2 min 0,000 mm 2,6 UV-I 544 W/m 15,0 C 30,5 C 6,4 km/h (2 Bft) 100,00 %
23.07.2019 16:56 30,4 C 27,2 C 41,1 C 38 % 1017,6 hPa 0,0 l/m 2,7 km/h (1 Bft) W-SW 238 2 min 0,000 mm 2,5 UV-I 540 W/m 14,5 C 30,4 C 4,8 km/h (1 Bft) 100,00 %
23.07.2019 16:58 30,4 C 27,2 C 41,7 C 38 % 1017,5 hPa 0,0 l/m 2,5 km/h (1 Bft) SW 236 2 min 0,000 mm 2,5 UV-I 535 W/m 14,5 C 30,4 C 4,8 km/h (1 Bft) 96,00 %
23.07.2019 17:00 30,5 C 27,2 C 42,2 C 39 % 1017,5 hPa 0,0 l/m 1,9 km/h (1 Bft) SW 236 2 min 0,457 mm 2,4 UV-I 529 W/m 15,0 C 30,5 C 4,8 km/h (1 Bft) 97,56 %
23.07.2019 17:02 30,7 C 27,2 C 42,8 C 39 % 1017,6 hPa 0,0 l/m 3,4 km/h (1 Bft) O 98 2 min 0,000 mm 2,4 UV-I 522 W/m 15,1 C 30,7 C 4,8 km/h (1 Bft) 97,87 %
23.07.2019 17:04 30,8 C 27,2 C 42,8 C 41 % 1017,6 hPa 0,0 l/m 3,9 km/h (1 Bft) NO 51 2 min 0,000 mm 2,3 UV-I 517 W/m 16,0 C 30,8 C 6,4 km/h (2 Bft) 97,87 %
23.07.2019 17:06 30,9 C 27,2 C 41,7 C 39 % 1017,6 hPa 0,0 l/m 5,7 km/h (1 Bft) O-NO 57 2 min 0,000 mm 2,3 UV-I 513 W/m 15,3 C 30,9 C 8,0 km/h (2 Bft) 94,34 %
23.07.2019 17:08 30,8 C 27,2 C 41,7 C 38 % 1017,5 hPa 0,0 l/m 3,9 km/h (1 Bft) O-NO 70 2 min 0,000 mm 2,3 UV-I 507 W/m 14,8 C 30,8 C 8,0 km/h (2 Bft) 97,37 %
23.07.2019 17:10 30,7 C 27,2 C 41,7 C 38 % 1017,5 hPa 0,0 l/m 1,8 km/h (1 Bft) O-NO 70 2 min 0,000 mm 2,2 UV-I 503 W/m 14,7 C 30,7 C 4,8 km/h (1 Bft) 98,00 %
23.07.2019 17:12 30,7 C 27,2 C 42,2 C 40 % 1017,5 hPa 0,0 l/m 1,7 km/h (1 Bft) O-NO 72 2 min 0,000 mm 2,2 UV-I 498 W/m 15,5 C 30,7 C 3,2 km/h (1 Bft) 95,74 %
23.07.2019 17:14 30,6 C 27,2 C 42,8 C 38 % 1017,5 hPa 0,0 l/m 2,0 km/h (1 Bft) O-NO 76 2 min 0,000 mm 2,1 UV-I 492 W/m 14,6 C 30,6 C 3,2 km/h (1 Bft) 96,23 %
23.07.2019 17:16 30,6 C 27,2 C 42,8 C 38 % 1017,5 hPa 0,0 l/m 2,1 km/h (1 Bft) O-NO 75 2 min 0,000 mm 2,1 UV-I 487 W/m 14,6 C 30,6 C 3,2 km/h (1 Bft) 95,24 %
23.07.2019 17:18 30,7 C 27,2 C 43,3 C 38 % 1017,5 hPa 0,0 l/m 1,4 km/h (1 Bft) O-NO 76 2 min 0,000 mm 2,0 UV-I 480 W/m 14,7 C 30,7 C 3,2 km/h (1 Bft) 97,37 %
23.07.2019 17:20 30,8 C 27,2 C 43,9 C 40 % 1017,5 hPa 0,0 l/m 1,2 km/h (1 Bft) O 82 2 min 0,000 mm 2,0 UV-I 477 W/m 15,6 C 30,8 C 1,6 km/h (1 Bft) 98,11 %
23.07.2019 17:22 30,8 C 27,2 C 43,3 C 39 % 1017,4 hPa 0,0 l/m 1,6 km/h (1 Bft) O 82 2 min 0,000 mm 2,0 UV-I 473 W/m 15,2 C 30,8 C 4,8 km/h (1 Bft) 98,00 %
23.07.2019 17:24 30,9 C 27,2 C 43,3 C 38 % 1017,5 hPa 0,0 l/m 3,6 km/h (1 Bft) O-NO 78 2 min 0,000 mm 1,9 UV-I 468 W/m 14,9 C 30,9 C 6,4 km/h (2 Bft) 97,87 %
23.07.2019 17:26 30,8 C 27,2 C 42,2 C 40 % 1017,4 hPa 0,0 l/m 5,8 km/h (2 Bft) NO 43 2 min 0,000 mm 1,9 UV-I 462 W/m 15,6 C 30,8 C 9,7 km/h (2 Bft) 96,00 %
23.07.2019 17:28 30,8 C 27,2 C 41,1 C 41 % 1017,4 hPa 0,0 l/m 5,0 km/h (1 Bft) N-NO 30 2 min 0,000 mm 1,8 UV-I 458 W/m 16,0 C 30,8 C 8,0 km/h (2 Bft) 97,37 %
23.07.2019 17:30 30,8 C 27,2 C 41,1 C 39 % 1017,4 hPa 0,0 l/m 5,4 km/h (1 Bft) N 350 2 min 0,000 mm 1,8 UV-I 451 W/m 15,2 C 30,8 C 8,0 km/h (2 Bft) 98,21 %
23.07.2019 17:32 30,9 C 27,2 C 40,6 C 39 % 1017,4 hPa 0,0 l/m 5,1 km/h (1 Bft) N-NO 20 2 min 0,000 mm 1,8 UV-I 446 W/m 15,3 C 30,9 C 6,4 km/h (2 Bft) 100,00 %
23.07.2019 17:34 30,9 C 27,2 C 40,6 C 43 % 1017,3 hPa 0,0 l/m 6,2 km/h (2 Bft) NO 48 2 min 0,000 mm 1,7 UV-I 442 W/m 16,8 C 30,9 C 8,0 km/h (2 Bft) 98,11 %
23.07.2019 17:36 30,8 C 27,2 C 40,6 C 38 % 1017,3 hPa 0,0 l/m 5,1 km/h (1 Bft) NO 41 2 min 0,000 mm 1,7 UV-I 436 W/m 14,8 C 30,8 C 9,7 km/h (2 Bft) 100,00 %
23.07.2019 17:38 30,8 C 27,2 C 39,4 C 39 % 1017,3 hPa 0,0 l/m 6,2 km/h (2 Bft) N-NO 15 2 min 0,000 mm 1,7 UV-I 430 W/m 15,2 C 30,8 C 12,9 km/h (3 Bft) 100,00 %
23.07.2019 17:40 30,8 C 27,2 C 38,9 C 41 % 1017,2 hPa 0,0 l/m 8,5 km/h (2 Bft) N-NO 33 2 min 0,000 mm 1,6 UV-I 425 W/m 16,0 C 30,7 C 12,9 km/h (3 Bft) 97,87 %
23.07.2019 17:42 30,8 C 27,2 C 37,8 C 39 % 1017,2 hPa 0,0 l/m 10,6 km/h (2 Bft) N-NO 21 2 min 0,000 mm 1,6 UV-I 421 W/m 15,2 C 30,5 C 14,5 km/h (3 Bft) 94,00 %
23.07.2019 17:44 30,8 C 27,2 C 38,3 C 38 % 1017,2 hPa 0,0 l/m 6,1 km/h (2 Bft) O-NO 75 2 min 0,000 mm 1,5 UV-I 415 W/m 14,8 C 30,8 C 11,3 km/h (2 Bft) 100,00 %
23.07.2019 17:46 30,7 C 27,2 C 38,9 C 40 % 1017,2 hPa 0,0 l/m 2,5 km/h (1 Bft) O-NO 75 2 min 0,000 mm 1,5 UV-I 409 W/m 15,5 C 30,7 C 3,2 km/h (1 Bft) 94,00 %
23.07.2019 17:48 30,7 C 27,2 C 39,4 C 39 % 1017,2 hPa 0,0 l/m 3,4 km/h (1 Bft) N-NO 30 2 min 0,000 mm 1,5 UV-I 404 W/m 15,1 C 30,7 C 6,4 km/h (2 Bft) 97,62 %
23.07.2019 17:50 30,8 C 27,2 C 39,4 C 40 % 1017,1 hPa 0,0 l/m 6,8 km/h (2 Bft) NO 45 2 min 0,000 mm 1,4 UV-I 401 W/m 15,6 C 30,8 C 9,7 km/h (2 Bft) 96,36 %
23.07.2019 17:52 30,8 C 27,2 C 39,4 C 38 % 1017,2 hPa 0,0 l/m 5,7 km/h (1 Bft) N 355 2 min 0,000 mm 1,4 UV-I 395 W/m 14,8 C 30,8 C 8,0 km/h (2 Bft) 97,44 %
23.07.2019 17:54 30,8 C 27,2 C 39,4 C 38 % 1017,2 hPa 0,0 l/m 4,0 km/h (1 Bft) N-NW 334 2 min 0,000 mm 1,4 UV-I 392 W/m 14,8 C 30,8 C 6,4 km/h (2 Bft) 94,00 %
23.07.2019 17:56 30,7 C 27,2 C 40,0 C 39 % 1017,2 hPa 0,0 l/m 2,2 km/h (1 Bft) N-NW 346 2 min 0,000 mm 1,3 UV-I 386 W/m 15,1 C 30,7 C 4,8 km/h (1 Bft) 96,00 %
23.07.2019 17:58 30,7 C 27,2 C 39,4 C 38 % 1017,1 hPa 0,0 l/m 4,4 km/h (1 Bft) N 10 2 min 0,000 mm 1,3 UV-I 380 W/m 14,7 C 30,7 C 8,0 km/h (2 Bft) 94,34 %
23.07.2019 18:00 30,8 C 27,2 C 40,0 C 39 % 1017,2 hPa 0,0 l/m 3,5 km/h (1 Bft) N-NW 348 2 min 0,355 mm 1,3 UV-I 375 W/m 15,2 C 30,8 C 6,4 km/h (2 Bft) 92,68 %
23.07.2019 18:02 30,8 C 27,2 C 40,0 C 37 % 1017,1 hPa 0,0 l/m 3,1 km/h (1 Bft) N-NW 348 2 min 0,000 mm 1,3 UV-I 368 W/m 14,4 C 30,8 C 6,4 km/h (2 Bft) 96,23 %
23.07.2019 18:04 30,7 C 27,2 C 40,0 C 38 % 1017,1 hPa 0,0 l/m 4,4 km/h (1 Bft) W 273 2 min 0,000 mm 1,2 UV-I 363 W/m 14,7 C 30,7 C 6,4 km/h (2 Bft) 93,62 %
23.07.2019 18:06 30,6 C 27,2 C 40,6 C 38 % 1017,1 hPa 0,0 l/m 3,0 km/h (1 Bft) W 273 2 min 0,000 mm 1,2 UV-I 359 W/m 14,6 C 30,6 C 4,8 km/h (1 Bft) 94,74 %
23.07.2019 18:08 30,6 C 27,2 C 40,6 C 38 % 1017,0 hPa 0,0 l/m 2,7 km/h (1 Bft) W 277 2 min 0,000 mm 1,2 UV-I 353 W/m 14,6 C 30,6 C 4,8 km/h (1 Bft) 96,00 %
23.07.2019 18:10 30,6 C 27,2 C 40,6 C 39 % 1017,0 hPa 0,0 l/m 3,7 km/h (1 Bft) W 277 2 min 0,000 mm 1,1 UV-I 349 W/m 15,0 C 30,6 C 4,8 km/h (1 Bft) 95,74 %
23.07.2019 18:12 30,6 C 27,2 C 40,6 C 38 % 1017,0 hPa 0,0 l/m 1,6 km/h (1 Bft) W 278 2 min 0,000 mm 1,1 UV-I 344 W/m 14,6 C 30,6 C 4,8 km/h (1 Bft) 98,00 %
23.07.2019 18:14 30,6 C 27,2 C 40,6 C 37 % 1017,0 hPa 0,0 l/m 3,0 km/h (1 Bft) W 278 2 min 0,000 mm 1,1 UV-I 338 W/m 14,2 C 30,6 C 4,8 km/h (1 Bft) 97,73 %
23.07.2019 18:16 30,7 C 27,2 C 40,0 C 37 % 1017,0 hPa 0,0 l/m 2,3 km/h (1 Bft) W 278 2 min 0,000 mm 1,0 UV-I 332 W/m 14,3 C 30,7 C 3,2 km/h (1 Bft) 97,37 %
23.07.2019 18:18 30,7 C 27,2 C 40,0 C 38 % 1017,0 hPa 0,0 l/m 2,6 km/h (1 Bft) W 279 2 min 0,000 mm 1,0 UV-I 326 W/m 14,7 C 30,7 C 4,8 km/h (1 Bft) 96,23 %
23.07.2019 18:20 30,7 C 27,2 C 40,0 C 39 % 1017,0 hPa 0,0 l/m 3,0 km/h (1 Bft) W-NW 296 2 min 0,000 mm 1,0 UV-I 322 W/m 15,1 C 30,7 C 4,8 km/h (1 Bft) 98,00 %
23.07.2019 18:22 30,7 C 27,2 C 39,4 C 38 % 1017,0 hPa 0,0 l/m 4,1 km/h (1 Bft) N-NO 13 2 min 0,000 mm 0,9 UV-I 316 W/m 14,7 C 30,7 C 6,4 km/h (2 Bft) 98,00 %
23.07.2019 18:24 30,6 C 27,2 C 39,4 C 39 % 1017,0 hPa 0,0 l/m 2,5 km/h (1 Bft) NW 314 2 min 0,000 mm 0,9 UV-I 310 W/m 15,0 C 30,6 C 4,8 km/h (1 Bft) 97,37 %
23.07.2019 18:26 30,7 C 27,2 C 39,4 C 39 % 1016,9 hPa 0,0 l/m 3,1 km/h (1 Bft) W-NW 300 2 min 0,000 mm 0,9 UV-I 305 W/m 15,1 C 30,7 C 4,8 km/h (1 Bft) 98,11 %
23.07.2019 18:28 30,7 C 27,2 C 40,0 C 40 % 1017,0 hPa 0,0 l/m 2,7 km/h (1 Bft) W-NW 300 2 min 0,000 mm 0,9 UV-I 298 W/m 15,5 C 30,7 C 3,2 km/h (1 Bft) 95,24 %
23.07.2019 18:30 30,7 C 27,2 C 40,0 C 40 % 1017,0 hPa 0,0 l/m 3,7 km/h (1 Bft) NW 312 2 min 0,000 mm 0,8 UV-I 294 W/m 15,5 C 30,7 C 6,4 km/h (2 Bft) 96,23 %
23.07.2019 18:32 30,6 C 27,2 C 39,4 C 39 % 1017,0 hPa 0,0 l/m 4,0 km/h (1 Bft) NW 313 2 min 0,000 mm 0,8 UV-I 288 W/m 15,0 C 30,6 C 6,4 km/h (2 Bft) 95,74 %
23.07.2019 18:34 30,7 C 27,2 C 39,4 C 38 % 1016,9 hPa 0,0 l/m 2,9 km/h (1 Bft) NW 313 2 min 0,000 mm 0,8 UV-I 282 W/m 14,7 C 30,7 C 4,8 km/h (1 Bft) 98,00 %
23.07.2019 18:36 30,7 C 27,2 C 40,0 C 38 % 1016,9 hPa 0,0 l/m 1,6 km/h (1 Bft) NW 314 2 min 0,000 mm 0,7 UV-I 276 W/m 14,7 C 30,7 C 3,2 km/h (1 Bft) 97,56 %
23.07.2019 18:38 30,7 C 27,2 C 40,0 C 39 % 1016,9 hPa 0,0 l/m 3,6 km/h (1 Bft) N-NO 31 2 min 0,000 mm 0,7 UV-I 270 W/m 15,1 C 30,7 C 8,0 km/h (2 Bft) 97,56 %
23.07.2019 18:40 30,7 C 27,2 C 38,9 C 38 % 1016,9 hPa 0,0 l/m 4,1 km/h (1 Bft) N-NO 31 2 min 0,000 mm 0,7 UV-I 264 W/m 14,7 C 30,7 C 6,4 km/h (2 Bft) 98,00 %
23.07.2019 18:42 30,7 C 27,2 C 38,3 C 37 % 1017,0 hPa 0,0 l/m 2,6 km/h (1 Bft) N-NO 26 2 min 0,000 mm 0,7 UV-I 260 W/m 14,3 C 30,7 C 4,8 km/h (1 Bft) 100,00 %
23.07.2019 18:44 30,7 C 27,2 C 38,3 C 38 % 1016,9 hPa 0,0 l/m 3,5 km/h (1 Bft) N 355 2 min 0,000 mm 0,7 UV-I 254 W/m 14,7 C 30,7 C 4,8 km/h (1 Bft) 100,00 %
23.07.2019 18:46 30,6 C 27,2 C 38,3 C 38 % 1016,9 hPa 0,0 l/m 3,1 km/h (1 Bft) N 355 2 min 0,000 mm 0,6 UV-I 249 W/m 14,6 C 30,6 C 4,8 km/h (1 Bft) 100,00 %
23.07.2019 18:48 30,6 C 27,2 C 38,3 C 37 % 1016,9 hPa 0,0 l/m 2,7 km/h (1 Bft) N 5 2 min 0,000 mm 0,6 UV-I 243 W/m 14,2 C 30,6 C 3,2 km/h (1 Bft) 100,00 %
23.07.2019 18:50 30,6 C 27,2 C 37,8 C 36 % 1016,9 hPa 0,0 l/m 2,3 km/h (1 Bft) N 5 2 min 0,000 mm 0,6 UV-I 237 W/m 13,8 C 30,6 C 4,8 km/h (1 Bft) 98,00 %
23.07.2019 18:52 30,6 C 27,2 C 38,3 C 38 % 1016,8 hPa 0,0 l/m 1,2 km/h (1 Bft) N 5 2 min 0,000 mm 0,6 UV-I 230 W/m 14,6 C 30,6 C 3,2 km/h (1 Bft) 96,23 %
23.07.2019 18:54 30,6 C 27,2 C 37,8 C 38 % 1016,8 hPa 0,0 l/m 1,9 km/h (1 Bft) N 5 2 min 0,000 mm 0,5 UV-I 224 W/m 14,6 C 30,6 C 3,2 km/h (1 Bft) 100,00 %
23.07.2019 18:56 30,7 C 27,2 C 37,8 C 37 % 1016,8 hPa 0,0 l/m 2,6 km/h (1 Bft) N 9 2 min 0,000 mm 0,5 UV-I 216 W/m 14,3 C 30,7 C 4,8 km/h (1 Bft) 96,00 %
23.07.2019 18:58 30,7 C 27,2 C 37,8 C 37 % 1016,8 hPa 0,0 l/m 2,2 km/h (1 Bft) N 11 2 min 0,000 mm 0,5 UV-I 212 W/m 14,3 C 30,7 C 4,8 km/h (1 Bft) 96,00 %
23.07.2019 19:00 30,7 C 27,2 C 37,8 C 37 % 1016,8 hPa 0,0 l/m 2,1 km/h (1 Bft) N 11 2 min 0,229 mm 0,5 UV-I 205 W/m 14,3 C 30,7 C 4,8 km/h (1 Bft) 98,00 %
23.07.2019 19:02 30,6 C 27,2 C 37,8 C 37 % 1016,8 hPa 0,0 l/m 1,3 km/h (1 Bft) N 11 2 min 0,000 mm 0,5 UV-I 200 W/m 14,2 C 30,6 C 3,2 km/h (1 Bft) 95,12 %
23.07.2019 19:04 30,7 C 27,2 C 37,8 C 37 % 1016,8 hPa 0,0 l/m 1,2 km/h (1 Bft) N 11 2 min 0,000 mm 0,0 UV-I 196 W/m 14,3 C 30,7 C 3,2 km/h (1 Bft) 100,00 %
23.07.2019 19:06 30,8 C 27,2 C 38,3 C 36 % 1016,8 hPa 0,0 l/m 1,3 km/h (1 Bft) N 11 2 min 0,000 mm 0,0 UV-I 193 W/m 14,0 C 30,8 C 3,2 km/h (1 Bft) 97,87 %
23.07.2019 19:08 30,6 C 27,2 C 38,3 C 38 % 1016,8 hPa 0,0 l/m 0,7 km/h (0 Bft) N 11 2 min 0,000 mm 0,0 UV-I 189 W/m 14,6 C 30,6 C 1,6 km/h (1 Bft) 97,62 %
23.07.2019 19:10 30,5 C 27,2 C 38,3 C 38 % 1016,8 hPa 0,0 l/m 0,3 km/h (0 Bft) N 11 2 min 0,000 mm 0,0 UV-I 183 W/m 14,5 C 30,5 C 1,6 km/h (1 Bft) 98,00 %
23.07.2019 19:12 30,3 C 27,2 C 38,9 C 39 % 1016,8 hPa 0,0 l/m 1,3 km/h (1 Bft) N 11 2 min 0,000 mm 0,0 UV-I 179 W/m 14,8 C 30,3 C 3,2 km/h (1 Bft) 96,00 %
23.07.2019 19:14 30,3 C 27,2 C 38,3 C 39 % 1016,8 hPa 0,0 l/m 1,8 km/h (1 Bft) N 11 2 min 0,000 mm 0,0 UV-I 173 W/m 14,8 C 30,3 C 3,2 km/h (1 Bft) 100,00 %
23.07.2019 19:16 30,4 C 27,2 C 37,8 C 40 % 1016,8 hPa 0,0 l/m 2,4 km/h (1 Bft) N 11 2 min 0,000 mm 0,0 UV-I 169 W/m 15,3 C 30,4 C 4,8 km/h (1 Bft) 94,00 %
23.07.2019 19:18 30,4 C 27,2 C 37,8 C 39 % 1016,8 hPa 0,0 l/m 1,7 km/h (1 Bft) N 11 2 min 0,000 mm 0,0 UV-I 164 W/m 14,9 C 30,4 C 4,8 km/h (1 Bft) 97,87 %
23.07.2019 19:20 30,4 C 27,2 C 37,8 C 39 % 1016,7 hPa 0,0 l/m 1,4 km/h (1 Bft) N 11 2 min 0,000 mm 0,0 UV-I 159 W/m 14,9 C 30,4 C 3,2 km/h (1 Bft) 96,00 %
23.07.2019 19:22 30,6 C 27,2 C 37,2 C 38 % 1016,8 hPa 0,0 l/m 2,3 km/h (1 Bft) N 11 2 min 0,000 mm 0,0 UV-I 154 W/m 14,6 C 30,6 C 3,2 km/h (1 Bft) 96,00 %
23.07.2019 19:24 30,8 C 27,2 C 36,7 C 38 % 1016,8 hPa 0,0 l/m 1,2 km/h (1 Bft) N 11 2 min 0,000 mm 0,0 UV-I 149 W/m 14,8 C 30,8 C 3,2 km/h (1 Bft) 97,37 %
23.07.2019 19:26 30,6 C 27,2 C 36,7 C 38 % 1016,7 hPa 0,0 l/m 1,0 km/h (0 Bft) N 11 2 min 0,000 mm 0,0 UV-I 144 W/m 14,6 C 30,6 C 1,6 km/h (1 Bft) 98,00 %
23.07.2019 19:28 30,7 C 27,2 C 36,7 C 38 % 1016,7 hPa 0,0 l/m 1,9 km/h (1 Bft) N 11 2 min 0,000 mm 0,0 UV-I 139 W/m 14,7 C 30,7 C 3,2 km/h (1 Bft) 98,00 %
23.07.2019 19:30 30,7 C 27,2 C 36,1 C 37 % 1016,7 hPa 0,0 l/m 1,4 km/h (1 Bft) N 11 2 min 0,000 mm 0,0 UV-I 135 W/m 14,3 C 30,7 C 3,2 km/h (1 Bft) 97,87 %
23.07.2019 19:32 30,7 C 27,2 C 36,1 C 37 % 1016,7 hPa 0,0 l/m 1,3 km/h (1 Bft) N 11 2 min 0,000 mm 0,0 UV-I 131 W/m 14,3 C 30,7 C 3,2 km/h (1 Bft) 95,12 %
23.07.2019 19:34 30,7 C 27,2 C 35,6 C 38 % 1016,7 hPa 0,0 l/m 2,4 km/h (1 Bft) N 11 2 min 0,000 mm 0,0 UV-I 127 W/m 14,7 C 30,7 C 3,2 km/h (1 Bft) 96,00 %
23.07.2019 19:36 30,7 C 27,2 C 35,0 C 37 % 1016,7 hPa 0,0 l/m 1,5 km/h (1 Bft) N 11 2 min 0,000 mm 0,0 UV-I 122 W/m 14,3 C 30,7 C 3,2 km/h (1 Bft) 94,00 %
23.07.2019 19:38 30,7 C 27,2 C 35,0 C 38 % 1016,7 hPa 0,0 l/m 2,3 km/h (1 Bft) N 11 2 min 0,000 mm 0,0 UV-I 118 W/m 14,7 C 30,7 C 3,2 km/h (1 Bft) 100,00 %
23.07.2019 19:40 30,6 C 27,2 C 34,4 C 37 % 1016,7 hPa 0,0 l/m 1,9 km/h (1 Bft) N 11 2 min 0,000 mm 0,0 UV-I 114 W/m 14,2 C 30,6 C 3,2 km/h (1 Bft) 96,00 %
23.07.2019 19:42 30,6 C 27,2 C 34,4 C 38 % 1016,7 hPa 0,0 l/m 1,3 km/h (1 Bft) N 11 2 min 0,000 mm 0,0 UV-I 110 W/m 14,6 C 30,6 C 1,6 km/h (1 Bft) 97,92 %
23.07.2019 19:44 30,7 C 27,2 C 33,9 C 38 % 1016,7 hPa 0,0 l/m 1,6 km/h (1 Bft) N 11 2 min 0,000 mm 0,0 UV-I 106 W/m 14,7 C 30,7 C 3,2 km/h (1 Bft) 98,08 %
23.07.2019 19:46 30,6 C 27,2 C 33,9 C 39 % 1016,7 hPa 0,0 l/m 1,8 km/h (1 Bft) N 11 2 min 0,000 mm 0,0 UV-I 102 W/m 15,0 C 30,6 C 3,2 km/h (1 Bft) 97,87 %
23.07.2019 19:48 30,3 C 27,2 C 33,3 C 40 % 1016,7 hPa 0,0 l/m 1,7 km/h (1 Bft) N 11 2 min 0,000 mm 0,0 UV-I 98 W/m 15,2 C 30,3 C 3,2 km/h (1 Bft) 97,92 %
23.07.2019 19:50 30,0 C 27,2 C 33,3 C 43 % 1016,7 hPa 0,0 l/m 1,6 km/h (1 Bft) N 11 2 min 0,000 mm 0,0 UV-I 93 W/m 16,0 C 30,0 C 3,2 km/h (1 Bft) 97,87 %
23.07.2019 19:52 29,7 C 27,2 C 33,3 C 44 % 1016,7 hPa 0,0 l/m 1,2 km/h (1 Bft) N 11 2 min 0,000 mm 0,0 UV-I 90 W/m 16,1 C 29,7 C 1,6 km/h (1 Bft) 92,11 %
23.07.2019 19:54 29,6 C 27,2 C 32,8 C 45 % 1016,7 hPa 0,0 l/m 0,8 km/h (0 Bft) N 11 2 min 0,000 mm 0,0 UV-I 86 W/m 16,4 C 29,6 C 1,6 km/h (1 Bft) 100,00 %
23.07.2019 19:56 29,3 C 27,2 C 32,2 C 47 % 1016,6 hPa 0,0 l/m 0,8 km/h (0 Bft) N 11 2 min 0,000 mm 0,0 UV-I 83 W/m 16,8 C 29,3 C 1,6 km/h (1 Bft) 100,00 %
23.07.2019 19:58 29,2 C 27,2 C 32,2 C 46 % 1016,6 hPa 0,0 l/m 1,7 km/h (1 Bft) N 11 2 min 0,000 mm 0,0 UV-I 79 W/m 16,4 C 29,2 C 3,2 km/h (1 Bft) 97,37 %
23.07.2019 20:00 29,1 C 27,2 C 31,7 C 46 % 1016,7 hPa 0,0 l/m 2,2 km/h (1 Bft) N 11 2 min 0,127 mm 0,0 UV-I 76 W/m 16,3 C 29,1 C 3,2 km/h (1 Bft) 100,00 %
23.07.2019 20:02 29,1 C 27,2 C 31,1 C 46 % 1016,7 hPa 0,0 l/m 2,3 km/h (1 Bft) N 11 2 min 0,000 mm 0,0 UV-I 72 W/m 16,3 C 29,1 C 3,2 km/h (1 Bft) 100,00 %
23.07.2019 20:04 29,1 C 27,2 C 30,0 C 47 % 1016,7 hPa 0,0 l/m 1,8 km/h (1 Bft) N 11 2 min 0,000 mm 0,0 UV-I 70 W/m 16,6 C 29,1 C 3,2 km/h (1 Bft) 100,00 %
23.07.2019 20:06 28,8 C 27,2 C 28,9 C 49 % 1016,6 hPa 0,0 l/m 1,8 km/h (1 Bft) N 11 2 min 0,000 mm 0,0 UV-I 67 W/m 17,0 C 28,8 C 3,2 km/h (1 Bft) 100,00 %
23.07.2019 20:09 28,6 C 27,2 C 27,2 C 52 % 1016,6 hPa 0,0 l/m 1,8 km/h (1 Bft) N 11 3 min 0,000 mm 0,0 UV-I 63 W/m 17,8 C 28,6 C 3,2 km/h (1 Bft) 98,65 %
23.07.2019 20:10 28,4 C 27,2 C 26,7 C 53 % 1016,6 hPa 0,0 l/m 1,7 km/h (1 Bft) N 11 1 min 0,000 mm 0,0 UV-I 60 W/m 17,9 C 28,4 C 3,2 km/h (1 Bft) 100,00 %
23.07.2019 20:12 28,2 C 27,2 C 26,1 C 54 % 1016,6 hPa 0,0 l/m 1,5 km/h (1 Bft) N 11 2 min 0,000 mm 0,0 UV-I 58 W/m 18,0 C 28,2 C 1,6 km/h (1 Bft) 100,00 %
23.07.2019 20:14 27,8 C 27,2 C 26,1 C 56 % 1016,6 hPa 0,0 l/m 1,1 km/h (1 Bft) N 11 2 min 0,000 mm 0,0 UV-I 53 W/m 18,2 C 27,8 C 1,6 km/h (1 Bft) 98,00 %
23.07.2019 20:16 27,4 C 27,2 C 25,6 C 57 % 1016,6 hPa 0,0 l/m 0,5 km/h (0 Bft) N 11 2 min 0,000 mm 0,0 UV-I 45 W/m 18,1 C 27,4 C 1,6 km/h (1 Bft) 100,00 %
23.07.2019 20:19 27,3 C 27,2 C 25,0 C 54 % 1016,6 hPa 0,0 l/m 0,7 km/h (0 Bft) N 11 3 min 0,000 mm 0,0 UV-I 41 W/m 17,2 C 27,3 C 1,6 km/h (1 Bft) 100,00 %
23.07.2019 20:20 27,2 C 27,2 C 25,0 C 55 % 1016,6 hPa 0,0 l/m 1,6 km/h (1 Bft) N 11 1 min 0,000 mm 0,0 UV-I 44 W/m 17,4 C 27,2 C 3,2 km/h (1 Bft) 100,00 %
23.07.2019 20:22 27,0 C 27,2 C 25,0 C 54 % 1016,6 hPa 0,0 l/m 1,5 km/h (1 Bft) N 11 2 min 0,000 mm 0,0 UV-I 46 W/m 16,9 C 27,0 C 3,2 km/h (1 Bft) 97,62 %
23.07.2019 20:24 26,7 C 27,2 C 24,4 C 55 % 1016,6 hPa 0,0 l/m 1,9 km/h (1 Bft) N 11 2 min 0,000 mm 0,0 UV-I 41 W/m 16,9 C 26,7 C 3,2 km/h (1 Bft) 100,00 %
23.07.2019 20:26 26,3 C 27,2 C 23,9 C 56 % 1016,6 hPa 0,0 l/m 1,1 km/h (1 Bft) N 11 2 min 0,000 mm 0,0 UV-I 38 W/m 16,8 C 26,3 C 1,6 km/h (1 Bft) 98,11 %
23.07.2019 20:28 26,2 C 27,2 C 23,9 C 57 % 1016,6 hPa 0,0 l/m 0,4 km/h (0 Bft) N 11 2 min 0,000 mm 0,0 UV-I 35 W/m 17,0 C 26,2 C 1,6 km/h (1 Bft) 100,00 %
23.07.2019 20:30 26,2 C 27,2 C 23,3 C 54 % 1016,6 hPa 0,0 l/m 0,0 km/h (0 Bft) N 11 2 min 0,000 mm 0,0 UV-I 33 W/m 16,1 C 26,2 C 0,0 km/h (0 Bft) 100,00 %
23.07.2019 20:32 26,2 C 27,2 C 23,3 C 55 % 1016,5 hPa 0,0 l/m 0,0 km/h (0 Bft) N 11 2 min 0,000 mm 0,0 UV-I 29 W/m 16,4 C 26,2 C 0,0 km/h (0 Bft) 100,00 %
23.07.2019 20:34 26,2 C 27,2 C 22,8 C 55 % 1016,6 hPa 0,0 l/m 0,0 km/h (0 Bft) N 11 2 min 0,000 mm 0,0 UV-I 22 W/m 16,4 C 26,2 C 0,0 km/h (0 Bft) 100,00 %
23.07.2019 20:36 26,1 C 27,2 C 22,8 C 57 % 1016,5 hPa 0,0 l/m 0,0 km/h (0 Bft) N 11 2 min 0,000 mm 0,0 UV-I 19 W/m 16,9 C 26,1 C 0,0 km/h (0 Bft) 97,87 %
23.07.2019 20:39 26,0 C 27,2 C 22,8 C 56 % 1016,5 hPa 0,0 l/m 0,0 km/h (0 Bft) N 11 3 min 0,000 mm 0,0 UV-I 18 W/m 16,5 C 26,0 C 0,0 km/h (0 Bft) 100,00 %
23.07.2019 20:40 25,9 C 27,2 C 22,8 C 56 % 1016,5 hPa 0,0 l/m 0,0 km/h (0 Bft) N 11 1 min 0,000 mm 0,0 UV-I 16 W/m 16,4 C 25,9 C 0,0 km/h (0 Bft) 100,00 %
23.07.2019 20:42 25,7 C 27,2 C 22,2 C 56 % 1016,5 hPa 0,0 l/m 0,0 km/h (0 Bft) N 11 0 min 0,000 mm 0,0 UV-I 14 W/m 16,2 C 25,7 C 0,0 km/h (0 Bft) 100,00 %
23.07.2019 20:44 25,6 C 27,2 C 22,2 C 57 % 1016,4 hPa 0,0 l/m 0,0 km/h (0 Bft) N 11 0 min 0,000 mm 0,0 UV-I 13 W/m 16,4 C 25,6 C 0,0 km/h (0 Bft) 100,00 %
23.07.2019 20:46 25,4 C 27,2 C 22,2 C 58 % 1016,4 hPa 0,0 l/m 0,0 km/h (0 Bft) N 11 0 min 0,000 mm 0,0 UV-I 12 W/m 16,5 C 25,4 C 0,0 km/h (0 Bft) 98,11 %
23.07.2019 20:48 25,2 C 27,2 C 22,2 C 58 % 1016,5 hPa 0,0 l/m 0,6 km/h (0 Bft) N 11 0 min 0,000 mm 0,0 UV-I 11 W/m 16,3 C 25,2 C 1,6 km/h (1 Bft) 97,87 %
23.07.2019 20:50 24,8 C 27,2 C 22,2 C 59 % 1016,5 hPa 0,0 l/m 1,9 km/h (1 Bft) N 11 0 min 0,000 mm 0,0 UV-I 11 W/m 16,2 C 24,8 C 3,2 km/h (1 Bft) 98,00 %
23.07.2019 20:52 24,6 C 27,2 C 22,2 C 60 % 1016,4 hPa 0,0 l/m 2,1 km/h (1 Bft) N 11 0 min 0,000 mm 0,0 UV-I 9 W/m 16,3 C 24,6 C 3,2 km/h (1 Bft) 95,12 %
23.07.2019 20:54 24,3 C 27,2 C 22,2 C 61 % 1016,4 hPa 0,0 l/m 1,8 km/h (1 Bft) N 11 0 min 0,000 mm 0,0 UV-I 9 W/m 16,3 C 24,3 C 3,2 km/h (1 Bft) 97,44 %
23.07.2019 20:56 24,2 C 27,2 C 21,7 C 61 % 1016,4 hPa 0,0 l/m 1,7 km/h (1 Bft) N 11 0 min 0,000 mm 0,0 UV-I 9 W/m 16,2 C 24,2 C 3,2 km/h (1 Bft) 98,00 %
23.07.2019 20:59 24,3 C 27,2 C 21,7 C 58 % 1016,5 hPa 0,0 l/m 0,1 km/h (0 Bft) N 11 0 min 0,000 mm 0,0 UV-I 7 W/m 15,5 C 24,3 C 1,6 km/h (1 Bft) 97,26 %
23.07.2019 21:00 24,5 C 27,2 C 21,7 C 58 % 1016,5 hPa 0,0 l/m 0,0 km/h (0 Bft) N 11 0 min 0,000 mm 0,0 UV-I 7 W/m 15,7 C 24,5 C 0,0 km/h (0 Bft) 95,83 %
23.07.2019 21:02 24,8 C 27,2 C 21,1 C 58 % 1016,5 hPa 0,0 l/m 0,0 km/h (0 Bft) N 11 0 min 0,025 mm 0,0 UV-I 7 W/m 16,0 C 24,8 C 0,0 km/h (0 Bft) 89,36 %
23.07.2019 21:04 24,7 C 27,2 C 21,1 C 59 % 1016,4 hPa 0,0 l/m 0,0 km/h (0 Bft) N 11 0 min 0,000 mm 0,0 UV-I 5 W/m 16,1 C 24,7 C 0,0 km/h (0 Bft) 93,62 %
23.07.2019 21:06 24,6 C 27,2 C 21,1 C 61 % 1016,4 hPa 0,0 l/m 0,0 km/h (0 Bft) N 11 0 min 0,000 mm 0,0 UV-I 5 W/m 16,6 C 24,6 C 0,0 km/h (0 Bft) 94,00 %
23.07.2019 21:08 24,3 C 27,2 C 21,1 C 61 % 1016,4 hPa 0,0 l/m 0,0 km/h (0 Bft) N 11 0 min 0,000 mm 0,0 UV-I 5 W/m 16,3 C 24,3 C 0,0 km/h (0 Bft) 92,68 %
23.07.2019 21:10 24,2 C 27,2 C 21,1 C 63 % 1016,5 hPa 0,0 l/m 0,0 km/h (0 Bft) N 11 0 min 0,000 mm 0,0 UV-I 5 W/m 16,7 C 24,2 C 0,0 km/h (0 Bft) 92,00 %
23.07.2019 21:12 24,1 C 27,2 C 20,6 C 62 % 1016,5 hPa 0,0 l/m 0,0 km/h (0 Bft) N 11 0 min 0,000 mm 0,0 UV-I 4 W/m 16,4 C 24,1 C 0,0 km/h (0 Bft) 94,00 %
23.07.2019 21:14 24,0 C 27,2 C 20,6 C 63 % 1016,5 hPa 0,0 l/m 0,0 km/h (0 Bft) N 11 0 min 0,000 mm 0,0 UV-I 0 W/m 16,5 C 24,0 C 0,0 km/h (0 Bft) 91,49 %
23.07.2019 21:16 23,8 C 27,2 C 20,6 C 63 % 1016,5 hPa 0,0 l/m 0,0 km/h (0 Bft) N 11 0 min 0,000 mm 0,0 UV-I 0 W/m 16,3 C 23,8 C 0,0 km/h (0 Bft) 94,74 %
23.07.2019 21:18 23,6 C 27,2 C 20,6 C 64 % 1016,5 hPa 0,0 l/m 0,3 km/h (0 Bft) N 11 0 min 0,000 mm 0,0 UV-I 0 W/m 16,4 C 23,6 C 1,6 km/h (1 Bft) 94,34 %
23.07.2019 21:20 23,4 C 27,2 C 20,6 C 64 % 1016,5 hPa 0,0 l/m 1,0 km/h (0 Bft) N 11 0 min 0,000 mm 0,0 UV-I 0 W/m 16,2 C 23,4 C 1,6 km/h (1 Bft) 92,68 %
23.07.2019 21:22 23,5 C 27,2 C 20,6 C 63 % 1016,5 hPa 0,0 l/m 0,7 km/h (0 Bft) N 11 0 min 0,000 mm 0,0 UV-I 0 W/m 16,0 C 23,5 C 1,6 km/h (1 Bft) 94,00 %
23.07.2019 21:24 23,6 C 27,2 C 20,6 C 63 % 1016,4 hPa 0,0 l/m 0,7 km/h (0 Bft) N 11 0 min 0,000 mm 0,0 UV-I 0 W/m 16,1 C 23,6 C 1,6 km/h (1 Bft) 96,00 %
23.07.2019 21:26 23,6 C 27,2 C 20,6 C 61 % 1016,4 hPa 0,0 l/m 0,1 km/h (0 Bft) N 11 0 min 0,000 mm 0,0 UV-I 0 W/m 15,6 C 23,6 C 1,6 km/h (1 Bft) 95,12 %
23.07.2019 21:28 23,6 C 27,2 C 20,6 C 62 % 1016,5 hPa 0,0 l/m 0,0 km/h (0 Bft) N 11 0 min 0,000 mm 0,0 UV-I 0 W/m 15,9 C 23,6 C 0,0 km/h (0 Bft) 93,62 %
23.07.2019 21:30 23,7 C 27,2 C 20,6 C 61 % 1016,5 hPa 0,0 l/m 0,0 km/h (0 Bft) N 11 0 min 0,000 mm 0,0 UV-I 0 W/m 15,7 C 23,7 C 0,0 km/h (0 Bft) 95,74 %
23.07.2019 21:32 23,7 C 27,2 C 20,0 C 60 % 1016,5 hPa 0,0 l/m 0,0 km/h (0 Bft) N 11 0 min 0,000 mm 0,0 UV-I 0 W/m 15,5 C 23,7 C 0,0 km/h (0 Bft) 98,11 %
23.07.2019 21:34 23,8 C 27,2 C 20,0 C 59 % 1016,5 hPa 0,0 l/m 0,0 km/h (0 Bft) N 11 0 min 0,000 mm 0,0 UV-I 0 W/m 15,3 C 23,8 C 0,0 km/h (0 Bft) 95,74 %
23.07.2019 21:36 23,9 C 27,2 C 20,0 C 59 % 1016,5 hPa 0,0 l/m 0,0 km/h (0 Bft) N 11 0 min 0,000 mm 0,0 UV-I 0 W/m 15,4 C 23,9 C 0,0 km/h (0 Bft) 96,00 %
23.07.2019 21:38 23,9 C 27,2 C 20,0 C 62 % 1016,5 hPa 0,0 l/m 0,0 km/h (0 Bft) N 11 0 min 0,000 mm 0,0 UV-I 0 W/m 16,2 C 23,9 C 0,0 km/h (0 Bft) 97,22 %
23.07.2019 21:40 23,7 C 26,7 C 20,0 C 65 % 1016,4 hPa 0,0 l/m 0,0 km/h (0 Bft) N 11 0 min 0,000 mm 0,0 UV-I 0 W/m 16,7 C 23,7 C 0,0 km/h (0 Bft) 98,11 %
23.07.2019 21:42 23,5 C 26,7 C 20,0 C 65 % 1016,5 hPa 0,0 l/m 0,1 km/h (0 Bft) N 11 0 min 0,000 mm 0,0 UV-I 0 W/m 16,5 C 23,5 C 1,6 km/h (1 Bft) 97,87 %
23.07.2019 21:44 23,3 C 26,7 C 20,0 C 66 % 1016,5 hPa 0,0 l/m 1,6 km/h (1 Bft) N 11 0 min 0,000 mm 0,0 UV-I 0 W/m 16,6 C 23,3 C 3,2 km/h (1 Bft) 97,56 %
23.07.2019 21:46 22,9 C 26,7 C 20,0 C 67 % 1016,5 hPa 0,0 l/m 2,2 km/h (1 Bft) N 11 0 min 0,000 mm 0,0 UV-I 0 W/m 16,4 C 22,9 C 3,2 km/h (1 Bft) 93,62 %
23.07.2019 21:49 22,5 C 26,7 C 19,4 C 69 % 1016,5 hPa 0,0 l/m 2,8 km/h (1 Bft) N 11 0 min 0,000 mm 0,0 UV-I 0 W/m 16,5 C 22,5 C 3,2 km/h (1 Bft) 97,56 %
23.07.2019 21:50 22,4 C 26,7 C 19,4 C 69 % 1016,5 hPa 0,0 l/m 1,8 km/h (1 Bft) N 11 0 min 0,000 mm 0,0 UV-I 0 W/m 16,4 C 22,4 C 3,2 km/h (1 Bft) 93,33 %
23.07.2019 21:52 22,5 C 26,7 C 19,4 C 68 % 1016,5 hPa 0,0 l/m 1,0 km/h (0 Bft) N 11 0 min 0,000 mm 0,0 UV-I 0 W/m 16,3 C 22,5 C 1,6 km/h (1 Bft) 98,00 %
23.07.2019 21:54 22,4 C 26,7 C 20,0 C 67 % 1016,5 hPa 0,0 l/m 0,5 km/h (0 Bft) N 11 0 min 0,000 mm 0,0 UV-I 0 W/m 16,0 C 22,4 C 1,6 km/h (1 Bft) 97,56 %
23.07.2019 21:56 22,6 C 26,7 C 20,0 C 65 % 1016,4 hPa 0,0 l/m 0,9 km/h (0 Bft) N 11 0 min 0,000 mm 0,0 UV-I 0 W/m 15,7 C 22,6 C 1,6 km/h (1 Bft) 98,00 %
23.07.2019 21:59 23,1 C 26,7 C 20,0 C 62 % 1016,4 hPa 0,0 l/m 0,9 km/h (0 Bft) N 11 0 min 0,000 mm 0,0 UV-I 0 W/m 15,4 C 23,1 C 1,6 km/h (1 Bft) 96,05 %
23.07.2019 22:00 23,2 C 26,7 C 20,0 C 62 % 1016,4 hPa 0,0 l/m 0,8 km/h (0 Bft) N 11 0 min 0,000 mm 0,0 UV-I 0 W/m 15,5 C 23,2 C 1,6 km/h (1 Bft) 100,00 %
23.07.2019 22:02 23,2 C 26,7 C 20,0 C 63 % 1016,4 hPa 0,0 l/m 1,7 km/h (1 Bft) N 11 0 min 0,026 mm 0,0 UV-I 0 W/m 15,8 C 23,2 C 3,2 km/h (1 Bft) 97,87 %
23.07.2019 22:04 23,0 C 26,7 C 20,0 C 64 % 1016,4 hPa 0,0 l/m 1,2 km/h (1 Bft) N 11 0 min 0,000 mm 0,0 UV-I 0 W/m 15,8 C 23,0 C 1,6 km/h (1 Bft) 100,00 %
23.07.2019 22:06 23,0 C 26,7 C 20,0 C 64 % 1016,4 hPa 0,0 l/m 0,7 km/h (0 Bft) N 11 0 min 0,000 mm 0,0 UV-I 0 W/m 15,8 C 23,0 C 1,6 km/h (1 Bft) 100,00 %
23.07.2019 22:08 22,8 C 26,7 C 19,4 C 66 % 1016,4 hPa 0,0 l/m 0,9 km/h (0 Bft) N 11 0 min 0,000 mm 0,0 UV-I 0 W/m 16,1 C 22,8 C 1,6 km/h (1 Bft) 100,00 %
23.07.2019 22:10 22,6 C 26,7 C 19,4 C 67 % 1016,4 hPa 0,0 l/m 0,8 km/h (0 Bft) N 11 0 min 0,000 mm 0,0 UV-I 0 W/m 16,2 C 22,6 C 1,6 km/h (1 Bft) 100,00 %
23.07.2019 22:12 22,4 C 26,7 C 19,4 C 67 % 1016,4 hPa 0,0 l/m 0,5 km/h (0 Bft) N 11 0 min 0,000 mm 0,0 UV-I 0 W/m 16,0 C 22,4 C 1,6 km/h (1 Bft) 100,00 %
23.07.2019 22:14 22,4 C 26,7 C 19,4 C 67 % 1016,4 hPa 0,0 l/m 0,6 km/h (0 Bft) N 11 0 min 0,000 mm 0,0 UV-I 0 W/m 16,0 C 22,4 C 1,6 km/h (1 Bft) 100,00 %
23.07.2019 22:16 22,4 C 26,7 C 19,4 C 68 % 1016,4 hPa 0,0 l/m 0,6 km/h (0 Bft) N 11 0 min 0,000 mm 0,0 UV-I 0 W/m 16,2 C 22,4 C 1,6 km/h (1 Bft) 100,00 %
23.07.2019 22:18 22,4 C 26,7 C 19,4 C 70 % 1016,4 hPa 0,0 l/m 1,5 km/h (1 Bft) N 11 0 min 0,000 mm 0,0 UV-I 0 W/m 16,7 C 22,4 C 1,6 km/h (1 Bft) 97,92 %
23.07.2019 22:20 22,4 C 26,7 C 19,4 C 70 % 1016,4 hPa 0,0 l/m 1,7 km/h (1 Bft) N 11 0 min 0,000 mm 0,0 UV-I 0 W/m 16,7 C 22,4 C 3,2 km/h (1 Bft) 100,00 %
23.07.2019 22:22 22,4 C 26,7 C 20,0 C 70 % 1016,4 hPa 0,0 l/m 3,5 km/h (1 Bft) N 11 0 min 0,000 mm 0,0 UV-I 0 W/m 16,7 C 22,4 C 4,8 km/h (1 Bft) 96,00 %
23.07.2019 22:24 22,3 C 26,7 C 20,0 C 70 % 1016,4 hPa 0,0 l/m 4,5 km/h (1 Bft) N 11 0 min 0,000 mm 0,0 UV-I 0 W/m 16,6 C 22,3 C 4,8 km/h (1 Bft) 100,00 %
23.07.2019 22:26 22,3 C 26,7 C 20,0 C 68 % 1016,4 hPa 0,0 l/m 3,8 km/h (1 Bft) N 11 0 min 0,000 mm 0,0 UV-I 0 W/m 16,1 C 22,3 C 4,8 km/h (1 Bft) 100,00 %
23.07.2019 22:28 22,3 C 26,7 C 20,0 C 68 % 1016,4 hPa 0,0 l/m 4,7 km/h (1 Bft) S-SW 205 0 min 0,000 mm 0,0 UV-I 0 W/m 16,1 C 22,3 C 6,4 km/h (2 Bft) 100,00 %
23.07.2019 22:30 22,3 C 26,7 C 20,6 C 68 % 1016,4 hPa 0,0 l/m 5,2 km/h (1 Bft) S-SW 204 0 min 0,000 mm 0,0 UV-I 0 W/m 16,1 C 22,3 C 6,4 km/h (2 Bft) 100,00 %
23.07.2019 22:32 22,3 C 26,7 C 20,0 C 68 % 1016,5 hPa 0,0 l/m 4,2 km/h (1 Bft) S-SW 204 0 min 0,000 mm 0,0 UV-I 0 W/m 16,1 C 22,3 C 6,4 km/h (2 Bft) 100,00 %
23.07.2019 22:34 22,4 C 26,7 C 20,6 C 67 % 1016,4 hPa 0,0 l/m 2,9 km/h (1 Bft) S-SW 204 0 min 0,000 mm 0,0 UV-I 0 W/m 16,0 C 22,4 C 3,2 km/h (1 Bft) 97,87 %
23.07.2019 22:36 22,4 C 26,7 C 20,6 C 67 % 1016,4 hPa 0,0 l/m 2,7 km/h (1 Bft) S-SW 204 0 min 0,000 mm 0,0 UV-I 0 W/m 16,0 C 22,4 C 3,2 km/h (1 Bft) 96,00 %
23.07.2019 22:38 22,4 C 26,7 C 20,0 C 68 % 1016,5 hPa 0,0 l/m 2,2 km/h (1 Bft) S-SW 204 0 min 0,000 mm 0,0 UV-I 0 W/m 16,2 C 22,4 C 3,2 km/h (1 Bft) 97,87 %
23.07.2019 22:40 22,4 C 26,7 C 20,0 C 67 % 1016,4 hPa 0,0 l/m 3,0 km/h (1 Bft) S-SW 204 0 min 0,000 mm 0,0 UV-I 0 W/m 16,0 C 22,4 C 4,8 km/h (1 Bft) 97,87 %
23.07.2019 22:42 22,4 C 26,7 C 20,0 C 66 % 1016,5 hPa 0,0 l/m 2,5 km/h (1 Bft) S-SW 204 0 min 0,000 mm 0,0 UV-I 0 W/m 15,7 C 22,4 C 4,8 km/h (1 Bft) 97,37 %
23.07.2019 22:44 22,4 C 26,7 C 19,4 C 66 % 1016,5 hPa 0,0 l/m 3,2 km/h (1 Bft) S-SW 204 0 min 0,000 mm 0,0 UV-I 0 W/m 15,7 C 22,4 C 4,8 km/h (1 Bft) 94,34 %
23.07.2019 22:46 22,3 C 26,7 C 19,4 C 67 % 1016,4 hPa 0,0 l/m 4,3 km/h (1 Bft) S-SW 204 0 min 0,000 mm 0,0 UV-I 0 W/m 15,9 C 22,3 C 4,8 km/h (1 Bft) 95,74 %
23.07.2019 22:48 22,1 C 26,7 C 19,4 C 68 % 1016,5 hPa 0,0 l/m 4,1 km/h (1 Bft) S-SW 204 0 min 0,000 mm 0,0 UV-I 0 W/m 15,9 C 22,1 C 4,8 km/h (1 Bft) 95,74 %
23.07.2019 22:50 22,0 C 26,7 C 19,4 C 70 % 1016,5 hPa 0,0 l/m 3,6 km/h (1 Bft) S-SW 204 0 min 0,000 mm 0,0 UV-I 0 W/m 16,3 C 22,0 C 4,8 km/h (1 Bft) 91,67 %
23.07.2019 22:52 21,9 C 26,7 C 19,4 C 70 % 1016,5 hPa 0,0 l/m 4,6 km/h (1 Bft) S-SW 204 0 min 0,000 mm 0,0 UV-I 0 W/m 16,2 C 21,9 C 6,4 km/h (2 Bft) 95,18 %
23.07.2019 22:54 21,7 C 26,7 C 19,4 C 70 % 1016,5 hPa 0,0 l/m 3,8 km/h (1 Bft) S-SW 204 0 min 0,000 mm 0,0 UV-I 0 W/m 16,0 C 21,7 C 4,8 km/h (1 Bft) 95,74 %
23.07.2019 22:56 21,6 C 26,7 C 18,9 C 70 % 1016,5 hPa 0,0 l/m 3,3 km/h (1 Bft) S-SW 204 0 min 0,000 mm 0,0 UV-I 0 W/m 15,9 C 21,6 C 4,8 km/h (1 Bft) 95,74 %
23.07.2019 22:58 21,7 C 26,7 C 18,9 C 70 % 1016,5 hPa 0,0 l/m 2,6 km/h (1 Bft) S-SW 204 0 min 0,000 mm 0,0 UV-I 0 W/m 16,0 C 21,7 C 3,2 km/h (1 Bft) 94,00 %
23.07.2019 23:00 21,8 C 26,7 C 19,4 C 69 % 1016,5 hPa 0,0 l/m 1,5 km/h (1 Bft) S-SW 204 0 min 0,025 mm 0,0 UV-I 0 W/m 15,9 C 21,8 C 3,2 km/h (1 Bft) 97,87 %
23.07.2019 23:02 21,8 C 26,7 C 18,9 C 69 % 1016,6 hPa 0,0 l/m 2,3 km/h (1 Bft) S-SW 204 0 min 0,000 mm 0,0 UV-I 0 W/m 15,9 C 21,8 C 3,2 km/h (1 Bft) 98,00 %
23.07.2019 23:04 21,9 C 26,7 C 18,9 C 69 % 1016,6 hPa 0,0 l/m 3,4 km/h (1 Bft) S-SW 204 0 min 0,000 mm 0,0 UV-I 0 W/m 15,9 C 21,9 C 4,8 km/h (1 Bft) 97,37 %
23.07.2019 23:06 21,9 C 26,7 C 18,9 C 69 % 1016,6 hPa 0,0 l/m 3,5 km/h (1 Bft) S-SW 204 0 min 0,000 mm 0,0 UV-I 0 W/m 15,9 C 21,9 C 4,8 km/h (1 Bft) 97,87 %
23.07.2019 23:08 21,8 C 26,7 C 18,9 C 69 % 1016,6 hPa 0,0 l/m 4,0 km/h (1 Bft) S-SW 204 0 min 0,000 mm 0,0 UV-I 0 W/m 15,9 C 21,8 C 4,8 km/h (1 Bft) 97,87 %
23.07.2019 23:10 21,6 C 26,7 C 19,4 C 70 % 1016,6 hPa 0,0 l/m 3,4 km/h (1 Bft) S-SW 204 0 min 0,000 mm 0,0 UV-I 0 W/m 15,9 C 21,6 C 4,8 km/h (1 Bft) 98,00 %
23.07.2019 23:12 21,4 C 26,7 C 19,4 C 72 % 1016,6 hPa 0,0 l/m 4,2 km/h (1 Bft) S-SW 205 0 min 0,000 mm 0,0 UV-I 0 W/m 16,1 C 21,4 C 6,4 km/h (2 Bft) 97,87 %
23.07.2019 23:14 21,3 C 26,7 C 19,4 C 73 % 1016,6 hPa 0,0 l/m 4,6 km/h (1 Bft) S-SW 205 0 min 0,000 mm 0,0 UV-I 0 W/m 16,3 C 21,3 C 6,4 km/h (2 Bft) 94,00 %
23.07.2019 23:16 21,1 C 26,7 C 19,4 C 73 % 1016,6 hPa 0,0 l/m 5,0 km/h (1 Bft) S-SW 205 0 min 0,000 mm 0,0 UV-I 0 W/m 16,1 C 21,1 C 6,4 km/h (2 Bft) 97,37 %
23.07.2019 23:18 21,1 C 26,7 C 18,9 C 73 % 1016,6 hPa 0,0 l/m 4,3 km/h (1 Bft) S-SW 204 0 min 0,000 mm 0,0 UV-I 0 W/m 16,1 C 21,1 C 6,4 km/h (2 Bft) 95,12 %
23.07.2019 23:20 21,1 C 26,7 C 18,9 C 72 % 1016,6 hPa 0,0 l/m 4,1 km/h (1 Bft) S-SW 204 0 min 0,000 mm 0,0 UV-I 0 W/m 15,8 C 21,1 C 4,8 km/h (1 Bft) 98,39 %
23.07.2019 23:22 21,2 C 26,7 C 18,9 C 72 % 1016,6 hPa 0,0 l/m 3,7 km/h (1 Bft) S-SW 204 0 min 0,000 mm 0,0 UV-I 0 W/m 15,9 C 21,2 C 6,4 km/h (2 Bft) 100,00 %
23.07.2019 23:24 21,2 C 26,7 C 18,9 C 72 % 1016,7 hPa 0,0 l/m 4,1 km/h (1 Bft) S-SW 204 0 min 0,000 mm 0,0 UV-I 0 W/m 15,9 C 21,2 C 6,4 km/h (2 Bft) 98,00 %
23.07.2019 23:26 21,1 C 26,7 C 18,9 C 72 % 1016,7 hPa 0,0 l/m 2,9 km/h (1 Bft) S-SW 204 0 min 0,000 mm 0,0 UV-I 0 W/m 15,8 C 21,1 C 4,8 km/h (1 Bft) 100,00 %
23.07.2019 23:28 20,9 C 26,7 C 18,3 C 73 % 1016,7 hPa 0,0 l/m 4,2 km/h (1 Bft) S-SW 204 0 min 0,000 mm 0,0 UV-I 0 W/m 15,9 C 20,9 C 4,8 km/h (1 Bft) 100,00 %
23.07.2019 23:30 20,8 C 26,7 C 18,3 C 74 % 1016,7 hPa 0,0 l/m 4,6 km/h (1 Bft) S-SW 204 0 min 0,000 mm 0,0 UV-I 0 W/m 16,0 C 20,8 C 6,4 km/h (2 Bft) 100,00 %
23.07.2019 23:32 20,8 C 26,7 C 18,3 C 74 % 1016,6 hPa 0,0 l/m 4,5 km/h (1 Bft) S-SW 203 0 min 0,000 mm 0,0 UV-I 0 W/m 16,0 C 20,8 C 4,8 km/h (1 Bft) 100,00 %
23.07.2019 23:34 20,9 C 26,7 C 18,3 C 74 % 1016,6 hPa 0,0 l/m 3,8 km/h (1 Bft) S-SW 203 0 min 0,000 mm 0,0 UV-I 0 W/m 16,1 C 20,9 C 6,4 km/h (2 Bft) 100,00 %
23.07.2019 23:36 20,9 C 26,7 C 18,3 C 73 % 1016,6 hPa 0,0 l/m 3,6 km/h (1 Bft) S-SW 203 0 min 0,000 mm 0,0 UV-I 0 W/m 15,9 C 20,9 C 4,8 km/h (1 Bft) 100,00 %
23.07.2019 23:38 20,9 C 26,7 C 18,3 C 74 % 1016,7 hPa 0,0 l/m 4,3 km/h (1 Bft) S-SW 203 0 min 0,000 mm 0,0 UV-I 0 W/m 16,1 C 20,9 C 6,4 km/h (2 Bft) 100,00 %
23.07.2019 23:40 20,9 C 26,7 C 18,9 C 74 % 1016,6 hPa 0,0 l/m 4,8 km/h (1 Bft) S-SW 203 0 min 0,000 mm 0,0 UV-I 0 W/m 16,1 C 20,9 C 6,4 km/h (2 Bft) 100,00 %
23.07.2019 23:42 21,1 C 26,7 C 18,9 C 73 % 1016,6 hPa 0,0 l/m 5,1 km/h (1 Bft) S-SW 198 0 min 0,000 mm 0,0 UV-I 0 W/m 16,1 C 21,1 C 6,4 km/h (2 Bft) 97,37 %
23.07.2019 23:44 21,0 C 26,7 C 18,9 C 74 % 1016,6 hPa 0,0 l/m 5,7 km/h (1 Bft) S-SW 201 0 min 0,000 mm 0,0 UV-I 0 W/m 16,2 C 21,0 C 8,0 km/h (2 Bft) 100,00 %
23.07.2019 23:46 21,0 C 26,7 C 19,4 C 74 % 1016,6 hPa 0,0 l/m 5,8 km/h (2 Bft) S-SW 208 0 min 0,000 mm 0,0 UV-I 0 W/m 16,2 C 21,0 C 8,0 km/h (2 Bft) 100,00 %
23.07.2019 23:48 21,2 C 26,7 C 19,4 C 73 % 1016,6 hPa 0,0 l/m 5,3 km/h (1 Bft) S-SW 203 0 min 0,000 mm 0,0 UV-I 0 W/m 16,2 C 21,2 C 8,0 km/h (2 Bft) 97,87 %
23.07.2019 23:50 21,3 C 26,7 C 19,4 C 72 % 1016,6 hPa 0,0 l/m 4,7 km/h (1 Bft) S-SW 205 0 min 0,000 mm 0,0 UV-I 0 W/m 16,0 C 21,3 C 6,4 km/h (2 Bft) 100,00 %
23.07.2019 23:52 21,4 C 26,7 C 19,4 C 72 % 1016,5 hPa 0,0 l/m 3,9 km/h (1 Bft) S-SW 205 0 min 0,000 mm 0,0 UV-I 0 W/m 16,1 C 21,4 C 4,8 km/h (1 Bft) 100,00 %
23.07.2019 23:54 21,4 C 26,7 C 19,4 C 72 % 1016,5 hPa 0,0 l/m 4,4 km/h (1 Bft) S-SW 205 0 min 0,000 mm 0,0 UV-I 0 W/m 16,1 C 21,4 C 4,8 km/h (1 Bft) 100,00 %
23.07.2019 23:56 21,5 C 26,7 C 19,4 C 71 % 1016,5 hPa 0,0 l/m 4,7 km/h (1 Bft) S-SW 212 0 min 0,000 mm 0,0 UV-I 0 W/m 16,0 C 21,5 C 8,0 km/h (2 Bft) 100,00 %
23.07.2019 23:58 21,6 C 26,7 C 18,9 C 70 % 1016,6 hPa 0,0 l/m 6,4 km/h (2 Bft) S-SW 207 0 min 0,000 mm 0,0 UV-I 0 W/m 15,9 C 21,6 C 8,0 km/h (2 Bft) 100,00 %
_ Min-Zeit 05:28 01:44 05:20 18:50 20:44 - 03:10 - - - - - - 13:50 05:26 03:10 00:02
Minimum _ 16,6 C 25,0 C 15,0 C 36 % 1016,4 hPa - 0,0 km/h (0 Bft) - - - - - - 12,7 C 16,7 C 0,0 km/h (0 Bft) 5,88 %
_ Max-Zeit 16:40 16:36 12:08 05:28 07:00 00:00 10:08 - - 12:29 14:00 12:50 12:58 20:14 16:38 10:08 00:00
Maximum _ 31,2 C 27,2 C 43,9 C 89 % 1020,8 hPa 0,0 l/m 12,3 km/h
O-NO (3 Bft)
- - 3 min 0,610 mm 6,7 UV-I 870 W/m 18,2 C 31,1 C 19,3 km/h
O (3 Bft)
100,00 %
Durchschnitt _ 24,2 C 25,9 C 28,5 C 61 % 1019,0 hPa #0,0 l/m 4,1 km/h (1 Bft) S-SW - #15:00 h #5,664 mm 3,7 UV-I 475 W/m 15,3 C 24,1 C 6,6 km/h (2 Bft) 97,33 %